     2.11           OBSERVATION DATA    G (GPS)             RINEX VERSION / TYPE
teqc 2010Oct21 OPUS Account 20111028 15:07:52UTC            PGM / RUN BY / DATE
Y 1526                                                      MARKER NAME
3059                                                        MARKER NUMBER
CSMIDDLETON NGS                                             OBSERVER / AGENCY
4624K01583 TRIMBLE NETR5 4.41                               REC # / TYPE / VERS
60154430 TRM41249.00 NONE                                   ANT # / TYPE
  -740837.8517 -5580957.4924  2987399.0430                  APPROX POSITION XYZ
        2.0000        0.0000        0.0000                  ANTENNA: DELTA H/E/N
     1     1                                                WAVELENGTH FACT L1/2
     5    L1    L2    C1    P1    P2                        # / TYPES OF OBSERV
    15                                                      LEAP SECONDS
  2011     8    22    16     5   30.0000000     GPS         TIME OF FIRST OBS
                                                            END OF HEADER
 11  8 22 16  5 30.0000000  0 11G11G28G16G07G03G19G10G06G08G13G23
 129577341.28216 100969408.15353  24657754.320                    24657763.793
 129121249.78016 100613916.00453  24570937.328                    24570946.457
 122967463.16417  95818830.32554  23399929.820                    23399937.406
 116160305.71718  90514539.28417  22104571.422                    22104578.363
 111221110.67218  86665834.34055  21164674.055                    21164681.340
 110514851.03418  86115490.83056  21030277.211                    21030283.203
 125847955.52517  98063377.96254  23948069.617                    23948079.289
 120561109.15817  93943747.77154  22942016.883                    22942025.113
 126188947.76716  98329090.63254  24012958.977                    24012968.434
 105242342.60018  82007047.84056  20026952.539                    20026959.082
 107605063.91318  83848123.20956  20476562.820                    20476568.109
 11  8 22 16  6  0.0000000  0 11G11G28G16G07G03G19G10G06G08G13G23
 129503302.733 6 100911715.88643  24643664.602                    24643675.016
 129049651.741 6 100558125.35343  24557313.578                    24557321.801
 123057337.740 7  95888862.38744  23417033.234                    23417039.699
 116104962.369 8  90471414.618 7  22094040.289                    22094047.004
 111269823.116 8  86703792.04945  21173943.211                    21173950.762
 110489081.322 8  86095410.54546  21025373.203                    21025378.816
 125866678.428 7  98077967.18543  23951632.773                    23951642.074
 120631002.052 7  93998209.74344  22955317.430                    22955325.633
 126121932.370 6  98276870.90843  24000206.023                    24000215.395
 105241477.351 8  82006373.60246  20026787.469                    20026794.160
 107660420.621 8  83891258.27846  20487096.938                    20487102.121
 11  8 22 16  6 30.0000000  0 11G11G28G16G07G03G19G10G06G08G13G23
 129429123.823 7 100853914.20943  24629549.086                    24629558.910
 128978271.190 6 100502504.18543  24543730.352                    24543739.531
 123147211.554 7  95958893.87544  23434135.813                    23434142.863
 116049652.879 8  90428316.318 7  22083515.063                    22083522.352
 111319102.058 8  86742191.16945  21183321.281                    21183328.559
 110463897.785 8  86075787.01746  21020580.766                    21020586.438
 125885831.393 7  98092891.53243  23955277.219                    23955286.574
 120701306.925 7  94052992.70644  22968695.648                    22968703.844
 126054849.035 6  98224598.25243  23987440.570                    23987450.422
 105241195.825 8  82006154.22246  20026734.367                    20026740.758
 107716304.202 8  83934803.90346  20497731.547                    20497737.023
 11  8 22 16  7  0.0000000  0 11G11G28G16G07G03G19G10G06G08G13G23
 129354807.087 7 100796005.20743  24615406.961                    24615416.691
 128907108.431 6 100447052.77143  24530187.539                    24530197.344
 123237082.079 7  96028922.79244  23451237.133                    23451244.605
 115994377.449 7  90385244.572 7  22072996.141                    22073003.023
 111368944.775 8  86781029.61745  21192805.992                    21192813.125
 110439301.417 8  86056621.01146  21015900.219                    21015906.078
 125905411.806 6  98108148.98843  23959004.141                    23959013.555
 120772020.449 7  94108094.14544  22982152.148                    22982160.707
 125987697.372 6  98172272.34444  23974662.406                    23974672.109
 105241498.445 8  82006390.01646  20026791.703                    20026798.352
 107772712.487 8  83978758.38546  20508465.500                    20508470.855
 11  8 22 16  7 30.0000000  0 11G11G28G16G07G03G19G10G06G08G13G23
 129280355.803 6 100737991.28643  24601238.641                    24601249.102
 128836163.731 6 100391771.22643  24516687.641                    24516696.941
 123326948.358 7  96098948.40444  23468338.063                    23468345.078
 115939136.915 7  90342200.008 7  22062484.180                    22062491.820
 111419350.073 8  86820306.43945  21202397.578                    21202405.195
 110415294.561 8  86037914.38946  21011332.383                    21011337.727
 125925417.926 6  98123738.11143  23962810.531                    23962819.824
 120843141.501 7  94163513.09144  22995686.273                    22995693.715
 125920476.482 6  98119892.50743  23961870.492                    23961880.617
 105242386.027 8  82007081.61946  20026960.789                    20026967.492
 107829644.871 8  84023121.24846  20519299.406                    20519304.418
 11  8 22 16  8  0.0000000  0 11G11G28G16G07G03G19G10G06G08G13G23
 129205771.423 6 100679873.72743  24587045.891                    24587055.398
 128765438.233 6 100336660.47643  24503228.594                    24503238.281
 123416809.177 6  96168969.75044  23485438.367                    23485445.516
 115883933.165 7  90299184.118 7  22051979.359                    22051986.508
 111470316.777 8  86860020.72045  21212096.172                    21212103.895
 110391878.245 8  86019667.90746  21006876.359                    21006881.691
 125945848.889 6  98139658.27443  23966698.125                    23966708.168
 120914667.782 7  94219247.82344  23009297.320                    23009305.289
 125853188.128 7  98067460.09143  23949065.648                    23949075.410
 105243859.885 8  82008230.06846  20027240.781                    20027247.230
 107887099.875 8  84067891.35046  20530232.836                    20530237.961
 11  8 22 16  8 30.0000000  0 11G11G28G16G07G03G19G10G06G08G13G23
 129131056.719 6 100621654.56743  24572827.859                    24572838.859
 128694932.015 6 100281720.61043  24489812.109                    24489821.418
 123506662.769 7  96238985.48244  23502537.219                    23502544.109
 115828766.415 7  90256197.047 7  22041481.219                    22041488.363
 111521842.658 8  86900170.72245  21221901.406                    21221908.977
 110369053.940 8  86001882.73846  21002532.938                    21002537.973
 125966702.553 6  98155907.83843  23970666.734                    23970676.398
 120986597.112 7  94275296.62444  23022985.336                    23022992.969
 125785832.167 7  98014974.96743  23936248.688                    23936257.824
 105245920.662 7  82009835.85646  20027633.352                    20027640.172
 107945076.322 8  84113067.78546  20541265.078                    20541270.637
 11  8 22 16  9  0.0000000  0 11G11G28G16G07G03G19G10G06G08G13G23
 129056214.038 6 100563335.67443  24558586.578                    24558596.188
 128624645.454 6 100226951.88143  24476436.633                    24476447.164
 123596507.378 7  96308994.21744  23519633.930                    23519640.945
 115773637.585 7  90213239.524 7  22030991.000                    22030998.000
 111573925.876 8  86940755.02345  21231812.297                    21231820.277
 110346822.750 8  85984559.71846  20998302.328                    20998308.000
 125987977.276 6  98172485.48843  23974715.477                    23974724.844
 121058927.282 7  94331657.76444  23036748.688                    23036756.656
 125718408.837 7  97962437.34343  23923418.570                    23923427.441
 105248568.886 7  82011899.38646  20028137.273                    20028143.891
 108003572.380 8  84158649.10346  20552396.734                    20552402.539
 11  8 22 16  9 30.0000000  0 11G11G28G16G07G03G19G10G06G08G13G23
 128981246.259 6 100504919.31643  24544320.828                    24544330.082
 128554579.573 6 100172355.13443  24463103.867                    24463113.473
 123686341.875 7  96378995.07544  23536729.516                    23536736.266
 115718547.941 8  90170312.549 7  22020507.664                    22020514.434
 111626564.981 7  86981772.46845  21241829.266                    21241836.770
 110325186.549 8  85967700.34746  20994185.063                    20994190.449
 126009671.898 6  98189390.35343  23978843.781                    23978853.059
 121131656.489 7  94388329.85044  23050588.227                    23050596.359
 125650918.316 7  97909847.37843  23910574.805                    23910583.953
 105251805.660 8  82014421.54146  20028753.234                    20028759.602
 108062587.398 8  84204634.80846  20563626.945                    20563632.512
 11  8 22 16 10  0.0000000  0 11G11G28G16G07G03G19G10G06G08G13G23
 128906154.818 6 100446406.53542  24530030.180                    24530040.605
 128484734.100 6 100117930.12543  24449812.648                    24449821.789
 123776164.228 7  96448986.45444  23553822.484                    23553828.754
 115663497.648 8  90127416.234 7  22010031.547                    22010039.164
 111679757.591 8  87023221.21745  21251951.750                    21251959.320
 110304145.981 8  85951305.09346  20990181.297                    20990186.586
 126031783.660 6  98206620.28243  23983051.742                    23983060.770
 121204782.104 7  94445310.80844  23064504.211                    23064511.586
 125583360.521 7  97857204.97343  23897719.008                    23897727.086
 105255630.977 8  82017402.29646  20029481.328                    20029487.641
 108122119.247 8  84251023.23546  20574955.500                    20574960.652
 11  8 22 16 10 30.0000000  0 11G11G28G16G07G03G19G10G06G08G13G23
 128830942.184 6 100387799.39742  24515718.273                    24515727.566
 128415109.146 6 100063676.96743  24436563.602                    24436572.301
 123865972.676 7  96518967.01044  23570911.773                    23570918.945
 115608487.531 8  90084551.225 7  21999563.766                    21999570.992
 111733501.474 8  87065099.56345  21262179.133                    21262186.379
 110283701.609 8  85935374.41346  20986290.820                    20986296.445
 126054310.723 6  98224173.79243  23987338.648                    23987347.285
 121278301.327 7  94502598.49644  23078494.406                    23078501.980
 125515735.184 7  97804509.93443  23884850.211                    23884858.391
 105260045.381 8  82020842.08946  20030321.063                    20030328.047
 108182166.159 8  84297813.00046  20586382.227                    20586387.355
 11  8 22 16 11  0.0000000  0 11G11G28G16G07G03G19G10G06G08G13G23
 128755611.728 6 100329100.36342  24501382.859                    24501392.648
 128345705.754 6 100009596.43843  24423356.086                    24423365.508
 123955766.751 7  96588936.34544  23587998.547                    23588006.570
 115553519.429 8  90041718.949 7  21989103.438                    21989110.348
 111787796.002 8  87107406.96045  21272511.039                    21272518.051
 110263855.851 8  85919910.19046  20982514.352                    20982519.980
 126077252.282 6  98242050.26743  23991703.867                    23991713.160
 121352213.159 7  94560192.10444  23092559.609                    23092567.102
 125448043.467 7  97751763.16343  23871969.695                    23871977.512
 105265050.435 8  82024742.12246  20031273.547                    20031280.449
 108242727.585 8  84345003.69646  20597906.672                    20597911.965
 11  8 22 16 11 30.0000000  0 11G11G28G16G07G03G19G10G06G08G13G23
 128680165.571 6 100270311.20042  24487025.680                    24487035.727
 128276524.399 6  99955688.92743  24410191.953                    24410201.320
 124045544.645 7  96658893.06844  23605082.805                    23605090.285
 115498593.650 7  89998919.645 7  21978651.578                    21978659.320
 111842638.796 8  87150141.57645  21282946.922                    21282954.738
 110244609.733 8  85904913.21846  20978851.859                    20978857.559
 126100606.345 6  98260248.19743  23996147.672                    23996157.727
 121426515.057 7  94618089.65644  23106699.000                    23106706.637
 125380285.456 6  97698964.76443  23859075.289                    23859084.379
 105270646.446 8  82029102.63546  20032338.688                    20032345.238
 108303801.711 8  84392593.89746  20609528.883                    20609534.027
 11  8 22 16 12  0.0000000  0 11G11G28G16G07G03G19G10G06G08G13G23
 128604605.691 6 100211433.42042  24472647.117                    24472657.469
 128207564.782 6  99901954.21143  24397069.359                    24397078.863
 124135304.137 6  96728835.46244  23622163.641                    23622171.086
 115443711.186 7  89956154.103 7  21968207.648                    21968215.242
 111898027.274 8  87193301.39545  21293487.094                    21293495.246
 110225963.832 8  85890383.95746  20975303.672                    20975309.375
 126124370.507 7  98278765.67843  24000670.195                    24000679.609
 121501204.402 7  94676289.09744  23120911.852                    23120920.250
 125312460.798 6  97646114.44343  23846167.766                    23846177.563
 105276833.412 8  82033923.63446  20033516.000                    20033523.070
 108365386.609 8  84440582.10646  20621247.766                    20621252.785
 11  8 22 16 12 30.0000000  0 11G11G28G16G07G03G19G10G06G08G13G23
 128528934.431 6 100152468.90842  24458247.563                    24458257.633
 128138827.229 6  99848392.51843  24383989.000                    24383998.094
 124225043.977 6  96798762.55544  23639240.563                    23639248.242
 115388872.472 7  89913422.651 7  21957772.078                    21957779.418
 111953959.456 7  87236884.88945  21304130.742                    21304138.430
 110207919.310 8  85876323.28946  20971869.906                    20971875.344
 126148542.558 7  98297601.03443  24005270.398                    24005280.051
 121576278.548 7  94734788.39944  23135197.609                    23135205.934
 125244569.462 6  97593212.18543  23833249.016                    23833258.965
 105283611.890 8  82039205.55146  20034805.727                    20034812.711
 108427480.585 8  84488966.99346  20633063.789                    20633069.305
 11  8 22 16 13  0.0000000  0 11G11G28G16G07G03G19G10G06G08G13G23
 128453154.286 6 100093419.54342  24443827.359                    24443836.844
 128070312.052 6  99795004.09543  24370950.852                    24370959.836
 124314762.553 6  96868673.07844  23656313.461                    23656321.063
 115334078.390 7  89870725.980 7  21947345.578                    21947352.590
 112010433.287 7  87280890.43645  21314877.406                    21314884.895
 110190476.866 8  85862731.77646  20968550.734                    20968556.102
 126173120.837 6  98316752.88343  24009947.680                    24009957.277
 121651735.497 7  94793585.96744  23149557.055                    23149565.277
 125176611.591 7  97540258.08944  23820316.938                    23820326.293
 105290982.249 8  82044948.67146  20036208.039                    20036214.762
 108490081.874 8  84537747.19246  20644976.570                    20644981.906
 11  8 22 16 13 30.0000000  0 11G11G28G16G07G03G19G10G06G08G13G23
 128377267.841 6 100034287.25542  24429386.711                    24429395.734
 128002019.517 6  99741789.15143  24357954.742                    24357964.160
 124404458.491 6  96938565.95944  23673381.523                    23673389.770
 115279330.082 7  89828064.980 7  21936927.117                    21936934.023
 112067446.861 7  87325316.57345  21325726.438                    21325734.570
 110173637.790 8  85849610.40946  20965346.492                    20965352.281
 126198103.179 7  98336219.60044  24014701.844                    24014711.285
 121727572.781 7  94852679.88844  23163988.078                    23163996.461
 125108587.612 7  97487252.43744  23807372.789                    23807381.785
 105298945.008 8  82051153.40546  20037723.625                    20037729.688
 108553188.994 8  84586921.54046  20656985.430                    20656991.168
 11  8 22 16 14  0.0000000  0 11G11G28G16G07G03G19G10G06G08G13G23
 128301277.457 6  99975074.04542  24414926.180                    24414935.531
 127933949.928 6  99688747.94243  24345002.398                    24345011.359
 124494130.448 6  97008440.17244  23690446.242                    23690453.941
 115224628.570 8  89785440.436 7  21926518.094                    21926524.730
 112124997.933 7  87370161.54845  21336678.180                    21336686.004
 110157403.242 8  85836960.10746  20962256.844                    20962262.387
 126223488.151 6  98356000.04143  24019532.211                    24019541.426
 121803788.532 7  94912068.73144  23178491.344                    23178499.703
 125040497.918 7  97434195.58744  23794416.180                    23794424.965
 105307501.095 8  82057820.46946  20039351.836                    20039358.145
 108616800.364 8  84636488.81146  20669090.391                    20669096.000
 11  8 22 16 14 30.0000000  0 11G11G28G16G07G03G19G10G06G08G13G23
 128225185.439 6  99915781.57443  24400446.055                    24400455.301
 127866103.466 6  99635880.62343  24332091.094                    24332100.430
 124583776.389 6  97078294.07943  23707504.633                    23707512.230
 115169974.458 8  89742852.838 7  21916117.266                    21916124.422
 112183084.402 7  87415423.70545  21347732.023                    21347739.492
 110141773.695 8  85824781.24246  20959282.578                    20959287.992
 126249273.405 6  98376092.38343  24024438.586                    24024448.398
 121880379.687 7  94971750.10544  23193066.906                    23193074.816
 124972342.100 7  97381087.21144  23781446.625                    23781455.281
 105316649.755 8  82064949.28546  20041092.445                    20041099.402
 108680914.005 8  84686447.46046  20681290.922                    20681296.129
 11  8 22 16 15  0.0000000  0 11G11G28G16G07G03G19G10G06G08G13G23
 128148994.341 6  99856411.91843  24385947.531                    24385955.477
 127798480.254 6  99583187.20943  24319222.469                    24319231.992
 124673395.006 7  97148126.70043  23724559.180                    23724566.512
 115115368.574 8  89700302.818 7  21905726.328                    21905733.242
 112241704.272 7  87461101.52345  21358886.398                    21358894.148
 110126750.354 8  85813074.73846  20956423.820                    20956429.641
 126275456.729 6  98396494.94443  24029420.766                    24029430.738
 121957344.468 7  95031722.60244  23207712.320                    23207720.250
 124904120.664 7  97327927.70844  23768464.539                    23768472.676
 105326391.626 8  82072540.33546  20042946.422                    20042953.121
 108745528.425 8  84736796.32746  20693586.555                    20693591.578
 11  8 22 16 15 30.0000000  0 11G11G28G16G07G03G19G10G06G08G13G23
 128072706.567 6  99796966.94643  24371430.711                    24371438.832
 127731080.667 6  99530668.06243  24306396.445                    24306406.000
 124762985.143 7  97217937.11644  23741607.633                    23741614.832
 115060812.245 8  89657791.401 7  21895344.531                    21895351.496
 112300855.882 8  87507193.67045  21370143.070                    21370150.813
 110112334.231 8  85801841.39246  20953680.797                    20953686.352
 126302036.638 6  98417206.48843  24034479.727                    24034488.270
 122034680.465 7  95091984.35744  23222428.641                    23222437.609
 124835834.151 7  97274717.49144  23755469.523                    23755478.293
 105336727.598 8  82080594.32046  20044913.242                    20044919.871
 108810641.893 8  84787534.05546  20705977.281                    20705982.387
 11  8 22 16 16  0.0000000  0 11G11G28G16G07G03G19G10G06G08G13G23
 127996324.549 6  99737448.54343  24356895.422                    24356904.277
 127663904.765 6  99478323.25743  24293613.219                    24293622.906
 124852545.256 6  97287724.16144  23758650.383                    23758658.109
 115006306.019 8  89615319.032 7  21884972.141                    21884979.520
 112360536.294 8  87553697.86945  21381500.094                    21381507.148
 110098525.930 8  85791081.67846  20951052.867                    20951058.637
 126329010.814 6  98438225.28143  24039612.102                    24039621.773
 122112385.053 7  95152533.32644  23237215.828                    23237224.215
 124767482.716 7  97221456.67344  23742463.125                    23742471.461
 105347657.450 8  82089111.07946  20046993.492                    20047000.559
 108876252.459 8  84838659.14446  20718462.305                    20718467.629
 11  8 22 16 16 30.0000000  0 11G11G28G16G07G03G19G10G06G08G13G23
 127919851.045 6  99677858.84243  24342342.898                    24342352.059
 127596952.913 6  99426153.02343  24280872.273                    24280881.758
 124942074.007 7  97357486.74644  23775687.109                    23775694.918
 114951851.101 8  89572886.638 7  21874609.922                    21874617.090
 112420743.884 8  87600612.86045  21392956.914                    21392964.766
 110085326.630 8  85780796.50446  20948541.164                    20948546.547
 126356377.528 6  98459549.96443  24044820.570                    24044829.738
 122190456.182 7  95213367.90144  23252071.805                    23252080.543
 124699066.565 7  97168145.43144  23729443.016                    23729451.984
 105359181.970 8  82098091.21746  20049186.508                    20049192.734
 108942358.740 8  84890170.49746  20731042.125                    20731047.820
 11  8 22 16 17  0.0000000  0 11G11G28G16G07G03G19G10G06G08G13G23
 127843288.638 6  99618199.85443  24327773.539                    24327782.703
 127530225.511 6  99374157.65843  24268175.055                    24268184.191
 125031570.051 7  97427223.87744  23792717.344                    23792725.414
 114897448.709 7  89530495.167 7  21864257.242                    21864264.270
 112481476.542 7  87647936.99645  21404513.516                    21404521.707
 110072737.065 8  85770986.45646  20946145.414                    20946151.293
 126384134.655 6  98481178.86343  24050102.398                    24050111.430
 122268891.448 7  95274486.23244  23266997.828                    23267006.094
 124630585.960 7  97114783.96444  23716411.883                    23716420.375
 105371301.578 8  82107535.04546  20051492.469                    20051499.273
 109008958.869 8  84942066.67646  20743715.602                    20743721.320
 11  8 22 16 17 30.0000000  0 11G11G28G16G07G03G19G10G06G08G13G23
 127766639.637 7  99558473.39343  24313188.125                    24313197.047
 127463722.579 6  99322337.23943  24255520.242                    24255528.883
 125121031.767 7  97496934.22844  23809741.773                    23809749.391
 114843099.474 8  89488145.124 7  21853914.891                    21853921.914
 112542731.531 7  87695668.13045  21416170.570                    21416178.234
 110060757.818 8  85761651.97846  20943865.852                    20943871.672
 126412279.985 6  98503110.23143  24055458.281                    24055466.984
 122347688.413 7  95335886.39944  23281992.672                    23282001.160
 124562040.821 6  97061372.20744  23703368.016                    23703376.750
 105384015.842 8  82117442.25446  20053912.156                    20053919.227
 109076050.761 8  84994346.04346  20756482.852                    20756488.484
 11  8 22 16 18  0.0000000  0 11G11G28G16G07G03G19G10G06G08G13G23
 127689906.331 7  99498681.24543  24298585.477                    24298595.066
 127397444.377 6  99270691.91043  24242907.938                    24242916.801
 125210457.716 7  97566616.74743  23826759.344                    23826766.254
 114788804.180 7  89445837.104 7  21843582.969                    21843589.668
 112604506.941 7  87743804.78745  21427926.023                    21427933.949
 110049389.657 8  85752793.66546  20941702.711                    20941708.383
 126440811.648 6  98525342.64843  24060887.789                    24060897.031
 122426844.567 7  95397566.46344  23297055.734                    23297063.934
 124493431.209 6  97007910.22643  23690312.406                    23690321.102
 105397324.941 8  82127812.96246  20056444.672                    20056451.348
 109143632.637 8  85047007.20646  20769343.367                    20769349.004
 11  8 22 16 18 30.0000000  0 11G11G28G16G07G03G19G10G06G08G13G23
 127613091.479 6  99438825.58843  24283968.531                    24283977.723
 127331390.949 6  99219221.78243  24230338.891                    24230347.406
 125299846.653 6  97636270.41543  23843769.367                    23843776.793
 114734563.892 7  89403571.954 7  21833261.523                    21833268.352
 112666800.565 7  87792345.25345  21439779.945                    21439787.578
 110038633.329 8  85744412.11346  20939655.875                    20939661.242
 126469727.189 6  98547874.18843  24066389.625                    24066399.621
 122506357.601 7  95459524.62544  23312186.453                    23312194.633
 124424757.781 6  96954398.50543  23677243.305                    23677252.527
 105411229.124 8  82138647.37746  20059090.539                    20059097.164
 109211702.978 8  85100048.99646  20782296.805                    20782302.195
 11  8 22 16 19  0.0000000  0 11G11G28G16G07G03G19G10G06G08G13G23
 127536197.525 6  99378908.26243  24269335.406                    24269345.113
 127265562.336 6  99167926.80543  24217811.633                    24217819.551
 125389196.976 7  97705893.99343  23860772.188                    23860779.383
 114680379.793 7  89361350.584 7  21822950.305                    21822957.453
 112729610.140 7  87841287.76245  21451732.547                    21451740.289
 110028489.653 8  85736507.94646  20937725.313                    20937731.055
 126499024.935 6  98570703.54843  24071965.891                    24071974.289
 122586225.107 7  95521759.00444  23327384.492                    23327393.152
 124356021.210 6  96900837.58843  23664162.867                    23664172.520
 105425728.704 8  82149945.73546  20061849.797                    20061856.461
 109280259.727 8  85153469.79846  20795342.797                    20795348.090
 11  8 22 16 19 30.0000000  0 11G11G28G16G07G03G19G10G06G08G13G23
 127459227.085 6  99318931.37843  24254689.117                    24254698.320
 127199958.751 6  99116807.18643  24205327.336                    24205336.094
 125478507.483 7  97775486.52643  23877767.219                    23877775.152
 114626253.090 7  89319173.948 7  21812650.383                    21812657.477
 112792933.430 7  87890630.56445  21463782.492                    21463789.668
 110018959.187 8  85729081.60946  20935911.961                    20935918.121
 126528702.788 6  98593829.08543  24077612.750                    24077622.289
 122666444.699 7  95584267.74044  23342650.336                    23342658.332
 124287221.545 7  96847227.49643  23651071.352                    23651079.918
 105440823.881 8  82161708.19246  20064722.172                    20064728.992
 109349300.597 8  85207267.84746  20808480.648                    20808486.160
 11  8 22 16 20  0.0000000  0 11G11G28G16G07G03G19G10G06G08G13G23
 127382182.378 6  99258896.61143  24240027.570                    24240036.902
 127134580.331 6  99065863.03843  24192886.281                    24192894.813
 125567776.802 7  97845046.96943  23894754.883                    23894762.531
 114572184.525 8  89277042.608 7  21802361.328                    21802368.711
 112856767.865 7  87940371.65445  21475929.516                    21475937.625
 110010042.381 8  85722133.45146  20934214.891                    20934220.762
 126558758.428 6  98617249.01143  24083332.328                    24083341.855
 122747013.922 7  95647048.90944  23357982.016                    23357990.398
 124218358.974 7  96793568.38243  23637967.422                    23637976.023
 105456514.284 8  82173934.46546  20067708.469                    20067714.875
 109418824.106 8  85261441.96646  20821710.570                    20821716.195
 11  8 22 16 20 30.0000000  0 11G11G28G16G07G03G19G10G06G08G13G23
 127305066.526 6  99198806.41943  24225352.898                    24225362.070
 127069427.140 6  99015094.37243  24180487.938                    24180496.961
 125657003.444 7  97914574.17344  23911734.266                    23911741.945
 114518174.995 8  89234957.266 7  21792083.367                    21792090.910
 112921111.239 7  87990509.31245  21488173.789                    21488181.609
 110001740.044 8  85715664.10546  20932635.391                    20932640.941
 126589189.652 6  98640961.63143  24089123.156                    24089132.898
 122827930.355 7  95710100.64344  23373379.711                    23373388.242
 124149433.592 7  96739860.31444  23624851.352                    23624860.340
 105472800.506 8  82186625.01146  20070807.250                    20070814.422
 109488828.169 8  85315990.54146  20835032.164                    20835037.738
 11  8 22 16 21  0.0000000  0 11G11G28G16G07G03G19G10G06G08G13G23
 127227881.832 6  99138662.58943  24210665.430                    24210674.605
 127004499.304 6  98964501.32543  24168132.555                    24168141.703
 125746186.429 7  97984067.32543  23928705.039                    23928712.711
 114464225.880 8  89192919.010 7  21781817.688                    21781824.809
 112985961.256 8  88041041.77345  21500514.477                    21500521.953
 109994052.914 8  85709674.13346  20931172.438                    20931178.066
 126619994.263 6  98664965.14343  24094985.117                    24094994.750
 122909191.653 7  95773421.11044  23388843.164                    23388851.605
 124080446.040 7  96686103.81044  23611723.367                    23611732.117
 105489682.170 8  82199779.54046  20074019.734                    20074026.676
 109559310.808 8  85370912.05246  20848444.375                    20848450.129
 11  8 22 16 21 30.0000000  0 11G11G28G16G07G03G19G10G06G08G13G23
 127150630.918 6  99078467.19743  24195964.469                    24195974.055
 126939797.228 6  98914084.15343  24155820.328                    24155829.504
 125835324.314 7  98053525.34843  23945668.086                    23945674.797
 114410338.312 8  89150928.696 7  21771563.008                    21771570.480
 113051315.992 7  88091967.52345  21512951.188                    21512958.813
 109986981.455 8  85704163.92046  20929826.711                    20929832.547
 126651170.453 6  98689258.19243  24100917.820                    24100927.398
 122990795.515 7  95837008.49044  23404372.031                    23404380.727
 124011396.775 6  96632299.22944  23598583.773                    23598592.391
 105507159.925 8  82213398.56046  20077345.555                    20077352.605
 109630270.188 8  85426205.03446  20861947.586                    20861953.613
 11  8 22 16 22  0.0000000  0 11G11G28G16G07G03G19G10G06G08G13G23
 127073316.328 6  99018222.13543  24181252.516                    24181261.156
 126875320.620 6  98863842.68943  24143550.703                    24143560.625
 125924415.560 6  98122947.02643  23962621.383                    23962628.895
 114356512.948 8  89108986.863 7  21761320.414                    21761327.809
 113117172.565 8  88143284.30645  21525482.922                    21525490.855
 109980525.994 8  85699133.69646  20928598.250                    20928604.219
 126682715.432 6  98713838.63643  24106920.344                    24106930.785
 123072739.298 6  95900860.75644  23419965.281                    23419973.484
 123942285.748 7  96578446.52344  23585432.102                    23585441.207
 105525233.061 8  82227481.49946  20080784.945                    20080791.641
 109701704.412 8  85481868.02046  20875541.227                    20875547.055
 11  8 22 16 22 30.0000000  0 11G11G28G16G07G03G19G10G06G08G13G23
 126995940.575 6  98957929.44243  24166528.375                    24166537.281
 126811069.714 6  98813777.12443  24131324.000                    24131333.367
 126013458.941 6  98192331.39443  23979565.813                    23979573.574
 114302750.858 8  89067094.336 7  21751089.859                    21751096.996
 113183528.643 7  88194990.30445  21538110.484                    21538118.344
 109974687.331 8  85694584.09646  20927487.422                    20927493.340
 126714627.413 6  98738705.04043  24112993.078                    24113003.840
 123155020.374 6  95964975.83444  23435623.398                    23435631.813
 123873113.335 6  96524545.97544  23572269.383                    23572278.035
 105543901.476 8  82242028.30446  20084337.641                    20084344.324
 109773611.391 8  85537899.39946  20889224.563                    20889230.297
 11  8 22 16 23  0.0000000  0 11G11G28G16G07G03G19G10G06G08G13G23
 126918506.331 6  98897591.13243  24151792.203                    24151801.918
 126747044.302 6  98763887.25943  24119140.469                    24119150.164
 126102453.456 6  98261677.67943  23996500.539                    23996508.191
 114249053.523 8  89025252.262 7  21740871.797                    21740878.695
 113250382.207 7  88247083.95645  21550832.070                    21550839.227
 109969465.602 8  85690515.23746  20926494.000                    20926499.359
 126746904.194 6  98763855.73143  24119135.117                    24119146.301
 123237636.650 6  96029352.13044  23451344.461                    23451352.504
 123803880.147 7  96470598.08244  23559094.961                    23559103.055
 105563165.525 8  82257039.23646  20088003.367                    20088009.852
 109845989.237 8  85594297.67646  20902997.625                    20903003.109
 11  8 22 16 23 30.0000000  0 11G11G28G16G07G03G19G10G06G08G13G23
 126841016.160 6  98837209.28743  24137046.297                    24137055.852
 126683244.541 6  98714173.23443  24106999.273                    24107009.129
 126191397.561 6  98330984.68343  24013426.422                    24013433.887
 114195421.683 8  88983461.234 7  21730665.711                    21730673.125
 113317730.494 8  88299563.09645  21563647.766                    21563655.711
 109964861.315 8  85686927.48846  20925617.266                    20925622.941
 126779543.606 6  98789288.96843  24125346.328                    24125356.664
 123320585.531 6  96093987.58943  23467128.883                    23467137.523
 123734586.494 7  96416603.08644  23545908.203                    23545916.336
 105583025.051 8  82272514.17046  20091782.375                    20091789.375
 109918835.831 8  85651061.21846  20916859.688                    20916865.086
 11  8 22 16 24  0.0000000  0 11G11G28G16G07G03G19G10G06G08G13G23
 126763472.459 6  98776785.68643  24122290.438                    24122300.262
 126619670.674 6  98664635.19743  24094901.445                    24094911.422
 126280289.898 6  98400251.38743  24030341.430                    24030350.156
 114141856.217 8  88941721.932 7  21720472.469                    21720479.719
 113385571.193 7  88352425.94945  21576557.367                    21576565.152
 109960874.642 8  85683820.99746  20924858.734                    20924864.492
 126812542.837 6  98815002.60143  24131625.680                    24131635.793
 123403864.209 6  96158880.01044  23482976.648                    23482985.262
 123665232.827 7  96362561.31844  23532710.578                    23532719.512
 105603479.300 8  82288452.52546  20095674.445                    20095681.586
 109992148.687 8  85708188.07046  20930810.742                    20930816.508
 11  8 22 16 24 30.0000000  0 11G11G28G16G07G03G19G10G06G08G13G23
 126685878.174 6  98716322.69143  24107525.023                    24107534.020
 126556322.781 6  98615273.24843  24082847.109                    24082857.059
 126369129.425 6  98469476.93143  24047247.328                    24047255.137
 114088358.825 8  88900035.669 7  21710292.578                    21710300.016
 113453902.101 7  88405670.79345  21589560.563                    21589568.359
 109957506.296 8  85681196.32646  20924217.969                    20924223.316
 126845900.354 6  98840995.40843  24137973.578                    24137983.828
 123487470.612 6  96224027.79844  23498886.352                    23498895.230
 123595819.210 7  96308472.82944  23519501.625                    23519510.375
 105624528.654 8  82304854.61046  20099680.195                    20099687.102
 110065926.217 8  85765677.01046  20944850.141                    20944855.746
 11  8 22 16 25  0.0000000  0 11G11G28G16G07G03G19G10G06G08G13G23
 126608235.890 6  98655822.26743  24092750.031                    24092759.188
 126493200.694 6  98566087.27744  24070835.836                    24070845.004
 126457914.994 6  98538660.40044  24064143.148                    24064150.648
 114034930.444 8  88858403.186 7  21700125.531                    21700132.590
 113522720.457 7  88459295.45244  21602656.008                    21602664.090
 109954756.629 8  85679053.73246  20923694.469                    20923700.016
 126879613.702 6  98867265.47943  24144389.578                    24144398.867
 123571402.337 6  96289429.06844  23514857.750                    23514866.578
 123526346.264 7  96254338.09444  23506281.438                    23506289.992
 105646173.067 8  82321720.36746  20103798.891                    20103805.789
 110140166.371 8  85823526.43846  20958977.664                    20958983.434
 11  8 22 16 25 30.0000000  0 11G11G28G16G07G03G19G10G06G08G13G23
 126530548.236 6  98595286.48343  24077965.914                    24077975.059
 126430304.617 6  98517077.41443  24058866.719                    24058876.363
 126546645.178 6  98607800.72943  24081027.406                    24081035.934
 113981572.136 8  88816825.302 7  21689971.539                    21689978.984
 113592024.101 7  88513298.26145  21615844.555                    21615852.191
 109952625.867 8  85677393.40146  20923289.109                    20923294.652
 126913680.259 6  98893810.79443  24150872.305                    24150882.336
 123655656.653 6  96355081.72144  23530891.305                    23530899.887
 123456814.403 7  96200157.45844  23493050.242                    23493058.355
 105668412.023 8  82339049.39846  20108031.047                    20108037.586
 110214867.083 8  85881734.74146  20973192.969                    20973198.637
 11  8 22 16 26  0.0000000  0 11G11G28G16G07G03G19G10G06G08G13G23
 126452817.797 6  98534717.36643  24063174.523                    24063183.070
 126367634.457 6  98468243.59043  24046941.078                    24046950.430
 126635318.507 6  98676896.76143  24097901.891                    24097910.070
 113928284.744 7  88775302.677 7  21679831.039                    21679838.723
 113661810.336 7  88567677.12145  21629124.148                    21629132.031
 109951114.331 8  85676215.59046  20923001.523                    20923007.074
 126948097.739 6  98920629.55243  24157421.500                    24157431.785
 123740231.077 7  96420983.81044  23546985.289                    23546993.898
 123387224.094 7  96145931.27544  23479806.945                    23479816.273
 105691245.276 8  82356841.53246  20112375.664                    20112382.871
 110290025.814 8  85940299.94846  20987494.828                    20987500.703
 11  8 22 16 26 30.0000000  0 11G11G28G16G07G03G19G10G06G08G13G23
 126375047.022 6  98474116.82843  24048375.258                    24048384.488
 126305190.163 6  98419585.74943  24035057.836                    24035067.086
 126723934.061 6  98745947.77144  24114765.070                    24114773.102
 113875069.596 8  88733836.349 7  21669704.813                    21669711.805
 113732076.815 8  88622430.18745  21642495.969                    21642503.148
 109950221.987 8  85675520.24946  20922831.844                    20922837.262
 126982864.186 6  98947720.21443  24164037.648                    24164047.195
 123825123.215 6  96487133.46844  23563139.922                    23563148.637
 123317575.839 7  96091659.93444  23466553.500                    23466562.676
 105714672.669 8  82375096.62046  20116833.805                    20116840.926
 110365640.812 8  85999220.69446  21001884.461                    21001890.305
 11  8 22 16 27  0.0000000  0 11G11G28G16G07G03G19G10G06G08G13G23
 126297238.837 7  98413487.12343  24033568.961                    24033576.988
 126242971.594 6  98371103.80243  24023218.273                    24023227.145
 126812490.710 6  98814952.88943  24131616.914                    24131625.117
 113821927.786 8  88692427.170 7  21659592.219                    21659599.328
 113802820.869 7  88677555.40245  21655957.547                    21655965.598
 109949949.285 8  85675307.75846  20922779.984                    20922785.496
 127017977.019 6  98975080.80943  24170719.109                    24170728.684
 123910330.559 7  96553528.73544  23579354.219                    23579363.012
 123247870.066 7  96037343.79044  23453288.844                    23453298.172
 105738693.970 8  82393814.49646  20121405.289                    20121411.934
 110441709.603 8  86058495.02446  21016359.367                    21016365.234
 11  8 22 16 27 30.0000000  0 11G11G28G16G07G03G19G10G06G08G13G23
 126219396.050 7  98352830.46743  24018756.508                    24018764.008
 126180978.763 6  98322797.73343  24011421.211                    24011430.328
 126900987.467 6  98883911.32743  24148457.055                    24148465.563
 113768860.916 8  88651076.365 7  21649493.961                    21649501.230
 113874040.333 7  88733051.06045  21669510.328                    21669518.180
 109950296.686 8  85675578.45446  20922845.695                    20922851.703
 127053433.946 6  99002709.51743  24177466.578                    24177476.637
 123995850.813 6  96620167.84344  23595627.758                    23595637.395
 123178106.984 7  95982982.98844  23440013.367                    23440022.492
 105763308.730 8  82412994.81646  20126089.500                    20126096.270
 110518230.372 8  86118121.56646  21030921.281                    21030927.188
 11  8 22 16 28  0.0000000  0 11G11G28G16G07G03G19G10G06G08G13G23
 126141521.111 7  98292148.74743  24003937.461                    24003945.395
 126119211.961 6  98274667.77843  23999667.039                    23999676.477
 126989422.780 6  98952821.90343  24165285.234                    24165294.000
 113715869.906 8  88609784.682 7  21639409.820                    21639417.133
 113945732.685 8  88788915.19045  21683152.820                    21683160.891
 109951264.338 8  85676332.45646  20923029.742                    20923035.652
 127089232.972 6  99030604.80543  24184279.539                    24184289.484
 124081681.381 6  96687048.74044  23611960.984                    23611970.109
 123108287.404 7  95928578.14744  23426727.281                    23426736.371
 105788516.783 8  82432637.43646  20130886.180                    20130892.992
 110595200.848 8  86178098.51746  21045568.141                    21045573.941
 11  8 22 16 28 30.0000000  0 11G11G28G16G07G03G19G10G06G08G13G23
 126063616.859 7  98231444.16243  23989112.211                    23989120.059
 126057670.631 6  98226713.54243  23987956.555                    23987965.008
 127077795.531 6  99021683.72543  24182102.398                    24182110.914
 113662955.733 8  88568552.881 7  21629341.070                    21629348.277
 114017894.794 7  88845145.38245  21696884.867                    21696893.254
 109952851.740 8  85677569.38346  20923332.070                    20923338.000
 127125371.334 6  99058764.48643  24191156.250                    24191166.520
 124167819.442 6  96754169.24044  23628352.531                    23628361.363
 123038411.395 7  95874129.35144  23413430.328                    23413439.148
 105814317.325 8  82452741.73246  20135795.734                    20135802.680
 110672618.252 8  86238423.73046  21060300.219                    21060305.801
 11  8 22 16 29  0.0000000  0 11G11G28G16G07G03G19G10G06G08G13G23
 125985685.988 7  98170718.83543  23974282.063                    23974291.660
 125996355.013 6  98178935.13243  23976288.453                    23976297.242
 127166104.518 6  99090495.84043  24198907.664                    24198915.215
 113610119.684 8  88527381.936 7  21619286.461                    21619293.684
 114090524.472 8  88901739.89645  21710705.922                    21710714.156
 109955059.380 8  85679289.62146  20923751.891                    20923757.398
 127161846.898 7  99087186.94743  24198097.320                    24198107.496
 124254262.710 6  96821527.59044  23644802.414                    23644811.402
 122968479.646 7  95819637.12944  23400122.484                    23400131.273
 105840710.240 8  82473307.61546  20140818.070                    20140825.223
 110750481.049 8  86299095.99946  21075117.156                    21075122.574
 11  8 22 16 29 30.0000000  0 11G11G28G16G07G03G19G10G06G08G13G23
 125907731.021 7  98109974.75343  23959448.195                    23959456.969
 125935265.015 6  98131332.58043  23964663.180                    23964672.516
 127254348.794 6  99159257.54443  24215700.195                    24215707.512
 113557363.159 8  88486272.967 7  21609247.469                    21609254.598
 114163619.522 8  88958697.04645  21724616.094                    21724623.289
 109957887.524 8  85681493.36246  20924290.531                    20924295.996
 127198657.553 7  99115870.51943  24205101.508                    24205112.023
 124341008.671 6  96889121.78143  23661309.797                    23661318.809
 122898492.690 7  95765101.87844  23386804.320                    23386813.254
 105867695.167 7  82494334.81146  20145953.328                    20145960.180
 110828787.092 8  86360113.65146  21090018.586                    21090024.484
 11  8 22 16 30  0.0000000  0 11G11G28G16G07G03G19G10G06G08G13G23
 125829754.698 7  98049214.02643  23944609.922                    23944617.879
 125874400.435 6  98083905.69843  23953081.539                    23953090.688
 127342527.015 6  99227967.79443  24232480.023                    24232487.359
 113504687.017 8  88445226.632 7  21599223.078                    21599230.297
 114237176.937 7  89016014.49245  21738613.391                    21738620.840
 109961335.933 8  85684180.43146  20924946.398                    20924952.094
 127235800.541 6  99144813.02943  24212169.594                    24212180.395
 124428054.862 6  96956949.91843  23677873.750                    23677883.109
 122828451.075 7  95710524.02544  23373475.922                    23373484.949
 105895271.569 8  82515822.89246  20151200.984                    20151208.090
 110907533.596 8  86421474.52346  21105003.328                    21105009.184
 11  8 22 16 30 30.0000000  0 11G11G28G16G07G03G19G10G06G08G13G23
 125751759.826 7  97988438.85543  23929767.406                    23929775.883
 125813761.369 6  98036654.48643  23941541.734                    23941551.117
 127430638.160 6  99296625.77743  24249246.945                    24249253.809
 113452092.860 8  88404244.185 7  21589214.906                    21589221.512
 114311194.475 8  89073690.47245  21752698.594                    21752706.070
 109965404.879 8  85687351.03646  20925720.875                    20925725.934
 127273273.322 7  99174012.54443  24219300.523                    24219311.008
 124515398.644 6  97025009.94543  23694494.773                    23694504.059
 122758355.272 7  95655903.95644  23360137.188                    23360145.570
 105923438.816 8  82537771.36946  20156560.836                    20156567.793
 110986718.617 8  86483177.09946  21120071.539                    21120077.520
 11  8 22 16 31  0.0000000  0 11G11G28G16G07G03G19G10G06G08G13G23
 125673749.152 7  97927651.37043  23914922.406                    23914931.078
 125753347.513 6  97989578.78243  23930045.398                    23930054.457
 127518681.242 6  99365230.71843  24266000.680                    24266008.695
 113399581.709 8  88363326.413 7  21579222.242                    21579229.688
 114385669.299 7  89131722.77945  21766869.914                    21766878.254
 109970094.357 8  85691005.17646  20926613.469                    20926618.723
 127311073.743 6  99203467.33843  24226493.953                    24226504.441
 124603037.759 6  97093300.12543  23711171.938                    23711181.148
 122688205.831 7  95601242.07144  23346788.883                    23346796.922
 105952196.627 8  82560180.02246  20162033.398                    20162040.445
 111066339.709 8  86545219.46046  21135222.953                    21135229.059
 11  8 22 16 31 30.0000000  0 11G11G28G16G07G03G19G10G06G08G13G23
 125595725.350 7  97866853.63543  23900075.000                    23900083.512
 125693158.794 7  97942678.54043  23918591.906                    23918600.750
 127606655.032 6  99433781.66443  24282741.703                    24282750.027
 113347154.669 8  88322474.187 7  21569246.016                    21569253.234
 114460598.172 7  89190108.87745  21781128.383                    21781136.766
 109975403.763 8  85695142.38246  20927623.422                    20927629.105
 127349199.468 6  99233175.62643  24233748.898                    24233759.586
 124690969.129 6  97161818.04443  23727904.852                    23727913.574
 122618003.236 7  95546538.77444  23333429.367                    23333437.633
 105981544.185 8  82583048.22446  20167618.344                    20167625.176
 111146394.584 8  86607599.83846  21150457.109                    21150462.977
 11  8 22 16 32  0.0000000  0 11G11G28G16G07G03G19G10G06G08G13G23
 125517691.106 7  97806047.75143  23885225.852                    23885234.336
 125633195.652 6  97895954.02743  23907181.969                    23907190.418
 127694558.690 6  99502277.94743  24299469.375                    24299477.648
 113294813.469 8  88281688.851 7  21559285.859                    21559292.969
 114535979.439 7  89248847.47945  21795473.281                    21795481.152
 109981333.644 8  85699763.06046  20928751.906                    20928757.430
 127387648.108 6  99263135.53143  24241065.352                    24241076.453
 124779190.706 6  97230562.08243  23744692.836                    23744701.844
 122547748.224 7  95491794.65044  23320060.148                    23320068.465
 106011481.290 8  82606375.80846  20173314.797                    20173322.039
 111226881.232 8  86670316.65945  21165773.141                    21165779.379
 11  8 22 16 32 30.0000000  0 11G11G28G16G07G03G19G10G06G08G13G23
 125439649.030 7  97745235.78843  23870374.656                    23870383.652
 125573457.354 7  97849404.75443  23895813.547                    23895822.414
 127782390.970 6  99570718.63443  24316182.813                    24316191.008
 113242559.098 8  88240971.163 7  21549342.492                    21549349.031
 114611810.346 7  89307936.47645  21809903.820                    21809911.535
 109987883.701 8  85704867.00346  20929998.453                    20930004.344
 127426417.206 6  99293345.13943  24248443.430                    24248453.977
 124867699.928 6  97299530.22944  23761536.125                    23761545.262
 122477441.349 7  95437010.09644  23306680.930                    23306689.133
 106042007.345 8  82630162.32746  20179123.781                    20179130.711
 111307797.453 8  86733368.20246  21181171.398                    21181176.762
 11  8 22 16 33  0.0000000  0 11G11G28G16G07G03G19G10G06G08G13G23
 125361602.261 6  97684420.17343  23855522.563                    23855531.004
 125513943.911 7  97803030.66643  23884488.016                    23884497.723
 127870150.688 6  99639102.75243  24332882.875                    24332891.664
 113190392.692 8  88200322.022 7  21539415.477                    21539422.473
 114688088.047 7  89367373.61545  21824418.859                    21824427.258
 109995053.950 8  85710454.21646  20931362.578                    20931368.375
 127465503.932 6  99323802.27443  24255881.633                    24255891.980
 124956494.223 6  97368720.53243  23778433.016                    23778442.258
 122407082.883 7  95382185.36043  23293291.984                    23293300.129
 106073121.434 8  82654407.03846  20185044.648                    20185051.895
 111389140.681 8  86796752.48946  21196650.375                    21196656.223
 11  8 22 16 33 30.0000000  0 11G11G28G16G07G03G19G10G06G08G13G23
 125283553.588 6  97623603.05143  23840670.547                    23840680.406
 125454655.285 6  97756831.77144  23873206.250                    23873215.355
 127957837.005 6  99707429.68642  24349569.938                    24349577.734
 113138315.732 8  88159742.595 7  21529505.031                    21529512.207
 114764810.033 7  89427156.96345  21839018.742                    21839026.797
 110002844.084 8  85716524.44446  20932845.258                    20932850.785
 127504906.221 6  99354505.27943  24263379.430                    24263389.617
 125045570.910 6  97438130.87644  23795383.172                    23795392.891
 122336673.584 7  95327321.01844  23279893.586                    23279902.094
 106104823.214 8  82679109.69846  20191077.563                    20191084.664
 111470908.103 8  86860467.31646  21212209.805                    21212216.227
 11  8 22 16 34  0.0000000  0 11G11G28G16G07G03G19G10G06G08G13G23
 125205505.368 6  97562786.30643  23825818.141                    23825827.438
 125395591.109 6  97710807.81244  23861966.648                    23861975.547
 128045448.791 6  99775698.53943  24366241.063                    24366249.867
 113086329.450 8  88119233.817 7  21519612.195                    21519619.434
 114841973.444 7  89487284.26945  21853702.141                    21853710.250
 110011253.899 8  85723077.56846  20934445.836                    20934451.473
 127544621.494 6  99385452.15943  24270936.523                    24270947.488
 125134927.627 6  97507759.41844  23812387.789                    23812396.781
 122266214.016 7  95272417.47944  23266485.578                    23266494.207
 106137111.812 8  82704269.61846  20197221.648                    20197228.930
 111553097.976 8  86924511.31746  21227850.383                    21227856.219
 11  8 22 16 34 30.0000000  0 11G11G28G16G07G03G19G10G06G08G13G23
 125127460.589 6  97501972.24743  23810966.461                    23810975.770
 125336751.361 6  97664958.73244  23850769.648                    23850779.156
 128132984.915 6  99843908.44043  24382898.586                    24382907.797
 113034435.018 8  88078796.610 7  21509737.344                    21509744.359
 114919575.841 7  89547753.65144  21868469.211                    21868477.715
 110020283.169 8  85730113.35946  20936163.836                    20936169.645
 127584647.296 6  99416641.01243  24278553.484                    24278564.105
 125224561.711 6  97577604.12043  23829444.516                    23829453.340
 122195704.749 7  95217475.21544  23253068.578                    23253076.598
 106169986.653 8  82729886.35046  20203477.625                    20203484.523
 111635707.953 8  86988882.68645  21243570.570                    21243576.285
 11  8 22 16 35  0.0000000  0 11G11G28G16G07G03G19G10G06G08G13G23
 125049422.246 6  97441163.19443  23796116.414                    23796125.176
 125278135.853 6  97619284.36744  23839616.094                    23839624.102
 128220444.340 6  99912058.57543  24399542.039                    24399551.066
 112982633.962 8  88038432.157 7  21499879.781                    21499887.191
 114997614.716 7  89608563.11744  21883319.852                    21883327.289
 110029931.981 8  85737631.91846  20937999.766                    20938005.922
 127624981.242 6  99448070.04043  24286228.813                    24286239.051
 125314470.885 6  97647663.17043  23846553.805                    23846562.414
 122125146.301 7  95162494.62844  23239641.328                    23239649.906
 106203447.218 8  82755959.49646  20209845.117                    20209851.910
 111718735.330 8  87053579.29246  21259370.461                    21259376.039
 11  8 22 16 35 30.0000000  0 11G11G28G16G07G03G19G10G06G08G13G23
 124971393.034 6  97380361.28643  23781268.039                    23781276.598
 125219744.136 6  97573784.37043  23828504.094                    23828513.016
 128307826.348 6  99980148.38243  24416170.352                    24416178.734
 112930927.663 8  87998141.537 7  21490040.219                    21490047.379
 115076086.997 7  89669710.31944  21898252.258                    21898260.707
 110040199.877 8  85745632.88646  20939954.094                    20939959.648
 127665620.690 6  99479737.05843  24293962.688                    24293973.082
 125404652.315 6  97717934.35843  23863714.438                    23863723.348
 122054539.673 7  95107476.51644  23226205.016                    23226213.445
 106237492.418 8  82782488.20146  20216323.445                    20216330.699
 111802177.887 8  87118599.41346  21275249.008                    21275255.055
 11  8 22 16 36  0.0000000  0 11G11G28G16G07G03G19G10G06G08G13G23
 124893375.500 6  97319568.45143  23766421.445                    23766430.414
 125161576.254 6  97528458.79843  23817435.078                    23817443.734
 128395129.702 6 100048176.89443  24432783.680                    24432791.879
 112879317.258 8  87957925.646 7  21480219.563                    21480226.602
 115154989.885 8  89731193.05645  21913267.836                    21913275.242
 110051086.294 8  85754115.80546  20942025.531                    20942030.961
 127706563.377 6  99511640.37843  24301753.570                    24301764.320
 125495103.261 6  97788415.56843  23880926.828                    23880936.422
 121983885.492 7  95052421.32644  23212760.172                    23212769.203
 106272121.424 8  82809471.81846  20222913.172                    20222920.520
 111886032.863 8  87183940.90846  21291206.344                    21291212.371
 11  8 22 16 36 30.0000000  0 11G11G28G16G07G03G19G10G06G08G13G23
 124815372.439 6  97258786.89743  23751578.109                    23751587.563
 125103631.871 6  97483307.38243  23806408.516                    23806416.852
 128482353.513 6 100116143.44043  24449381.461                    24449390.035
 112827803.865 8  87917785.351 7  21470416.930                    21470424.129
 115234320.575 7  89793009.11845  21928363.578                    21928371.891
 110062590.910 8  85763080.43546  20944214.523                    20944220.281
 127747806.313 6  99543777.64843  24309601.969                    24309612.203
 125585821.491 6  97859105.02543  23898189.438                    23898199.496
 121913183.826 7  94997329.13544  23199305.906                    23199315.086
 106307333.371 8  82836909.67246  20229613.914                    20229620.855
 111970298.069 8  87249602.05546  21307241.367                    21307247.016
 11  8 22 16 37  0.0000000  0 11G11G28G16G07G03G19G10G06G08G13G23
 124737386.854 6  97198018.94943  23736738.398                    23736747.152
 125045911.073 6  97438330.17343  23795424.102                    23795432.809
 128569496.824 6 100184047.24643  24465965.094                    24465973.543
 112776389.146 8  87877721.950 7  21460632.680                    21460640.082
 115314076.569 7  89855156.60445  21943540.578                    21943548.684
 110074713.636 8  85772526.70146  20946521.375                    20946527.359
 127789347.014 6  99576146.95343  24317507.469                    24317517.672
 125676804.421 6  97930000.72943  23915503.586                    23915512.844
 121842435.813 7  94942200.85044  23185843.328                    23185851.930
 106343127.688 8  82864801.31446  20236425.211                    20236432.348
 112054971.111 8  87315581.00145  21323353.906                    21323359.484
 11  8 22 16 37 30.0000000  0 11G11G28G16G07G03G19G10G06G08G13G23
 124659421.684 7  97137266.91144  23721902.102                    23721910.957
 124988413.495 6  97393526.90443  23784482.852                    23784491.277
 128656558.640 6 100251887.55943  24482532.750                    24482540.574
 112725074.128 8  87837736.218 7  21450867.797                    21450875.023
 115394255.385 7  89917633.55644  21958798.180                    21958806.258
 110087454.080 8  85782454.31646  20948945.914                    20948951.766
 127831183.031 6  99608746.36243  24325468.539                    24325478.727
 125768049.598 6  98001100.79243  23932866.578                    23932876.047
 121771641.848 7  94887036.75744  23172371.492                    23172380.266
 106379503.550 8  82893146.12646  20243347.461                    20243354.098
 112140049.452 8  87381875.75646  21339543.867                    21339550.223
 11  8 22 16 38  0.0000000  0 11G11G28G16G07G03G19G10G06G08G13G23
 124581479.742 7  97076532.97044  23707070.320                    23707079.020
 124931138.939 6  97348897.43944  23773584.336                    23773592.359
 128743538.016 6 100319663.61343  24499083.750                    24499092.402
 112673860.649 8  87797829.621 7  21441122.117                    21441129.391
 115474854.329 7  89980437.88745  21974135.992                    21974144.074
 110100811.778 8  85792862.89846  20951487.836                    20951493.273
 127873312.001 6  99641574.06043  24333485.391                    24333495.621
 125859554.321 6  98072403.10443  23950280.000                    23950288.996
 121700803.091 7  94831837.75244  23158891.523                    23158899.832
 106416460.224 8  82921943.51746  20250380.258                    20250386.973
 112225530.923 8  87448484.63945  21355810.258                    21355816.398
 11  8 22 16 38 30.0000000  0 11G11G28G16G07G03G19G10G06G08G13G23
 124503563.694 7  97015819.20043  23692243.117                    23692252.082
 124874086.968 7  97304441.41744  23762727.617                    23762735.676
 128830434.042 6 100387374.73243  24515619.734                    24515628.340
 112622749.882 8  87758003.049 7  21431395.766                    21431403.504
 115555870.520 7  90043567.34045  21989552.570                    21989560.664
 110114786.613 8  85803752.37746  20954147.063                    20954152.828
 127915731.504 6  99674628.14943  24341557.586                    24341567.891
 125951316.220 6  98143905.78943  23967741.406                    23967751.121
 121629920.084 7  94776604.27144  23145403.195                    23145411.906
 106453996.635 8  82951192.64446  20257523.031                    20257530.172
 112311412.622 8  87515405.38745  21372153.117                    21372159.348
 11  8 22 16 39  0.0000000  0 11G11G28G16G07G03G19G10G06G08G13G23
 124425676.223 6  96955127.69143  23677421.484                    23677430.449
 124817257.388 6  97260158.65843  23751913.156                    23751921.672
 128917245.567 6 100455020.02443  24532139.094                    24532147.730
 112571742.807 8  87718257.293 7  21421689.836                    21421696.918
 115637300.884 7  90107019.53244  22005048.203                    22005056.230
 110129377.115 8  85815121.59746  20956923.492                    20956929.078
 127958438.698 6  99707906.39943  24349683.977                    24349694.738
 126043332.088 6  98215606.41043  23985252.641                    23985261.480
 121558992.984 7  94721336.45544  23131905.961                    23131914.262
 106492111.205 8  82980892.28446  20264775.773                    20264782.992
 112397691.985 8  87582636.01045  21388571.664                    21388577.633
 11  8 22 16 39 30.0000000  0 11G11G28G16G07G03G19G10G06G08G13G23
 124347820.508 6  96894460.92743  23662606.391                    23662615.152
 124760649.939 7  97216048.97943  23741141.148                    23741149.566
 129003972.202 6 100522599.15443  24548643.227                    24548651.367
 112520841.522 8  87678593.973 7  21412003.813                    21412011.035
 115719143.126 7  90170792.66444  22020622.305                    22020630.219
 110144583.770 8  85826970.93646  20959817.391                    20959822.945
 128001431.386 6  99741407.13643  24357865.719                    24357876.484
 126135600.207 6  98287503.55643  24002809.680                    24002819.402
 121488022.965 7  94666035.16244  23118400.805                    23118408.801
 106530803.959 8  83011042.46246  20272138.797                    20272146.117
 112484367.172 8  87650175.05345  21405065.672                    21405071.613
 11  8 22 16 40  0.0000000  0 11G11G28G16G07G03G19G10G06G08G13G23
 124269999.358 6  96833821.09143  23647797.227                    23647805.438
 124704264.500 7  97172112.30043  23730411.539                    23730419.957
 129090612.606 6 100590111.07943  24565129.641                    24565138.672
 112470047.214 8  87639014.006 7  21402337.648                    21402344.836
 115801394.328 7  90234884.47344  22036273.836                    22036282.250
 110160406.270 8  85839300.15646  20962828.461                    20962834.012
 128044706.992 6  99775128.32143  24366100.719                    24366111.695
 126228117.815 6  98359595.12943  24020414.977                    24020424.383
 121417010.512 7  94610700.82744  23104887.180                    23104895.973
 106570073.502 8  83041642.08646  20279611.820                    20279618.598
 112571435.022 8  87718020.08045  21421634.094                    21421639.902
 11  8 22 16 40 30.0000000  0 11G11G28G16G07G03G19G10G06G08G13G23
 124192215.424 7  96773210.24944  23632995.523                    23633003.750
 124648100.704 7  97128348.35243  23719723.703                    23719732.168
 129177165.872 6 100657555.10143  24581600.602                    24581609.336
 112419360.898 8  87599518.184 7  21392692.445                    21392699.637
 115884051.845 7  90299292.86944  22052003.805                    22052011.910
 110176843.051 8  85852108.03546  20965955.945                    20965961.820
 128088262.707 6  99809067.75843  24374388.750                    24374400.160
 126320882.095 6  98431878.94343  24038067.258                    24038077.586
 121345956.652 7  94555334.20544  23091365.961                    23091374.605
 106609919.075 8  83072690.55946  20287194.086                    20287200.895
 112658893.240 8  87786169.28046  21438276.859                    21438282.758
 11  8 22 16 41  0.0000000  0 11G11G28G16G07G03G19G10G06G08G13G23
 124114471.672 6  96712630.73143  23618201.094                    23618210.172
 124592157.926 7  97084756.60343  23709078.008                    23709086.621
 129263631.573 5 100724930.89643  24598054.414                    24598062.660
 112368784.395 8  87560107.936 7  21383068.133                    21383075.254
 115967112.828 7  90364015.66844  22067809.758                    22067817.652
 110193893.998 8  85865394.49346  20969200.875                    20969206.504
 128132095.967 6  99843223.49943  24382730.211                    24382740.773
 126413890.760 6  98504353.13243  24055766.945                    24055776.332
 121274862.050 7  94499935.84144  23077837.453                    23077845.734
 106650339.516 8  83104186.98746  20294885.883                    20294893.230
 112746739.565 8  87854620.91345  21454993.703                    21454999.809
 11  8 22 16 41 30.0000000  0 11G11G28G16G07G03G19G10G06G08G13G23
 124036771.083 6  96652084.85643  23603414.961                    23603424.359
 124536436.349 7  97041337.20543  23698474.734                    23698483.008
 129350008.367 6 100792237.41442  24614491.141                    24614499.715
 112318318.924 8  87520784.205 7  21373464.867                    21373471.902
 116050574.180 7  90429050.44644  22083691.711                    22083699.879
 110211558.599 8  85879159.12946  20972562.352                    20972568.039
 128176204.043 6  99877593.32643  24391123.555                    24391134.523
 126507140.908 6  98577015.55843  24073512.125                    24073521.633
 121203727.391 7  94444506.25044  23064300.742                    23064309.180
 106691333.625 8  83136130.42146  20302686.914                    20302693.953
 112834971.184 8  87923372.75945  21471783.539                    21471789.023
 11  8 22 16 42  0.0000000  0 11G11G28G16G07G03G19G10G06G08G13G23
 123959116.396 7  96591574.73744  23588638.117                    23588647.043
 124480935.350 7  96998089.70343  23687912.508                    23687921.277
 129436295.355 5 100859473.92542  24630911.055                    24630919.867
 112267966.141 8  87481548.280 7  21363882.922                    21363889.785
 116134433.332 7  90494395.19145  22099649.289                    22099658.445
 110229835.918 8  85893401.21246  20976040.195                    20976045.973
 128220584.622 6  99912175.54243  24399569.094                    24399580.039
 126600630.262 7  98649864.34744  24091303.109                    24091312.082
 121132553.541 7  94389046.12844  23050757.188                    23050765.402
 106732900.204 8  83168519.93546  20310596.969                    20310603.992
 112923585.471 8  87992422.79445  21488646.469                    21488652.113
 11  8 22 16 42 30.0000000  0 11G11G28G16G07G03G19G10G06G08G13G23
 123881510.483 7  96531102.62643  23573870.211                    23573878.961
 124425654.803 7  96955014.00543  23677393.367                    23677402.063
 129522491.837 6 100926640.01843  24647313.977                    24647322.527
 112217727.419 8  87442401.232 7  21354322.953                    21354329.695
 116218687.837 7  90560047.99745  22115682.492                    22115691.109
 110248725.513 8  85908120.38746  20979635.125                    20979640.211
 128265234.935 6  99946967.92843  24408066.047                    24408076.582
 126694356.311 6  98722897.59944  24109137.656                    24109147.199
 121061341.042 7  94333555.89644  23037205.867                    23037214.289
 106775038.488 8  83201354.94746  20318615.477                    20318622.297
 113012579.759 8  88061768.92645  21505581.305                    21505586.973
 11  8 22 16 43  0.0000000  0 11G11G28G16G07G03G19G10G06G08G13G23
 123803956.384 7  96470670.91943  23559111.953                    23559120.484
 124370594.374 7  96912109.81043  23666915.648                    23666924.184
 129608597.005 6 100993734.87143  24663699.242                    24663707.758
 112167604.028 8  87403344.052 7  21344784.617                    21344791.637
 116303334.598 7  90626006.45844  22131790.617                    22131798.711
 110268226.727 8  85923316.15146  20983345.492                    20983351.164
 128310152.076 6  99981968.24343  24416613.219                    24416623.910
 126788316.554 7  98796113.32443  24127018.750                    24127027.047
 120990090.921 7  94278036.34044  23023647.344                    23023655.383
 106817747.130 8  83234634.38646  20326742.477                    20326749.508
 113101951.444 8  88131409.13445  21522588.188                    21522593.738
 11  8 22 16 43 30.0000000  0 11G11G28G16G07G03G19G10G06G08G13G23
 123726456.992 7  96410281.80543  23544364.477                    23544372.840
 124315754.041 7  96869377.11643  23656479.586                    23656488.699
 129694610.317 6 101060758.17942  24680067.531                    24680075.996
 112117597.868 8  87364378.211 7  21335268.695                    21335275.961
 116388371.084 7  90692268.60544  22147972.898                    22147980.867
 110288339.162 8  85938988.18946  20987172.867                    20987178.613
 128355333.744 6 100017174.67343  24425211.727                    24425221.801
 126882508.295 6  98869509.44644  24144942.094                    24144951.438
 120918804.240 7  94222488.32144  23010081.648                    23010090.234
 106861025.389 8  83268357.68146  20334978.328                    20334985.602
 113191698.127 8  88201341.55545  21539666.547                    21539672.332
 11  8 22 16 44  0.0000000  0 11G11G28G16G07G03G19G10G06G08G13G23
 123649015.063 7  96349937.49843  23529627.422                    23529635.738
 124261132.783 7  96826815.12743  23646086.016                    23646094.195
 129780530.323 6 101127708.74642  24696418.063                    24696426.563
 112067709.795 8  87325504.396 7  21325775.375                    21325782.191
 116473793.795 7  90758831.71444  22164228.273                    22164236.027
 110309061.384 8  85955135.37546  20991116.414                    20991122.059
 128400777.229 6 100052585.10743  24433859.305                    24433869.629
 126976928.732 6  98943083.77243  24162909.422                    24162918.898
 120847481.172 7  94166911.93744  22996509.305                    22996517.324
 106904871.370 8  83302523.35646  20343321.813                    20343328.887
 113281817.240 8  88271564.19445  21556815.453                    21556821.414
 11  8 22 16 44 30.0000000  0 11G11G28G16G07G03G19G10G06G08G13G23
 123571633.487 7  96289640.23043  23514901.984                    23514910.309
 124206730.654 7  96784423.89144  23635733.711                    23635742.086
 129866356.627 6 101194586.37442  24712750.328                    24712758.527
 112017941.668 8  87286724.046 7  21316304.789                    21316311.762
 116559600.540 7  90825694.06644  22180556.555                    22180564.789
 110330393.124 8  85971757.51346  20995175.594                    20995181.375
 128446479.966 6 100088197.55143  24442555.070                    24442566.789
 127071575.557 6  99016834.46943  24180920.445                    24180930.184
 120776123.036 7  94111308.21344  22982930.023                    22982938.902
 106949284.256 8  83337130.77546  20351773.406                    20351780.238
 113372306.635 8  88342075.35445  21574035.086                    21574041.105
 11  8 22 16 45  0.0000000  0 11G11G28G16G07G03G19G10G06G08G13G23
 123494315.086 7  96229392.17943  23500189.250                    23500197.219
 124152546.878 7  96742202.80744  23625422.586                    23625431.113
 129952088.272 6 101261390.19842  24729064.188                    24729072.887
 111968294.659 8  87248038.065 7  21306857.406                    21306864.695
 116645787.860 7  90892852.97744  22196957.516                    22196965.465
 110352332.922 8  85988853.44846  20999350.836                    20999356.027
 128492439.399 6 100124010.03743  24451302.039                    24451312.805
 127166446.082 6  99090759.51343  24198973.820                    24198983.344
 120704730.491 7  94055677.70144  22969344.398                    22969353.051
 106994262.627 8  83372178.83446  20360332.492                    20360339.734
 113463162.753 8  88412872.26745  21591324.570                    21591330.184
 11  8 22 16 45 30.0000000  0 11G11G28G16G07G03G19G10G06G08G13G23
 123417062.955 7  96169195.75543  23485488.117                    23485496.898
 124098581.588 7  96700151.99744  23615152.602                    23615162.309
 130037724.418 6 101328119.63542  24745359.227                    24745368.297
 111918770.351 8  87209447.696 7  21297433.289                    21297440.430
 116732353.439 7  90960306.61644  22213430.375                    22213438.434
 110374880.339 8  86006422.86446  21003641.438                    21003646.680
 128538652.736 6 100160020.39643  24460095.805                    24460106.996
 127261537.871 7  99164856.94743  24217069.188                    24217078.910
 120633304.771 7  94000021.31044  22955752.703                    22955761.426
 107039805.562 8  83407666.81146  20368999.117                    20369006.063
 113554383.478 8  88483953.30545  21608683.102                    21608689.496
 11  8 22 16 46  0.0000000  0 11G11G28G16G07G03G19G10G06G08G13G23
 123339880.084 7  96109053.29743  23470801.148                    23470809.621
 124044834.117 6  96658270.90744  23604925.258                    23604934.531
 130123264.214 6 101394773.98142  24761638.164                    24761646.328
 111869370.251 8  87170954.118 7  21288032.359                    21288039.656
 116819294.325 7  91028052.72944  22229975.039                    22229983.203
 110398034.732 8  86024465.24346  21008047.727                    21008053.215
 128585117.042 6 100196226.24243  24468937.938                    24468948.832
 127356848.424 7  99239124.82443  24235206.320                    24235215.754
 120561846.100 7  93944339.26044  22942154.984                    22942163.066
 107085911.468 8  83443593.47046  20377772.625                    20377779.594
 113645966.023 8  88555316.26645  21626110.742                    21626117.254
 11  8 22 16 46 30.0000000  0 11G11G28G16G07G03G19G10G06G08G13G23
 123262769.262 6  96048966.96743  23456127.766                    23456135.383
 123991304.360 7  96616559.46544  23594739.008                    23594748.145
 130208707.513 6 101461353.13543  24777897.773                    24777905.375
 111820096.477 8  87132558.963 7  21278656.023                    21278663.289
 116906607.792 7  91096089.13744  22246589.961                    22246598.742
 110421795.344 8  86042979.99246  21012568.992                    21012574.535
 128631830.000 6 100232625.88743  24477827.195                    24477837.902
 127452375.336 6  99313561.33243  24253384.797                    24253393.645
 120490355.943 7  93888632.66444  22928550.648                    22928558.477
 107132579.461 8  83479958.11246  20386653.133                    20386660.363
 113737907.744 8  88626959.09645  21643606.773                    21643613.039
 11  8 22 16 47  0.0000000  0 11G11G28G16G07G03G19G10G06G08G13G23
 123185733.439 7  95988939.09143  23441467.625                    23441476.551
 123937991.694 7  96575017.18344  23584593.867                    23584602.621
 130294053.284 6 101527856.30543  24794138.406                    24794147.008
 111770950.122 8  87094263.109 7  21269303.703                    21269311.094
 116994290.809 7  91164413.50044  22263275.711                    22263283.813
 110446160.935 8  86061966.16646  21017205.359                    21017211.324
 128678788.875 6 100269217.14743  24486763.531                    24486774.063
 127548115.887 7  99388164.33243  24271603.781                    24271612.762
 120418834.991 7  93832902.07244  22914940.914                    22914948.637
 107179807.939 8  83516759.49246  20395640.586                    20395647.988
 113830206.064 8  88698879.79945  21661170.633                    21661176.906
 11  8 22 16 47 30.0000000  0 11G11G28G16G07G03G19G10G06G08G13G23
 123108775.546 7  95928971.97243  23426823.047                    23426831.453
 123884895.600 7  96533643.64144  23574489.633                    23574499.320
 130379300.556 6 101594282.67343  24810360.063                    24810367.859
 111721932.564 8  87056067.609 7  21259975.891                    21259983.184
 117082340.693 7  91233023.76144  22280031.125                    22280038.980
 110471130.579 8  86081423.01846  21021956.977                    21021962.988
 128725991.086 6 100305998.01143  24495745.172                    24495756.063
 127644067.376 7  99462931.67243  24289862.789                    24289871.273
 120347283.869 7  93777147.98044  22901325.102                    22901332.426
 107227595.475 8  83553996.50746  20404734.531                    20404741.539
 113922858.238 8  88771076.24245  21678801.727                    21678808.039
 11  8 22 16 48  0.0000000  0 11G11G28G16G07G03G19G10G06G08G13G23
 123031898.629 6  95869067.91143  23412193.422                    23412202.648
 123832015.750 7  96492438.61544  23564427.039                    23564436.234
 130464448.638 6 101660631.80343  24826563.539                    24826571.371
 111673045.311 8  87017973.644 7  21250673.094                    21250680.270
 117170754.600 7  91301917.67044  22296855.766                    22296863.441
 110496703.350 8  86101349.84346  21026823.523                    21026829.141
 128773433.862 6 100342966.30343  24504773.695                    24504784.402
 127740227.285 6  99537861.42843  24308161.469                    24308169.871
 120275703.617 7  93721371.19444  22887703.594                    22887712.090
 107275940.854 8  83591668.21146  20413934.102                    20413941.172
 114015861.512 8  88843546.26245  21696499.703                    21696505.934
 11  8 22 16 48 30.0000000  0 11G11G28G16G07G03G19G10G06G08G13G23
 122955105.430 7  95809229.10843  23397580.656                    23397589.055
 123779351.868 7  96451401.85444  23554405.258                    23554414.285
 130549496.629 6 101726902.95443  24842746.898                    24842755.738
 111624289.810 8  86979982.343 7  21241394.977                    21241402.371
 117259529.446 7  91371092.83144  22313748.922                    22313756.496
 110522877.968 8  86121745.63546  21031804.445                    21031810.355
 128821114.711 6 100380120.12843  24513847.570                    24513858.012
 127836593.024 6  99612951.56143  24326498.422                    24326507.738
 120204094.821 7  93665572.14744  22874076.516                    22874085.141
 107324842.444 8  83629773.31146  20423239.672                    20423247.113
 114109213.251 8  88916287.81145  21714264.195                    21714270.488
 11  8 22 16 49  0.0000000  0 11G11G28G16G07G03G19G10G06G08G13G23
 122878399.004 7  95749457.91444  23382984.383                    23382992.488
 123726903.584 7  96410533.11744  23544424.750                    23544433.309
 130634444.342 6 101793095.90243  24858912.633                    24858920.461
 111575668.017 8  86942095.237 7  21232143.000                    21232150.098
 117348662.759 7  91440547.29844  22330709.539                    22330717.898
 110549653.808 8  86142609.90846  21036899.680                    21036905.305
 128869030.577 6 100417457.08243  24522964.969                    24522975.926
 127933162.488 6  99688200.41143  24344875.750                    24344884.906
 120132458.705 7  93609751.80544  22860444.953                    22860453.309
 107374299.212 8  83668311.02446  20432651.414                    20432658.527
 114202910.933 8  88989298.94445  21732094.273                    21732100.426
 11  8 22 16 49 30.0000000  0 11G11G28G16G07G03G19G10G06G08G13G23
 122801782.479 7  95689756.76644  23368404.164                    23368412.746
 123674670.341 7  96369831.94244  23534484.867                    23534493.988
 130719290.715 6 101859209.92143  24875058.383                    24875066.180
 111527181.522 8  86904313.545 7  21222916.414                    21222923.230
 117438151.378 6  91510278.64144  22347739.469                    22347747.465
 110577029.947 8  86163941.95546  21042109.008                    21042114.805
 128917178.938 6 100454975.22243  24532127.633                    24532138.516
 128029932.905 6  99763605.87442  24363289.984                    24363299.965
 120060796.678 7  93553911.28944  22846808.078                    22846816.672
 107424309.539 8  83707280.07946  20442167.477                    20442174.887
 114296951.847 8  89062577.51545  21749989.711                    21749995.895
 11  8 22 16 50  0.0000000  0 10G11G28G07G03G19G10G06G08G13G23
 122725258.945 7  95630128.06544  23353842.711                    23353850.973
 123622651.824 7  96329298.08144  23524587.125                    23524595.020
 111478832.138 8  86866638.702 7  21213715.578                    21213722.855
 117527992.670 7  91580284.79444  22364835.805                    22364843.820
 110605005.273 7  86185740.90146  21047432.516                    21047438.152
 128965557.253 7 100492672.53843  24541333.547                    24541344.633
 128126901.760 6  99839166.00643  24381742.820                    24381751.824
 119989109.763 7  93498051.36044  22833166.359                    22833174.781
 107474872.071 8  83746679.43346  20451789.711                    20451796.836
 114391333.335 8  89136121.46445  21767950.102                    21767956.293
 11  8 22 16 50 30.0000000  0 10G11G28G07G03G19G10G06G08G13G23
 122648830.831 7  95570573.72544  23339297.695                    23339307.070
 123570847.242 7  96288930.90644  23514728.766                    23514737.023
 111430620.476 8  86829071.161 7  21204541.297                    21204548.184
 117618183.201 7  91650563.05744  22381998.477                    22382007.523
 110633578.170 8  86208005.49046  21052869.836                    21052875.574
 129014162.648 6 100530546.78443  24550582.992                    24550594.207
 128224066.210 5  99914878.50643  24400232.797                    24400242.332
 119917398.002 7  93442172.07344  22819520.328                    22819528.883
 107525984.840 8  83786507.53646  20461516.141                    20461523.539
 114486052.128 8  89209928.26345  21785974.828                    21785981.098
 11  8 22 16 51  0.0000000  0 10G11G28G07G03G19G10G06G08G13G23
 122572501.104 7  95511096.04644  23324773.188                    23324781.762
 123519256.237 7  96248730.16044  23504910.672                    23504919.109
 111382548.500 8  86791612.479 7  21195393.469                    21195400.504
 117708720.299 7  91721111.38044  22399227.172                    22399235.887
 110662747.795 8  86230735.06946  21058420.789                    21058425.785
 129062992.397 6 100568595.87543  24559875.156                    24559886.020
 128321423.997 6  99990741.63943  24418758.750                    24418769.129
 119845662.796 7  93386274.53144  22805869.055                    22805878.246
 107577646.585 8  83826763.41346  20471347.305                    20471354.828
 114581105.707 8  89283995.92245  21804062.680                    21804068.742
 11  8 22 16 51 30.0000000  0 10G11G28G07G03G19G10G06G08G13G23
 122496273.264 7  95451697.77844  23310267.727                    23310276.207
 123467878.343 7  96208695.44844  23495134.469                    23495142.020
 111334618.146 8  86754264.136 7  21186272.766                    21186279.586
 117799601.640 7  91791927.94945  22416521.500                    22416530.012
 110692513.258 8  86253928.93546  21064084.547                    21064090.219
 129112043.790 6 100606817.62143  24569209.938                    24569220.105
 128418972.421 6 100066753.31443  24437322.422                    24437332.137
 119773905.398 7  93330359.69144  22792214.141                    22792223.070
 107629856.476 8  83867446.41346  20481282.273                    20481289.641
 114676491.663 8  89358322.58945  21822214.203                    21822220.266
 11  8 22 16 52  0.0000000  0 10G11G28G07G03G19G10G06G08G13G23
 122420149.821 7  95392380.84144  23295781.891                    23295790.059
 123416713.223 7  96168826.56244  23485397.703                    23485405.957
 111286830.937 8  86717027.339 7  21177179.367                    21177186.414
 117890823.799 7  91863010.09844  22433880.500                    22433889.070
 110722873.037 8  86277585.89946  21069862.109                    21069867.922
 129161314.143 6 100645210.04843  24578585.203                    24578596.293
 128516709.079 6 100142911.66743  24455921.188                    24455930.484
 119702126.547 7  93274428.14244  22778555.742                    22778564.309
 107682611.993 8  83908554.57346  20491321.281                    20491328.633
 114772207.127 8  89432905.99545  21840428.344                    21840434.246
 11  8 22 16 52 30.0000000  0 10G11G28G07G03G19G10G06G08G13G23
 122344133.787 7  95333147.60044  23281317.227                    23281324.645
 123365760.061 7  96129122.82544  23475701.703                    23475710.563
 111239188.237 8  86679903.157 7  21168112.984                    21168120.199
 117982383.964 7  91934355.62144  22451303.789                    22451312.262
 110753826.019 8  86301705.10046  21075752.117                    21075757.992
 129210800.682 6 100683770.87043  24588003.016                    24588013.367
 128614631.202 6 100219214.52643  24474555.641                    24474564.871
 119630327.063 7  93218480.49644  22764892.344                    22764900.305
 107735911.539 8  83950086.65746  20501463.883                    20501471.098
 114868249.104 8  89507743.83445  21858704.477                    21858710.672
 11  8 22 16 53  0.0000000  0 10G11G28G07G03G19G10G06G08G13G23
 122268228.408 7  95274000.59044  23266872.445                    23266880.438
 123315018.590 7  96089584.03744  23466045.734                    23466054.129
 111191691.954 8  86642893.059 7  21159074.781                    21159082.109
 118074279.718 7  92005962.64644  22468790.383                    22468799.246
 110785371.172 7  86326285.73746  21081755.242                    21081761.098
 129260500.742 6 100722498.08143  24597460.352                    24597470.816
 128712736.693 6 100295660.31143  24493224.258                    24493233.566
 119558508.280 7  93162517.82744  22751225.789                    22751233.926
 107789753.963 8  83992041.76246  20511710.023                    20511717.250
 114964614.922 8  89582834.00545  21877042.180                    21877048.676
 11  8 22 16 53 30.0000000  0 10G11G28G07G03G19G10G06G08G13G23
 122192436.324 7  95214941.85044  23252449.531                    23252457.887
 123264488.292 6  96050209.80844  23456429.930                    23456438.383
 111144343.073 8  86605997.823 7  21150064.547                    21150071.723
 118166507.713 7  92077828.57244  22486341.547                    22486350.270
 110817507.051 8  86351326.68946  21087870.203                    21087875.922
 129310411.410 6 100761389.42043  24606958.328                    24606968.680
 128811022.689 6 100372246.73143  24511927.219                    24511936.129
 119486671.028 7  93106540.77944  22737555.727                    22737563.352
 107844137.389 8  84034418.42746  20522058.289                    20522065.820
 115061301.645 7  89658174.24045  21895440.813                    21895447.289
 11  8 22 16 54  0.0000000  0 10G11G28G07G03G19G10G06G08G13G23
 122116760.814 7  95155973.94244  23238048.641                    23238056.727
 123214168.471 7  96010999.60444  23446855.008                    23446862.875
 111097143.648 8  86569219.065 7  21141082.672                    21141089.883
 118259064.876 7  92149950.97644  22503954.461                    22503962.898
 110850232.203 7  86376826.81046  21094097.969                    21094103.641
 129360530.373 6 100800443.06843  24616494.742                    24616506.672
 128909486.608 6 100448971.80843  24530664.344                    24530673.594
 119414816.376 7  93050550.15844  22723882.055                    22723890.129
 107899060.143 8  84077215.35046  20532510.055                    20532517.516
 115158306.735 8  89733762.54445  21913901.000                    21913907.137
 11  8 22 16 54 30.0000000  0 10G11G28G07G03G19G10G06G08G13G23
 122041204.764 7  95097099.13644  23223670.914                    23223678.957
 123164058.803 7  95971953.13244  23437318.742                    23437327.629
 111050095.444 8  86532558.122 7  21132129.688                    21132136.977
 118351948.486 7  92222327.76944  22521629.719                    22521637.820
 110883545.557 8  86402785.25746  21100437.391                    21100442.828
 129410854.532 6 100839656.59443  24626071.719                    24626082.559
 129008126.109 6 100525833.67843  24549434.867                    24549444.082
 119342945.731 7  92994547.07545  22710205.555                    22710213.516
 107954520.831 8  84120431.43246  20543063.914                    20543071.281
 115255627.452 8  89809596.80345  21932420.266                    21932426.453
 11  8 22 16 55  0.0000000  0 10G11G28G07G03G19G10G06G08G13G23
 121965771.229 7  95038319.78944  23209316.523                    23209324.184
 123114158.817 6  95933070.06843  23427823.523                    23427831.828
 111003200.097 8  86496016.294 7  21123205.805                    21123212.707
 118445155.703 7  92294956.74044  22539366.688                    22539375.121
 110917445.951 8  86429201.13746  21106888.086                    21106893.664
 129461381.164 6 100879027.86943  24635686.859                    24635697.660
 129106938.673 6 100602830.43543  24568237.898                    24568247.840
 119271059.984 7  92938532.21845  22696526.242                    22696534.520
 108010517.700 8  84164065.33146  20553719.867                    20553726.762
 115353260.964 8  89885674.79545  21950999.352                    21951005.441
 11  8 22 16 55 30.0000000  0 10G11G28G07G03G19G10G06G08G13G23
 121890463.182 7  94979638.21944  23194985.516                    23194993.867
 123064468.003 7  95894349.97544  23418367.844                    23418375.645
 110956459.110 8  86459594.746 7  21114311.258                    21114318.316
 118538683.449 7  92367835.45144  22557164.125                    22557172.766
 110951931.715 7  86456073.15346  21113450.430                    21113456.395
 129512107.401 6 100918554.70843  24645339.813                    24645350.477
 129205921.865 6 100679960.10943  24587074.609                    24587083.598
 119199159.932 7  92882506.22545  22682844.039                    22682852.398
 108067048.894 8  84208115.58146  20564477.203                    20564484.395
 115451204.421 8  89961994.29645  21969637.156                    21969643.688
 11  8 22 16 56  0.0000000  0 10G11G28G07G03G19G10G06G08G13G23
 121815283.711 7  94921056.83744  23180679.219                    23180688.000
 123014985.342 7  95855792.11044  23408951.555                    23408959.566
 110909873.971 8  86423294.642 7  21105446.508                    21105453.609
 118632529.220 7  92440961.98544  22575023.063                    22575031.598
 110987001.569 8  86483400.29646  21120124.391                    21120129.730
 129563030.634 6 100958235.05543  24655030.164                    24655041.055
 129305073.092 6 100757220.73443  24605942.180                    24605951.867
 119127246.765 7  92826470.00845  22669159.250                    22669167.793
 108124112.755 8  84252580.90146  20575336.242                    20575343.293
 115549455.138 7  90038553.22445  21988333.672                    21988340.453
 11  8 22 16 56 30.0000000  0 10G11G28G07G03G19G10G06G08G13G23
 121740235.840 7  94862578.00844  23166397.938                    23166407.332
 122965710.844 7  95817396.43644  23399574.453                    23399583.246
 110863447.000 8  86387117.785 7  21096611.859                    21096618.691
 118726689.999 7  92514333.96544  22592940.711                    22592949.289
 111022654.476 8  86511181.76746  21126908.875                    21126914.242
 129614148.333 6 100998066.91743  24664757.211                    24664769.113
 129404389.936 6 100834610.41743  24624841.328                    24624850.711
 119055321.878 7  92770424.66244  22655472.148                    22655480.613
 108181707.611 8  84297459.98846  20586296.414                    20586303.461
 115648010.242 7  90115349.33345  22007088.500                    22007094.855
 11  8 22 16 57  0.0000000  0 10G11G28G07G03G19G10G06G08G13G23
 121665322.380 7  94804203.88844  23152142.508                    23152151.730
 122916644.415 7  95779162.89344  23390237.617                    23390246.320
 110817179.546 8  86351065.224 7  21087807.336                    21087814.617
 118821162.611 7  92587948.92844  22610917.750                    22610926.859
 111058889.207 8  86539416.60946  21133804.305                    21133809.801
 129665457.491 6 101038047.98543  24674521.023                    24674532.613
 129503869.818 6 100912127.15843  24643772.508                    24643781.652
 118983386.146 7  92714370.83844  22641783.539                    22641791.852
 108239831.474 8  84342751.27746  20597356.883                    20597364.160
 115746866.855 7  90192380.37945  22025900.422                    22025907.090
 11  8 22 16 57 30.0000000  0 10G11G28G07G03G19G10G06G08G13G23
 121590546.607 7  94745937.05844  23137913.516                    23137921.801
 122867784.654 7  95741090.41344  23380939.367                    23380948.305
 110771073.276 8  86315138.257 7  21079033.734                    21079040.926
 118915944.664 7  92661805.02644  22628954.344                    22628963.602
 111095703.388 8  86568102.95746  21140809.414                    21140815.098
 129716955.519 6 101078176.19943  24684321.242                    24684332.738
 129603510.257 6 100989768.96843  24662732.883                    24662742.820
 118911440.875 7  92658309.59345  22628092.531                    22628101.574
 108298483.013 8  84388453.73846  20608517.844                    20608524.934
 115846022.232 8  90269644.22945  22044769.023                    22044775.766
 11  8 22 16 58  0.0000000  0 10G11G28G07G03G19G10G06G08G13G23
 121515911.041 7  94687779.49044  23123710.852                    23123719.102
 122819130.903 7  95703178.42644  23371681.133                    23371689.512
 110725129.602 8  86279337.994 7  21070290.555                    21070298.090
 119011033.271 7  92735899.97944  22647049.750                    22647058.293
 111133095.968 8  86597240.01946  21147925.039                    21147930.684
 129768639.234 6 101118449.09843  24694156.031                    24694167.770
 129703308.642 6 101067533.89142  24681724.828                    24681733.855
 118839487.018 7  92602241.65945  22614399.938                    22614409.227
 108357659.664 8  84434565.38746  20619779.063                    20619785.953
 115945473.410 7  90347138.56845  22063693.578                    22063700.652
 11  8 22 16 58 30.0000000  0 10G11G28G07G03G19G10G06G08G13G23
 121441419.054 7  94629733.82744  23109535.461                    23109543.652
 122770682.735 7  95665426.64944  23362462.453                    23362469.691
 110679350.348 8  86243665.848 7  21061579.406                    21061586.488
 119106424.970 7  92810231.15144  22665202.453                    22665210.520
 111171065.373 8  86626826.55046  21155150.336                    21155155.836
 129820506.122 6 101158864.77743  24704025.930                    24704037.348
 129803262.595 6 101145420.08442  24700743.703                    24700753.934
 118767525.838 7  92546168.02145  22600706.563                    22600715.223
 108417359.949 8  84481085.05446  20631139.336                    20631146.523
 116045217.751 7  90424861.34345  22082674.828                    22082681.641
 11  8 22 16 59  0.0000000  0 10G11G28G07G03G19G10G06G08G13G23
 121367073.949 7  94571802.57944  23095387.664                    23095395.770
 122722439.901 7  95627834.87444  23353281.789                    23353289.371
 110633737.622 8  86208123.463 7  21052899.305                    21052906.617
 119202117.009 7  92884796.32644  22683411.547                    22683420.039
 111209610.251 8  86656861.49446  21162485.211                    21162490.969
 129872553.651 6 101199421.16242  24713930.219                    24713942.605
 129903369.755 6 101223425.60742  24719793.789                    24719804.051
 118695558.816 7  92490089.82445  22587011.797                    22587020.512
 108477582.355 8  84528011.56946  20642599.414                    20642606.121
 116145252.400 7  90502810.34845  22101710.617                    22101717.293
 11  8 22 16 59 30.0000000  0 10G11G28G07G03G19G10G06G08G13G23
 121292878.252 7  94513987.78144  23081269.289                    23081276.234
 122674401.453 7  95590402.35944  23344139.516                    23344148.391
 110588292.738 8  86172711.852 7  21044251.867                    21044258.602
 119298106.628 7  92959593.36344  22701677.789                    22701686.406
 111248729.222 8  86687343.78846  21169929.500                    21169935.137
 129924778.995 6 101240116.10843  24723869.414                    24723880.695
 130003627.540 6 101301548.48942  24738871.750                    24738882.398
 118623586.761 7  92434007.69945  22573316.211                    22573324.297
 108538324.337 8  84575342.95146  20654158.297                    20654165.199
 116245574.166 7  90580983.07145  22120800.992                    22120807.613
 11  8 22 17  0  0.0000000  0 10G11G28G07G03G19G10G06G08G13G23
 121218835.017 7  94456291.77744  23067178.680                    23067187.266
 122626566.929 7  95553128.74644  23335037.242                    23335046.109
 110543017.049 8  86137432.092 7  21035635.773                    21035642.855
 119394390.928 7  93034620.03744  22719999.820                    22720008.539
 111288420.383 8  86718271.93646  21177482.625                    21177488.059
 129977178.872 6 101280947.11342  24733840.164                    24733852.078
 130104033.274 6 101379786.70842  24757979.258                    24757989.109
 118551610.675 7  92377922.45145  22559619.570                    22559627.219
 108599584.073 8  84623077.77046  20665815.477                    20665822.875
 116346180.400 8  90659377.45745  22139946.055                    22139952.543
 11  8 22 17  0 30.0000000  0 10G11G28G07G03G19G10G06G08G13G23
 121144947.588 7  94398717.17744  23053118.477                    23053126.297
 122578935.800 7  95516013.61344  23325974.063                    23325981.789
 110497913.186 8  86102286.223 7  21027052.922                    21027060.008
 119490967.030 7  93109874.09144  22738378.242                    22738386.063
 111328682.555 8  86749645.03046  21185144.250                    21185149.617
 130029751.011 6 101321912.26842  24743844.547                    24743855.758
 130204584.711 6 101458138.40242  24777113.797                    24777123.133
 118479632.324 7  92321835.43745  22545922.422                    22545930.672
 108661360.292 8  84671215.05246  20677570.938                    20677578.406
 116447068.379 8  90737991.38845  22159144.477                    22159150.781
 11  8 22 17  1  0.0000000  0 10G11G28G07G03G19G10G06G08G13G23
 121071218.663 7  94341266.09044  23039088.695                    23039096.449
 122531507.248 7  95479056.32944  23316948.406                    23316956.625
 110452982.347 8  86067275.163 7  21018503.016                    21018509.566
 119587831.729 7  93185353.04144  22756810.906                    22756819.523
 111369513.579 8  86781461.39446  21192914.234                    21192919.477
 130082492.838 6 101363009.68642  24753881.008                    24753891.953
 130305279.103 6 101536601.53242  24796274.836                    24796284.855
 118407652.391 7  92265747.18545  22532225.148                    22532233.289
 108723650.495 8  84719752.82946  20689424.789                    20689431.852
 116548235.190 7  90816822.57545  22178396.156                    22178402.508
 11  8 22 17  1 30.0000000  0 11G11G28G01G07G03G19G10G06G08G13G23
 120997651.485 7  94283941.03444  23025089.195                    23025097.023
 122484280.682 7  95442256.42944  23307961.164                    23307969.578
 129692895.67616 101059450.01415  24679734.633                    24679747.234
 110408226.108 8  86032400.170 7  21009986.398                    21009993.074
 119684982.151 7  93261054.60644  22775298.008                    22775306.707
 111410912.101 8  86813719.96146  21200791.914                    21200797.645
 130135401.251 6 101404236.90043  24763950.102                    24763960.277
 130406114.051 6 101615174.17143  24815463.742                    24815473.227
 118335672.220 7  92209658.76044  22518527.578                    22518535.457
 108786452.855 8  84768689.70246  20701375.750                    20701382.934
 116649677.560 7  90895868.48245  22197699.836                    22197706.602
 11  8 22 17  2  0.0000000  0 11G11G28G01G07G03G19G10G06G08G13G23
 120924248.854 7  94226744.21044  23011120.727                    23011129.117
 122437255.390 7  95405613.38944  23299012.148                    23299020.102
 129618420.926 5 101001417.813 5  24665563.219                    24665576.270
 110363646.130 8  85997662.517 7  21001503.086                    21001509.801
 119782415.415 7  93336976.57344  22793838.977                    22793847.156
 111452876.467 8  86846419.43746  21208777.539                    21208783.465
 130188473.024 6 101445591.41643  24774048.742                    24774059.746
 130507087.040 6 101693854.36943  24834678.398                    24834688.387
 118263692.884 7  92153570.97544  22504830.352                    22504838.188
 108849764.886 8  84818023.71646  20713423.375                    20713430.898
 116751392.936 7  90975127.11545  22217055.680                    22217062.621
 11  8 22 17  2 30.0000000  0 11G11G28G01G07G03G19G10G06G08G13G23
 120851014.003 7  94169678.09444  22997184.578                    22997193.074
 122390430.840 7  95369126.75944  23290101.969                    23290109.938
 129543832.605 5 100943297.118 5  24651367.875                    24651383.656
 110319244.662 7  85963063.965 7  20993053.789                    20993060.789
 119880128.942 7  93413116.93144  22812433.516                    22812441.727
 111495405.149 8  86879558.64946  21216870.617                    21216876.301
 130241705.727 6 101487071.33542  24784178.703                    24784190.008
 130608195.997 6 101772640.51543  24853918.852                    24853928.590
 118191716.064 7  92097485.16345  22491133.078                    22491141.547
 108913585.258 8  84867753.83746  20725567.969                    20725575.816
 116853378.717 7  91054596.47745  22236463.531                    22236469.980
 11  8 22 17  3  0.0000000  0 11G11G28G01G07G03G19G10G06G08G13G23
 120777949.862 7  94112745.02344  22983281.203                    22983289.570
 122343806.334 7  95332796.00244  23281229.805                    23281238.398
 129469132.953 5 100885089.723 5  24637153.688                    24637168.156
 110275023.106 8  85928605.607 7  20984638.461                    20984645.406
 119978119.726 7  93489473.31044  22831080.586                    22831089.109
 111538496.098 8  86913135.99846  21225070.008                    21225076.027
 130295096.500 6 101528674.43943  24794338.805                    24794350.523
 130709438.209 6 101851530.50143  24873184.305                    24873194.383
 118119742.571 7  92041401.93245  22477437.352                    22477445.422
 108977911.660 8  84917878.27046  20737809.047                    20737815.973
 116955631.750 7  91134274.10145  22255921.391                    22255927.504
 11  8 22 17  3 30.0000000  0 10G11G28G01G07G03G19G10G08G13G23
 120705059.854 7  94055947.61144  22969410.656                    22969418.676
 122297381.336 7  95296620.71944  23272395.500                    23272404.145
 129394324.94115 100826797.88016  24622918.531                    24622932.340
 110230983.606 8  85894289.111 7  20976257.914                    20976265.000
 120076384.910 7  93566043.54544  22849780.219                    22849788.262
 111582147.989 8  86947150.44546  21233376.891                    21233383.082
 130348642.916 6 101570398.79842  24804528.633                    24804539.875
 118047774.128 7  91985322.62945  22463742.102                    22463750.266
 109042742.512 8  84968395.76746  20750145.578                    20750153.527
 117058149.207 7  91214157.75045  22275429.875                    22275436.520
 11  8 22 17  4  0.0000000  0 10G11G28G01G07G03G19G10G08G13G23
 120632346.682 7  93999288.01944  22955573.469                    22955581.883
 122251155.404 7  95260600.54844  23263598.625                    23263606.840
 129319410.820 5 100768423.372 6  24608663.031                    24608677.617
 110187127.880 8  85860115.813 7  20967912.469                    20967919.316
 120174921.942 7  93642825.59444  22868530.688                    22868539.402
 111626359.242 7  86981600.76246  21241790.195                    21241796.023
 130402342.123 6 101612242.22643  24814747.336                    24814757.887
 117975811.975 7  91929248.24044  22450048.563                    22450056.484
 109108075.731 8  85019304.73146  20762578.609                    20762585.750
 117160928.387 7  91294245.32945  22294988.391                    22294994.863
 11  8 22 17  4 30.0000000  0 10G11G28G01G07G03G19G10G08G13G23
 120559812.761 7  93942768.09344  22941770.836                    22941778.930
 122205127.025 7  95224734.30144  23254839.953                    23254848.074
 129244392.805 5 100709967.892 6  24594387.070                    24594401.270
 110143456.974 8  85826086.523 7  20959602.367                    20959609.555
 120273727.065 7  93719816.53144  22887333.102                    22887341.254
 111671127.183 7  87016484.84846  21250309.117                    21250315.285
 130456190.631 6 101654202.01043  24824994.188                    24825005.328
 117903856.921 7  91873179.36844  22436355.539                    22436364.445
 109173907.790 8  85070602.40946  20775106.031                    20775113.641
 117263965.724 7  91374534.06445  22314595.602                    22314602.672
 11  8 22 17  5  0.0000000  0 10G11G28G01G07G03G19G10G08G13G23
 120487461.826 7  93886390.75544  22928002.805                    22928010.813
 122159296.170 7  95189021.96544  23246118.320                    23246126.699
 129169273.800 6 100651433.695 6  24580092.430                    24580106.301
 110099972.902 8  85792202.825 7  20951327.656                    20951334.656
 120372797.570 7  93797014.25744  22906185.211                    22906194.574
 111716450.390 7  87051801.61346  21258933.914                    21258939.867
 130510186.075 6 101696276.23743  24835269.047                    24835280.293
 117831910.603 7  91817117.31044  22422664.398                    22422673.082
 109240237.565 8  85122287.90446  20787728.359                    20787735.633
 117367258.462 7  91455021.80745  22334251.680                    22334258.840
 11  8 22 17  5 30.0000000  0 10G11G28G01G07G03G19G10G08G13G23
 120415296.700 7  93830158.20144  22914270.820                    22914278.719
 122113662.096 7  95153462.96544  23237434.867                    23237442.922
 129094056.602 6 100592823.012 6  24565778.836                    24565792.617
 110056677.622 8  85758466.240 7  20943089.023                    20943095.598
 120472130.815 6  93874416.72044  22925088.188                    22925096.793
 111762327.225 7  87087549.78946  21267664.125                    21267670.195
 130564325.748 6 101738462.93342  24845571.500                    24845583.051
 117759974.370 7  91761063.12045  22408975.469                    22408984.359
 109307063.115 8  85174359.71946  20800444.922                    20800452.414
 117470803.872 7  91535706.43745  22353955.883                    22353962.207
 11  8 22 17  6  0.0000000  0 11G11G28G01G24G07G03G19G10G08G13G23
 120343320.493 7  93774072.85744  22900574.180                    22900582.371
 122068224.285 7  95118056.91644  23228787.758                    23228796.477
 129018743.873 6 100534137.859 6  24551446.492                    24551461.688
 128088248.58316  99809005.38253  24374367.242                    24374379.504
 110013573.064 8  85724878.274 7  20934886.133                    20934893.066
 120571724.086 6  93952021.80144  22944039.953                    22944048.086
 111808756.392 7  87123728.34946  21276499.484                    21276505.098
 130618606.850 6 101780759.77942  24855900.273                    24855912.234
 117688049.344 7  91705017.65745  22395288.766                    22395297.434
 109374382.307 8  85226816.18746  20813255.156                    20813262.770
 117574599.414 7  91616585.97045  22373707.375                    22373714.098
 11  8 22 17  6 30.0000000  0 11G11G28G01G24G07G03G19G10G08G13G23
 120271536.387 7  93718137.22044  22886913.664                    22886922.457
 122022981.853 7  95082803.12844  23220178.492                    23220186.875
 128943338.176 6 100475380.274 6  24537098.180                    24537111.719
 128016683.106 6  99753240.11943  24360749.219                    24360761.523
 109970661.329 8  85691440.557 7  20926720.648                    20926727.383
 120671574.631 6  94029827.36444  22963041.258                    22963049.598
 111855735.508 8  87160335.43846  21285439.156                    21285444.867
 130673026.901 6 101823164.86242  24866256.898                    24866268.594
 117616137.152 7  91648982.17845  22381604.422                    22381612.887
 109442193.110 8  85279655.72646  20826159.125                    20826166.895
 117678642.288 7  91697658.22245  22393506.117                    22393512.906
 11  8 22 17  7  0.0000000  0 11G11G28G01G24G07G03G19G10G08G13G23
 120199947.628 7  93662353.78644  22873291.008                    22873298.984
 121977934.313 7  95047701.17644  23211606.203                    23211614.930
 128867842.256 6 100416552.372 6  24522731.289                    24522745.344
 127945043.579 6  99697417.20243  24347115.820                    24347130.012
 109927944.033 8  85658154.351 7  20918591.875                    20918598.832
 120771679.304 6  94107830.95043  22982090.227                    22982099.184
 111903262.886 8  87197369.74946  21294482.891                    21294489.246
 130727583.023 6 101865676.00942  24876638.875                    24876650.684
 117544239.516 7  91592958.04545  22367922.961                    22367931.203
 109510493.321 8  85332876.62846  20839156.359                    20839163.844
 117782929.322 7  91778920.74745  22413351.328                    22413358.531
 11  8 22 17  7 30.0000000  0 11G11G28G01G24G07G03G19G10G08G13G23
 120128557.048 7  93606724.79244  22859705.734                    22859713.672
 121933080.943 7  95012750.52744  23203070.922                    23203079.348
 128792258.551 6 100357656.061 6  24508347.852                    24508361.941
 127873332.479 6  99641538.49343  24333470.297                    24333482.648
 109885422.919 8  85625021.003 7  20910500.102                    20910507.102
 120872035.143 6  94186030.22844  23001186.336                    23001196.059
 111951336.561 8  87234829.73846  21303631.367                    21303637.289
 130782272.099 6 101908290.74742  24887045.813                    24887057.578
 117472357.460 7  91536946.07245  22354244.406                    22354252.504
 109579280.436 8  85386476.94346  20852246.156                    20852253.555
 117887457.246 7  91860370.96645  22433242.508                    22433249.520
 11  8 22 17  8  0.0000000  0 11G11G28G01G24G07G03G19G10G08G13G23
 120057367.602 7  93551252.53144  22846158.719                    22846166.559
 121888420.571 7  94977950.29644  23194572.602                    23194580.016
 128716589.645 6 100298693.346 6  24493947.992                    24493962.715
 127801552.499 6  99585606.11442  24319810.578                    24319823.852
 109843099.520 8  85592041.726 7  20902446.211                    20902453.375
 120972639.215 7  94264422.92044  23020331.969                    23020340.375
 111999954.477 8  87272713.81746  21312882.656                    21312889.051
 130837091.437 6 101951006.96242  24897477.859                    24897489.992
 117400491.983 7  91480947.02545  22340568.375                    22340576.668
 109648552.326 8  85440454.99546  20865428.078                    20865435.469
 117992223.287 7  91942006.73945  22453178.914                    22453185.504
 11  8 22 17  8 30.0000000  0 11G11G28G01G24G07G03G19G10G08G13G23
 119986382.336 7  93495939.36744  22832650.492                    22832658.965
 121843952.944 7  94943300.23444  23186110.492                    23186118.195
 128640838.415 6 100239666.469 6  24479533.750                    24479548.348
 127729706.551 6  99529622.31643  24306138.789                    24306151.391
 109800975.798 7  85559218.048 7  20894430.406                    20894437.449
 121073488.569 7  94343006.76244  23039522.758                    23039531.402
 112049114.998 8  87311020.69546  21322238.273                    21322243.703
 130892038.357 6 101993822.63842  24907933.883                    24907946.824
 117328644.590 7  91424962.05145  22326896.648                    22326904.637
 109718307.069 8  85494809.29446  20878702.008                    20878709.563
 118097224.720 7  92023825.93945  22473160.117                    22473166.918
 11  8 22 17  9  0.0000000  0 11G11G28G01G24G07G03G19G10G08G13G23
 119915604.283 7  93440787.66644  22819182.227                    22819189.957
 121799677.168 7  94908799.66744  23177684.891                    23177693.082
 128565007.434 6 100180577.438 6  24465104.141                    24465117.750
 127657797.273 6  99473589.21842  24292454.242                    24292467.457
 109759053.827 8  85526551.573 7  20886453.141                    20886460.328
 121174580.363 7  94421779.53444  23058759.898                    23058768.738
 112098816.071 7  87349748.78646  21331695.539                    21331701.645
 130947110.010 6 102036735.48042  24918414.180                    24918426.668
 117256816.643 7  91368992.23645  22313227.789                    22313236.152
 109788541.983 8  85549537.74346  20892067.070                    20892074.785
 118202458.630 7  92105826.29745  22493185.703                    22493192.488
 11  8 22 17  9 30.0000000  0 10G11G28G01G24G07G03G19G08G13G23
 119845037.462 7  93385800.56444  22805753.664                    22805762.102
 121755593.709 7  94874448.96144  23169296.156                    23169304.492
 128489100.116 6 100121428.943 6  24450658.906                    24450672.797
 127585828.512 6  99417509.72142  24278759.375                    24278772.395
 109717335.830 8  85494044.045 7  20878514.242                    20878521.578
 121275913.088 7  94500740.03544  23078043.195                    23078051.836
 112149056.735 7  87388897.34846  21341256.555                    21341262.375
 117185011.131 7  91313039.89745  22299564.180                    22299571.734
 109859255.967 8  85604639.49946  20905523.602                    20905531.617
 118307923.171 7  92188006.34145  22513255.047                    22513261.914
 11  8 22 17 10  0.0000000  0 10G11G28G01G24G07G03G19G08G13G23
 119774683.820 7  93330979.58544  22792366.039                    22792374.512
 121711700.603 7  94840246.56244  23160943.633                    23160952.004
 128413118.723 6 100062222.718 6  24436200.180                    24436213.879
 127513801.896 6  99361385.13642  24265053.383                    24265065.672
 109675823.217 8  85461696.557 7  20870614.531                    20870621.387
 121377482.875 7  94579885.27343  23097370.758                    23097378.902
 112199834.042 7  87428464.05046  21350918.992                    21350924.629
 117113228.210 7  91257105.15945  22285904.133                    22285912.094
 109930445.939 8  85660112.15246  20919070.531                    20919077.988
 118413614.501 7  92270363.10745  22533367.305                    22533373.961
 11  8 22 17 10 30.0000000  0 10G11G28G01G24G07G03G19G08G13G23
 119704546.459 7  93276327.13444  22779019.547                    22779027.789
 121667997.016 7  94806191.85744  23152627.523                    23152635.438
 128337065.383 6 100002960.419 6  24421727.742                    24421741.887
 127441719.892 6  99305217.44142  24251336.352                    24251348.707
 109634517.833 8  85429510.539 7  20862754.406                    20862761.457
 121479286.633 7  94659212.81143  23116743.680                    23116751.941
 112251145.797 7  87468447.21046  21360683.305                    21360688.941
 117041469.110 7  91201188.98245  22272248.688                    22272257.004
 110002109.192 8  85715953.59546  20932707.633                    20932715.277
 118519529.272 7  92352893.99045  22553522.750                    22553529.113
 11  8 22 17 11  0.0000000  0 10G11G28G01G24G07G03G19G08G13G23
 119634628.166 7  93221845.38444  22765714.133                    22765722.430
 121624482.011 7  94772284.09944  23144346.406                    23144354.641
 128260942.860 6  99943644.228 6  24407241.906                    24407255.855
 127369585.062 6  99249008.49943  24237609.961                    24237621.992
 109593420.628 8  85397486.743 7  20854933.984                    20854941.066
 121581321.217 7  94738720.23643  23136160.367                    23136168.664
 112302989.729 7  87508845.04246  21370548.969                    21370554.594
 116969734.914 7  91145292.21045  22258597.922                    22258606.492
 110074243.310 8  85772161.94346  20946434.289                    20946442.145
 118625664.379 7  92435596.56845  22573719.109                    22573725.691
 11  8 22 17 11 30.0000000  0 10G11G28G01G24G07G03G19G08G13G23
 119564931.887 7  93167536.64444  22752451.156                    22752458.859
 121581154.927 7  94738522.78644  23136101.305                    23136110.012
 128184753.513 6  99884275.970 6  24392743.680                    24392757.414
 127297400.576 6  99192760.93343  24223872.828                    24223885.605
 109552533.722 8  85365626.817 7  20847153.617                    20847160.602
 121683583.566 7  94818405.11343  23155620.422                    23155628.664
 112355363.753 8  87549655.95546  21380515.367                    21380520.813
 116898027.263 7  91089416.13945  22244952.547                    22244961.281
 110146845.947 8  85828735.37546  20960250.109                    20960258.383
 118732017.031 7  92518468.64844  22593957.617                    22593964.426
 11  8 22 17 12  0.0000000  0 10G11G28G01G24G07G03G19G08G13G23
 119495461.031 7  93113403.56044  22739231.188                    22739239.395
 121538015.213 7  94704907.45944  23127892.148                    23127900.332
 128108500.440 6  99824858.067 6  24378233.031                    24378247.277
 127225169.105 6  99136476.76043  24210128.484                    24210140.055
 109511859.563 8  85333932.667 7  20839413.234                    20839420.461
 121786071.220 7  94898265.57143  23175123.313                    23175132.102
 112408266.413 8  87590878.77446  21390582.031                    21390588.016
 116826348.083 7  91033562.24245  22231312.359                    22231320.805
 110219915.069 8  85885672.30246  20974155.109                    20974162.988
 118838584.267 7  92601507.94144  22614236.250                    22614243.563
 11  8 22 17 12 30.0000000  0 10G11G28G01G24G07G03G19G08G13G23
 119426218.317 7  93059448.23944  22726054.898                    22726062.730
 121495061.823 7  94671437.32444  23119719.086                    23119726.742
 128032186.357 6  99765392.605 6  24363710.828                    24363724.496
 127152893.230 6  99080157.95243  24196373.938                    24196386.691
 109471399.508 8  85302405.349 7  20831714.117                    20831721.387
 121888781.372 7  94978299.37143  23194668.594                    23194676.848
 112461695.222 8  87632511.57646  21400749.953                    21400755.629
 116754698.423 7  90977731.34245  22217678.539                    22217686.203
 110293447.939 8  85942970.60046  20988147.953                    20988155.563
 118945363.038 7  92684712.05644  22634555.617                    22634562.852
 11  8 22 17 13  0.0000000  0 10G11G28G01G24G07G03G19G08G13G23
 119357207.055 7  93005673.27644  22712922.703                    22712930.559
 121452294.333 7  94638112.03344  23111579.492                    23111587.723
 127955813.882 6  99705881.641 6  24349177.727                    24349191.605
 127080576.106 6  99023807.00043  24182612.844                    24182624.863
 109431155.754 8  85271046.584 7  20824055.656                    20824062.781
 121991711.125 7  95058504.30143  23214254.961                    23214263.719
 112515648.412 8  87674552.98846  21411016.352                    21411022.559
 116683080.237 7  90921924.96745  22204049.938                    22204057.543
 110367442.763 8  86000628.85746  21002228.469                    21002236.566
 119052350.703 7  92768078.93244  22654915.141                    22654922.348
 11  8 22 17 13 30.0000000  0 10G11G28G01G24G07G03G19G08G13G23
 119288430.069 7  92952080.86544  22699834.930                    22699842.824
 121409711.761 7  94604930.84444  23103477.133                    23103484.320
 127879385.840 6  99646327.386 6  24334632.805                    24334647.469
 127008220.031 6  98967425.68343  24168844.086                    24168856.102
 109391129.821 8  85239857.542 7  20816439.414                    20816446.199
 122094857.417 7  95138877.96843  23233883.594                    23233892.441
 112570123.286 8  87717000.91546  21421382.773                    21421388.543
 116611494.483 7  90866143.86545  22190427.352                    22190435.152
 110441896.566 8  86058644.75446  21016396.672                    21016404.410
 119159544.384 7  92851606.34844  22675313.813                    22675321.070
 11  8 22 17 14  0.0000000  0 10G11G28G01G24G07G03G19G08G13G23
 119219890.270 7  92898673.27744  22686791.430                    22686799.582
 121367313.180 7  94571893.01944  23095408.516                    23095416.457
 127802904.777 6  99586731.821 6  24320079.828                    24320093.258
 126935827.908 6  98911016.30243  24155067.758                    24155080.109
 109351323.368 8  85208839.530 7  20808864.531                    20808871.434
 122198217.516 6  95219418.20843  23253552.094                    23253560.816
 112625117.989 8  87759853.90346  21431848.203                    21431854.004
 116539942.677 7  90810389.22545  22176811.344                    22176819.879
 110516806.952 8  86117016.42646  21030651.844                    21030659.355
 119266940.856 7  92935291.79144  22695751.156                    22695757.848
 11  8 22 17 14 30.0000000  0 10G11G28G01G24G07G03G19G08G13G23
 119151590.928 7  92845453.04944  22673794.781                    22673802.551
 121325098.193 7  94538998.23744  23087375.648                    23087383.383
 127726373.597 6  99527097.200 6  24305515.891                    24305530.113
 126863402.968 6  98854581.33043  24141286.180                    24141298.516
 109311738.686 8  85177994.312 7  20801331.531                    20801338.926
 122301788.945 6  95300123.15343  23273261.180                    23273270.059
 112680630.951 8  87803110.72846  21442412.164                    21442417.422
 116468426.889 7  90754662.65745  22163202.336                    22163210.367
 110592171.996 8  86175742.38846  21044993.313                    21045001.086
 119374537.066 7  93019132.87944  22716225.523                    22716232.770
 11  8 22 17 15  0.0000000  0 10G11G28G01G24G07G03G19G08G13G23
 119083534.895 7  92792422.42644  22660843.836                    22660852.137
 121283065.753 7  94506245.72844  23079376.773                    23079384.375
 127649794.847 6  99467425.506 6  24290944.320                    24290957.590
 126790947.721 6  98798122.72043  24127498.977                    24127510.605
 109272377.561 8  85147323.305 7  20793841.570                    20793848.527
 122405568.727 6  95380990.44743  23293009.797                    23293018.578
 112736659.226 8  87846769.09346  21453073.945                    21453079.734
 116396947.889 7  90698964.75145  22149600.672                    22149608.414
 110667988.808 8  86234820.37546  21059420.961                    21059428.402
 119482330.477 7  93103127.62345  22736737.719                    22736745.398
 11  8 22 17 15 30.0000000  0 10G11G28G01G24G07G03G19G08G13G23
 119015725.166 7  92739583.73044  22647939.945                    22647948.301
 121241215.185 7  94473634.92544  23071413.086                    23071420.668
 127573171.588 6  99407719.131 6  24276362.906                    24276376.047
 126718464.796 6  98741642.61843  24113705.797                    24113717.145
 109233241.693 8  85116827.823 7  20786394.188                    20786401.121
 122509553.368 6  95462017.39043  23312798.086                    23312806.238
 112793200.799 8  87890827.44246  21463833.461                    21463838.813
 116325507.837 7  90643297.20145  22136006.109                    22136013.430
 110744255.034 8  86294248.55146  21073933.656                    21073941.695
 119590317.828 7  93187273.48844  22757287.672                    22757294.504
 11  8 22 17 16  0.0000000  0 10G11G28G01G24G07G03G19G08G13G23
 118948165.048 7  92686939.51844  22635084.156                    22635092.441
 121199545.576 7  94441165.13044  23063483.258                    23063491.711
 127496506.690 6  99347980.312 6  24261774.109                    24261787.242
 126645957.375 6  98685143.37043  24099908.508                    24099919.754
 109194333.178 8  85086509.501 7  20778990.156                    20778997.148
 122613740.673 6  95543202.22844  23332624.391                    23332632.734
 112850253.709 8  87935284.23246  21474689.680                    21474695.551
 116254108.266 7  90587661.20045  22122419.242                    22122426.680
 110820968.420 8  86354025.16246  21088531.828                    21088539.586
 119698496.474 7  93271568.39944  22777873.273                    22777881.051
 11  8 22 17 16 30.0000000  0 10G11G28G01G24G07G03G19G08G13G23
 118880857.499 7  92634492.11844  22622275.383                    22622284.207
 121158056.373 7  94408835.89844  23055588.344                    23055595.996
 127419803.506 6  99288211.683 6  24247177.531                    24247190.688
 126573428.630 6  98628627.52943  24086105.883                    24086118.715
 109155654.524 8  85056370.283 7  20771629.836                    20771636.906
 122718128.076 7  95624543.01444  23352488.453                    23352497.129
 112907816.122 8  87980138.04046  21485644.039                    21485649.508
 116182750.743 7  90532057.94845  22108839.938                    22108848.094
 110898126.712 8  86414148.45946  21103215.047                    21103222.313
 119806863.714 7  93356010.27044  22798494.930                    22798502.125
 11  8 22 17 17  0.0000000  0 10G11G28G01G24G07G03G19G08G13G23
 118813805.337 7  92582243.70544  22609516.156                    22609524.547
 121116746.742 7  94376646.60544  23047727.242                    23047735.328
 127343063.846 6  99228414.627 6  24232574.586                    24232587.961
 126500880.939 6  98572096.95143  24072300.641                    24072312.465
 109117207.031 8  85026411.184 7  20764313.469                    20764320.777
 122822712.451 6  95706037.25343  23372389.820                    23372398.797
 112965885.176 7  88025386.63446  21496694.000                    21496699.664
 116111436.792 7  90476488.65545  22095269.188                    22095277.805
 110975726.973 8  86474616.14146  21117981.766                    21117989.559
 119915416.174 7  93440596.48744  22819152.023                    22819159.031
 11  8 22 17 17 30.0000000  0 10G11G28G01G24G07G03G19G08G13G23
 118747011.504 7  92530196.59044  22596805.688                    22596814.086
 121075615.512 7  94344596.32344  23039900.219                    23039908.922
 127266290.550 6  99168591.326 6  24217965.023                    24217978.918
 126428316.897 6  98515553.62743  24058491.492                    24058503.762
 109078991.957 8  84996633.208 7  20757041.672                    20757048.598
 122927491.127 6  95787682.88543  23392328.781                    23392337.867
 113024458.729 8  88071028.34246  21507840.281                    21507846.309
 116040167.500 7  90420954.15945  22081707.281                    22081715.586
 111053766.315 8  86535425.96546  21132832.492                    21132839.863
 120024150.661 7  93525324.53344  22839843.430                    22839850.574
 11  8 22 17 18  0.0000000  0 10G11G28G01G24G07G03G19G08G13G23
 118680479.210 7  92478353.27744  22584144.539                    22584152.898
 121034662.152 7  94312684.63844  23032107.031                    23032115.301
 127189487.034 7  99108744.474 6  24203350.391                    24203363.781
 126355739.666 6  98458999.99443  24044680.555                    24044693.008
 109041011.835 8  84967038.304 7  20749814.055                    20749821.211
 123032461.340 6  95869477.76943  23412304.141                    23412313.012
 113083534.859 7  88117061.67345  21519081.586                    21519087.324
 115968945.040 7  90365456.16045  22068153.813                    22068162.418
 111132242.856 8  86596576.46545  21147765.773                    21147773.402
 120133064.660 7  93610192.45544  22860568.992                    22860576.234
 11  8 22 17 18 30.0000000  0 10G11G28G01G24G07G03G19G08G13G23
 118614211.804 7  92426716.36844  22571534.484                    22571542.613
 120993885.932 7  94280910.98445  23024347.438                    23024356.172
 127112655.593 7  99048875.903 6  24188729.859                    24188742.664
 126283152.150 6  98402438.34143  24030868.281                    24030879.672
 109003268.378 8  84937627.812 7  20742631.789                    20742638.867
 123137619.818 7  95951419.36443  23432314.883                    23432324.063
 113143111.039 8  88163484.64745  21530419.219                    21530424.848
 115897770.987 7  90309995.86545  22054609.922                    22054617.789
 111211153.903 8  86658065.54346  21162782.141                    21162790.023
 120242155.061 7  93695197.83344  22881328.805                    22881335.633
 11  8 22 17 19  0.0000000  0 10G11G28G01G24G07G03G19G08G13G23
 118548211.988 7  92375287.96644  22558974.945                    22558983.480
 120953286.178 7  94249274.84544  23016621.922                    23016629.844
 127035799.493 7  98988988.106 6  24174103.570                    24174117.293
 126210557.435 6  98345871.13643  24017052.797                    24017065.563
 108965763.975 8  84908403.598 7  20735494.867                    20735502.020
 123242964.009 6  96033505.67043  23452361.055                    23452370.664
 113203185.216 8  88210295.68346  21541850.617                    21541856.531
 115826647.315 7  90254574.83345  22041075.570                    22041083.730
 111290497.049 8  86719891.30446  21177880.258                    21177888.121
 120351419.106 7  93780338.52144  22902120.734                    22902128.324
 11  8 22 17 19 30.0000000  0 10G11G28G01G24G07G03G19G08G13G23
 118482482.461 7  92324070.19344  22546467.008                    22546475.531
 120912861.673 7  94217775.25544  23008928.555                    23008936.945
 126958921.274 6  98929083.068 6  24159474.227                    24159488.641
 126137958.208 6  98289300.38843  24003237.680                    24003249.738
 108928499.934 8  84879366.669 7  20728403.781                    20728411.156
 123348491.191 7  96115734.55043  23472442.391                    23472452.102
 113263754.746 8  88257492.69746  21553376.695                    21553382.801
 115755575.320 7  90199194.07745  22027550.781                    22027559.332
 111370269.472 8  86782051.57845  21193060.391                    21193068.707
 120460853.650 7  93865612.04644  22922945.703                    22922952.797
 11  8 22 17 20  0.0000000  0 10G11G28G01G24G07G03G19G08G13G23
 118417026.342 7  92273065.44844  22534011.438                    22534019.301
 120872611.713 7  94186411.69544  23001269.789                    23001278.184
 126882024.060 6  98869163.229 6  24144841.078                    24144854.914
 126065357.322 6  98232728.33943  23989422.547                    23989434.820
 108891478.644 8  84850518.899 7  20721358.953                    20721366.047
 123454198.641 6  96198103.90543  23492558.242                    23492566.980
 113324817.225 8  88305073.82946  21564996.523                    21565002.375
 115684556.723 7  90143854.92545  22014036.641                    22014045.094
 111450468.595 8  86844544.34046  21208322.211                    21208329.832
 120570455.843 7  93951016.20544  22943801.891                    22943809.398
 11  8 22 17 20 30.0000000  0 10G11G28G01G24G07G03G19G08G13G23
 118351846.909 7  92222276.31644  22521608.242                    22521616.371
 120832535.315 7  94155183.33744  22993643.391                    22993651.461
 126805110.159 7  98809230.378 6  24130205.109                    24130218.531
 125992757.818 6  98176157.32943  23975606.648                    23975619.309
 108854701.603 8  84821861.449 7  20714360.320                    20714367.348
 123560083.575 6  96280611.55943  23512707.711                    23512716.680
 113386370.667 8  88353037.52946  21576709.836                    21576715.379
 115613593.093 7  90088558.61345  22000532.453                    22000541.043
 111531092.007 8  86907367.72346  21223664.852                    21223672.219
 120680222.892 7  94036548.83144  22964690.234                    22964697.723
 11  8 22 17 21  0.0000000  0 10G11G28G01G24G07G03G19G08G13G23
 118286946.716 7  92171704.76544  22509258.070                    22509266.215
 120792631.605 7  94124089.56844  22986050.164                    22986057.922
 126728182.703 6  98749286.967 6  24115566.352                    24115579.934
 125920162.241 6  98119589.42443  23961792.703                    23961804.953
 108818170.891 8  84793395.952 7  20707408.914                    20707415.645
 123666143.365 7  96363255.45743  23532890.617                    23532899.164
 113448412.620 8  88401381.88646  21588515.914                    21588521.348
 115542686.312 7  90033306.59845  21987039.594                    21987047.973
 111612136.777 8  86970519.43445  21239086.773                    21239094.805
 120790151.444 7  94122207.28444  22985609.508                    22985616.766
 11  8 22 17 21 30.0000000  0 10G11G28G01G24G07G03G19G08G13G23
 118222328.975 7  92121353.30745  22496961.898                    22496969.762
 120752900.277 7  94093130.11644  22978489.203                    22978497.516
 126651244.589 6  98689335.275 6  24100925.500                    24100939.344
 125847573.865 6  98063027.12143  23947979.844                    23947991.121
 108781888.634 8  84765124.054 7  20700504.617                    20700511.559
 123772375.243 6  96446033.50643  23553105.250                    23553113.973
 113510940.894 8  88450105.19946  21600414.563                    21600420.457
 115471837.902 7  89978100.04845  21973557.859                    21973565.980
 111693600.783 8  87033997.82446  21254589.078                    21254596.539
 120900238.631 7  94207989.34744  23006558.164                    23006565.711
 11  8 22 17 22  0.0000000  0 10G11G28G01G24G07G03G19G08G13G23
 118157996.772 7  92071224.35244  22484719.766                    22484727.715
 120713340.156 7  94062304.06644  22970960.984                    22970969.750
 126574298.879 7  98629377.652 6  24086283.313                    24086296.988
 125774995.430 7  98006472.54143  23934168.398                    23934180.617
 108745856.406 8  84737046.981 7  20693647.883                    20693654.707
 123878776.268 6  96528943.32243  23573352.781                    23573361.813
 113573953.159 8  88499205.64445  21612405.539                    21612411.648
 115401049.612 7  89922940.35245  21960087.008                    21960095.102
 111775481.329 8  87097800.79846  21270170.305                    21270177.887
 121010481.744 7  94293892.93444  23027536.922                    23027544.848
 11  8 22 17 22 30.0000000  0 10G11G28G01G24G07G03G19G08G13G23
 118093952.855 7  92021320.04344  22472532.516                    22472540.297
 120673950.172 7  94031610.57144  22963465.570                    22963473.375
 126497347.785 6  98569415.839 6  24071640.047                    24071653.586
 125702429.849 6  97949928.01943  23920359.844                    23920371.496
 108710076.068 8  84709166.200 7  20686838.688                    20686846.133
 123985343.674 6  96611982.76843  23593631.727                    23593640.719
 113637446.717 7  88548681.12546  21624488.297                    21624493.781
 115330323.169 7  89867828.85145  21946628.273                    21946636.590
 111857775.310 7  87161925.91746  21285830.477                    21285838.031
 121120877.854 7  94379915.72144  23048544.273                    23048552.391
 11  8 22 17 23  0.0000000  0 10G11G28G01G24G07G03G19G08G13G23
 118030200.223 7  91971642.70845  22460400.703                    22460408.754
 120634729.700 7  94001049.18744  22956002.094                    22956010.313
 126420395.234 6  98509452.884 7  24056996.219                    24057009.906
 125629880.008 6  97893395.74843  23906553.734                    23906565.324
 108674549.976 8  84681483.528 7  20680078.555                    20680085.863
 124092074.888 6  96695149.86143  23613941.672                    23613951.504
 113701419.198 8  88598529.78346  21636661.734                    21636667.367
 115259660.303 8  89812766.88845  21933181.555                    21933190.125
 111940480.225 8  87226371.25245  21301568.781                    21301576.527
 121231423.891 7  94466055.35844  23069581.195                    23069588.426
 11  8 22 17 23 30.0000000  0 10G11G28G01G24G07G03G19G08G13G23
 117966742.158 7  91922194.90144  22448324.914                    22448333.418
 120595678.065 7  93970619.35744  22948570.938                    22948579.020
 126343443.483 6  98449490.536 6  24042352.875                    24042365.895
 125557349.213 6  97836878.28243  23892751.711                    23892762.902
 108639279.896 8  84654000.341 7  20673367.219                    20673374.066
 124198966.989 6  96778442.35343  23634281.844                    23634291.988
 113765868.250 8  88648749.79445  21648926.188                    21648931.301
 115189062.820 7  89757755.88145  21919747.016                    21919755.367
 112023593.764 7  87291134.98445  21317384.859                    21317392.730
 121342117.017 7  94552309.58644  23090645.531                    23090653.137
 11  8 22 17 24  0.0000000  0 10G11G28G01G24G07G03G19G08G13G23
 117903580.929 7  91872978.40244  22436305.445                    22436313.496
 120556793.663 7  93940319.84345  22941171.836                    22941179.766
 126266494.723 6  98389530.554 7  24027709.398                    24027723.441
 125484839.771 7  97780377.47643  23878953.367                    23878964.695
 108604266.985 8  84626717.554 7  20666704.414                    20666711.535
 124306017.017 6  96861857.83643  23654653.977                    23654663.277
 113830790.857 8  88699338.81945  21661280.297                    21661286.309
 115118532.093 8  89702796.87245  21906326.000                    21906334.176
 112107112.372 7  87356214.36945  21333277.617                    21333285.695
 121452953.963 7  94638675.89144  23111737.195                    23111744.934
 11  8 22 17 24 30.0000000  0 10G11G28G01G24G07G03G19G08G13G23
 117840720.057 7  91823995.95644  22424343.773                    22424352.219
 120518076.273 7  93910150.46144  22933803.977                    22933811.723
 126189552.559 6  98329575.673 7  24013067.641                    24013082.254
 125412354.828 7  97723895.75843  23865159.867                    23865171.531
 108569514.279 8  84599637.516 7  20660091.188                    20660098.293
 124413222.736 6  96945394.66943  23675054.820                    23675064.328
 113896185.326 8  88750295.51046  21673724.047                    21673729.980
 115048070.380 8  89647891.65645  21892917.352                    21892925.395
 112191034.252 7  87421607.98345  21349247.328                    21349255.547
 121563931.983 7  94725152.13044  23132855.781                    23132862.957
 11  8 22 17 25  0.0000000  0 10G11G28G01G24G07G03G19G08G13G23
 117778162.182 7  91775249.58845  22412439.492                    22412447.168
 120479524.636 7  93880110.24745  22926467.586                    22926475.191
 126112619.569 7  98269627.956 7  23998427.836                    23998441.961
 125339897.249 6  97667435.36443  23851371.203                    23851383.273
 108535022.561 8  84572760.848 7  20653527.500                    20653534.383
 124520581.066 6  97029050.46643  23695484.469                    23695494.051
 113962048.555 8  88801617.47445  21686257.828                    21686263.961
 114977679.121 8  89593041.33845  21879522.461                    21879530.242
 112275355.950 7  87487313.15245  21365293.430                    21365301.301
 121675047.879 7  94811735.78344  23154000.625                    23154007.457
 11  8 22 17 25 30.0000000  0 10G11G28G01G24G07G03G19G08G13G23
 117715909.843 7  91726741.33545  22400593.727                    22400601.102
 120441138.186 7  93850198.75144  22919163.172                    22919170.809
 126035699.103 6  98209689.979 6  23983790.391                    23983804.375
 125267469.971 7  97610998.59343  23837589.469                    23837600.996
 108500794.714 8  84546089.789 7  20647013.836                    20647021.180
 124628089.225 6  97112822.96643  23715942.844                    23715952.188
 114028378.765 8  88853303.31745  21698880.070                    21698885.906
 114907360.280 8  89538247.44845  21866141.453                    21866149.285
 112360075.095 8  87553328.01245  21381415.094                    21381422.992
 121786299.135 7  94898424.93143  23175170.570                    23175178.195
 11  8 22 17 26  0.0000000  0 10G11G28G01G24G07G03G19G08G13G23
 117653966.681 7  91678473.98145  22388805.953                    22388813.758
 120402916.045 7  93820415.27544  22911889.477                    22911897.309
 125958793.922 6  98149763.917 6  23969155.578                    23969169.258
 125195075.984 7  97554587.73743  23823812.719                    23823825.160
 108466832.332 8  84519625.588 7  20640551.453                    20640558.836
 124735744.779 6  97196710.33143  23736429.234                    23736438.672
 114095173.394 8  88905351.05045  21711590.711                    21711596.813
 114837115.617 8  89483511.35045  21852774.125                    21852782.129
 112445188.972 8  87619650.46845  21397611.875                    21397620.051
 121897682.444 7  94985216.96744  23196366.906                    23196373.848
 11  8 22 17 26 30.0000000  0 10G11G28G01G24G07G03G19G08G13G23
 117592335.284 7  91630449.57044  22377077.734                    22377085.574
 120364856.836 7  93790758.77245  22904647.531                    22904655.027
 125881906.714 6  98089851.865 6  23954523.867                    23954538.016
 125122718.329 6  97498205.21643  23810043.469                    23810055.492
 108433136.999 8  84493369.486 7  20634139.086                    20634146.398
 124843544.908 7  97280710.35343  23756941.945                    23756952.277
 114162429.388 8  88957758.28245  21724389.242                    21724394.766
 114766946.126 8  89428833.83145  21839421.500                    21839429.363
 112530694.690 8  87686278.23645  21413883.125                    21413891.078
 122009195.052 7  95072109.75444  23217586.430                    23217594.750
 11  8 22 17 27  0.0000000  0 10G11G28G01G24G07G03G19G08G13G23
 117531019.406 7  91582671.01445  22365409.711                    22365417.953
 120326960.495 7  93761229.18444  22897435.945                    22897443.625
 125805041.022 6  98029956.551 6  23939897.445                    23939910.809
 125050400.547 6  97441853.71643  23796282.406                    23796294.027
 108399711.588 8  84467323.701 7  20627779.117                    20627785.723
 124951487.108 6  97364821.12643  23777483.852                    23777493.031
 114230145.221 8  89010523.82646  21737274.797                    21737280.445
 114696854.806 8  89374217.21345  21826083.453                    21826091.043
 112616590.296 8  87753209.82045  21430228.375                    21430236.574
 122120834.492 7  95159101.33844  23238830.859                    23238839.051
 11  8 22 17 27 30.0000000  0 10G11G28G01G24G07G03G19G08G13G23
 117470020.689 7  91535139.58545  22353801.859                    22353810.133
 120289225.653 7  93731825.43145  22890254.422                    22890262.785
 125728199.318 6  97970079.975 6  23925275.031                    23925288.363
 124978124.790 6  97385534.99143  23782528.484                    23782540.723
 108366557.201 8  84441489.099 8  20621470.102                    20621476.918
 125059568.228 6  97449040.11443  23798050.883                    23798060.098
 114298317.572 8  89063645.08945  21750247.641                    21750253.723
 114626843.046 8  89319662.58945  21812760.172                    21812768.238
 112702872.390 8  87820442.55645  21446647.523                    21446655.523
 122232597.453 7  95246189.19244  23260099.430                    23260106.945
 11  8 22 17 28  0.0000000  0 10G11G28G01G24G07G03G19G08G13G23
 117409342.429 7  91487857.88345  22342255.141                    22342263.297
 120251651.207 7  93702546.65144  22883105.203                    22883112.973
 125651384.109 6  97910224.017 6  23910657.422                    23910670.719
 124905894.082 7  97329251.36043  23768783.898                    23768795.176
 108333675.708 8  84415867.150 7  20615212.633                    20615219.734
 125167785.851 6  97533365.46243  23818643.781                    23818653.328
 114366943.806 8  89117120.03945  21763307.086                    21763312.723
 114556912.693 8  89265171.41145  21799452.844                    21799460.969
 112789537.869 8  87887974.02845  21463139.414                    21463147.371
 122344480.637 7  95333370.72844  23281389.648                    23281398.070
 11  8 22 17 28 30.0000000  0 10G11G28G01G24G07G03G19G08G13G23
 117348987.945 7  91440828.45945  22330770.313                    22330777.961
 120214236.805 7  93673392.59445  22875985.055                    22875993.254
 125574599.147 6  97850391.622 6  23896045.133                    23896058.750
 124833712.034 7  97273005.66843  23755047.859                    23755059.383
 108301069.656 8  84390459.824 7  20609007.953                    20609014.602
 125276137.488 6  97617795.25343  23839263.094                    23839271.641
 114436022.034 8  89170947.19546  21776452.125                    21776458.301
 114487065.533 8  89210745.06345  21786161.563                    21786169.512
 112876584.326 8  87955802.37045  21479703.844                    21479712.125
 122456481.471 7  95420643.93644  23302703.258                    23302711.367
 11  8 22 17 29  0.0000000  0 10G11G28G01G24G07G03G19G08G13G23
 117288959.629 7  91394053.18745  22319346.969                    22319355.367
 120176981.071 7  93644362.18545  22868895.641                    22868903.629
 125497846.921 6  97790584.755 6  23881440.383                    23881454.016
 124761581.021 7  97216799.76943  23741321.805                    23741333.324
 108268740.213 8  84365268.041 7  20602855.664                    20602862.906
 125384620.359 6  97702327.28543  23859906.008                    23859915.734
 114505548.959 8  89225123.98546  21789682.664                    21789688.316
 114417303.174 8  89156384.77645  21772886.500                    21772894.301
 112964008.831 8  88023925.29745  21496340.273                    21496348.387
 122568596.766 7  95508006.33044  23324038.172                    23324046.586
 11  8 22 17 29 30.0000000  0 10G11G28G01G24G07G03G19G08G13G23
 117229260.677 7  91347534.56845  22307986.516                    22307994.129
 120139883.162 7  93615454.74645  22861835.539                    22861843.520
 125421130.372 6  97730805.694 6  23866841.711                    23866855.480
 124689504.257 7  97160636.10743  23727606.219                    23727617.594
 108236689.893 8  84340293.749 7  20596757.078                    20596763.824
 125493231.860 6  97786959.57043  23880574.578                    23880584.313
 114575522.631 8  89279648.88545  21802998.055                    21803004.016
 114347627.958 8  89102092.40945  21759627.531                    21759635.469
 113051808.854 8  88092340.83945  21513048.297                    21513056.250
 122680823.999 7  95595455.94544  23345394.711                    23345403.012
 11  8 22 17 30  0.0000000  0 10G11G28G01G24G07G03G19G08G13G23
 117169893.975 7  91301274.83345  22296689.500                    22296696.969
 120102942.407 7  93586669.76945  22854806.305                    22854814.055
 125344453.053 6  97671057.201 6  23852250.359                    23852263.809
 124617484.978 7  97104517.25943  23713900.680                    23713913.066
 108204920.579 8  84315538.420 7  20590711.469                    20590718.063
 125601969.273 6  97871689.91743  23901266.773                    23901276.160
 114645940.355 8  89334519.80845  21816398.492                    21816404.484
 114278041.642 8  89047869.30945  21746385.500                    21746394.059
 113139981.398 8  88161046.65545  21529826.867                    21529835.125
 122793160.103 7  95682990.39344  23366771.461                    23366779.555
 11  8 22 17 30 30.0000000  0 10G11G28G01G24G07G03G19G08G13G23
 117110862.381 7  91255276.23445  22285456.297                    22285463.910
 120066158.082 7  93558006.66944  22847805.773                    22847814.680
 125267817.470 6  97611341.226 6  23837667.227                    23837680.621
 124545526.131 7  97048445.46943  23700207.703                    23700219.676
 108173434.384 8  84291003.715 7  20584719.805                    20584726.902
 125710830.101 6  97956516.45843  23921981.852                    23921991.547
 114716799.769 8  89389734.90045  21829882.313                    21829888.535
 114208546.453 8  88993717.21845  21733161.453                    21733169.367
 113228524.062 8  88230040.87745  21546675.648                    21546683.813
 122905602.212 7  95770607.41344  23388167.688                    23388176.957
 11  8 22 17 31  0.0000000  0 10G11G28G01G24G07G03G19G08G13G23
 117052168.270 7  91209540.60245  22274287.250                    22274294.629
 120029528.840 7  93529464.41245  22840835.961                    22840844.059
 125191226.194 6  97551659.798 6  23823092.094                    23823105.773
 124473630.063 7  96992422.62243  23686525.984                    23686537.859
 108142232.628 8  84266690.644 7  20578782.305                    20578789.059
 125819811.534 6  98041436.96743  23942720.328                    23942730.117
 114788097.763 8  89445291.74146  21843450.328                    21843456.383
 114139143.813 8  88939637.25245  21719954.383                    21719962.520
 113317433.079 8  88299320.56145  21563594.844                    21563603.590
 123018147.264 7  95858304.65444  23409585.539                    23409593.859
 11  8 22 17 31 30.0000000  0 10G11G28G01G24G07G03G19G08G13G23
 116993814.762 7  91164070.36345  22263182.688                    22263190.445
 119993053.747 7  93501042.28545  22833895.313                    22833903.012
 125114682.384 6  97492015.356 6  23808525.563                    23808539.227
 124401800.312 7  96936451.48743  23672857.273                    23672869.332
 108111317.230 8  84242600.700 7  20572899.414                    20572906.203
 125928910.943 6  98126449.42743  23963481.000                    23963491.148
 114859831.869 8  89501188.41146  21857100.711                    21857106.684
 114069835.665 8  88885630.91045  21706765.141                    21706773.551
 113406705.932 8  88368883.75745  21580582.734                    21580591.023
 123130792.303 7  95946079.81343  23431020.750                    23431029.949
 11  8 22 17 32  0.0000000  0 10G11G28G01G24G07G03G19G08G13G23
 116935804.909 7  91118867.90445  22252143.867                    22252151.352
 119956732.198 7  93472739.81145  22826983.305                    22826990.992
 125038189.405 7  97432410.519 6  23793969.789                    23793983.785
 124330039.892 7  96880534.36943  23659201.695                    23659213.406
 108080690.476 8  84218735.673 7  20567071.188                    20567078.453
 126038125.962 6  98211551.96343  23984264.992                    23984273.758
 114931999.412 8  89557422.83145  21870833.891                    21870839.543
 114000623.672 8  88831699.49645  21693594.414                    21693602.777
 113496340.084 8  88438728.47945  21597639.820                    21597647.801
 123243534.506 6  96033930.67743  23452474.906                    23452484.160
 11  8 22 17 32 30.0000000  0 10G11G28G01G24G07G03G19G08G13G23
 116878141.380 7  91073935.30245  22241170.523                    22241178.414
 119920562.889 7  93444555.94245  22820100.563                    22820108.016
 124961749.900 6  97372847.366 7  23779424.039                    23779437.711
 124258351.837 7  96824673.62843  23645559.883                    23645571.684
 108050354.142 8  84195096.968 7  20561298.430                    20561305.445
 126147453.662 6  98296742.30943  24005069.859                    24005078.453
 115004597.883 8  89613993.05345  21884648.586                    21884654.664
 113931509.956 8  88777844.67445  21680442.531                    21680450.984
 113586332.514 7  88508852.39645  21614764.648                    21614772.813
 123356370.618 7  96121854.74143  23473947.898                    23473955.516
 11  8 22 17 33  0.0000000  0 10G11G28G01G24G07G03G19G08G13G23
 116820826.625 7  91029274.48145  22230264.031                    22230272.105
 119884545.130 7  93416490.16945  22813246.766                    22813254.648
 124885366.832 7  97313328.200 6  23764888.453                    23764901.824
 124186738.887 7  96768871.41643  23631932.234                    23631943.820
 108020310.256 8  84171686.134 7  20555581.352                    20555588.359
 126256891.434 6  98382018.44143  24025894.188                    24025904.414
 115077624.440 8  89670896.82745  21898545.031                    21898551.172
 113862496.841 7  88724068.23545  21667309.945                    21667318.266
 113676680.407 8  88579253.27945  21631957.758                    21631965.699
 123469298.107 7  96209850.02043  23495437.430                    23495445.480
 11  8 22 17 33 30.0000000  0 10G11G28G01G24G07G03G19G08G13G23
 116763864.460 7  90984888.39245  22219424.297                    22219432.418
 119848678.194 7  93388541.92145  22806421.539                    22806429.762
 124809043.605 7  97253855.658 6  23750364.414                    23750378.707
 124115204.587 7  96713130.48643  23618319.453                    23618331.098
 107990561.008 8  84148504.896 7  20549920.195                    20549927.406
 126366436.915 6  98467378.47843  24046740.422                    24046749.738
 115151076.965 8  89728132.53845  21912522.883                    21912528.887
 113793585.911 8  88670371.42345  21654196.766                    21654205.020
 113767380.901 7  88649928.92545  21649217.320                    21649225.844
 123582314.350 7  96297914.44043  23516943.969                    23516952.215
 11  8 22 17 34  0.0000000  0 10G11G28G01G24G07G03G19G08G13G23
 116707256.731 7  90940778.48845  22208652.219                    22208660.098
 119812960.811 7  93360710.21245  22799624.484                    22799632.504
 124732782.757 7  97194431.725 6  23735852.859                    23735866.242
 124043751.604 7  96657452.94443  23604722.938                    23604734.012
 107961107.797 8  84125554.340 7  20544315.336                    20544322.215
 126476087.058 6  98552820.08343  24067606.336                    24067615.238
 115224952.269 8  89785697.68545  21926580.859                    21926586.754
 113724779.104 8  88616755.73945  21641103.141                    21641111.098
 113858430.671 7  88720876.72345  21666543.602                    21666551.664
 123695416.020 7  96386045.44044  23538466.297                    23538474.543
 11  8 22 17 34 30.0000000  0 10G11G28G01G24G07G03G19G08G13G23
 116651006.628 7  90896947.25545  22197948.047                    22197956.023
 119777392.292 7  93332994.51845  22792856.508                    22792863.789
 124656587.514 6  97135058.903 6  23721353.406                    23721366.965
 123972383.099 7  96601841.19943  23591141.852                    23591153.621
 107931953.039 8  84102836.334 7  20538767.586                    20538774.551
 126585839.744 6  98638341.60443  24088491.430                    24088500.414
 115299248.203 8  89843590.58445  21940718.750                    21940725.098
 113656078.872 8  88563223.09645  21628030.078                    21628037.898
 113949827.586 8  88792095.02545  21683935.977                    21683943.852
 123808600.385 7  96474240.88144  23560004.688                    23560012.777
 11  8 22 17 35  0.0000000  0 10G11G28G01G24G07G03G19G08G13G23
 116595116.984 7  90853396.90745  22187313.031                    22187320.641
 119741971.613 7  93305394.00945  22786115.477                    22786123.438
 124580460.466 6  97075739.222 6  23706866.758                    23706880.168
 123901102.159 6  96546297.70043  23577576.758                    23577588.535
 107903098.171 8  84080352.021 7  20533276.484                    20533283.852
 126695692.106 6  98723940.81243  24109395.688                    24109404.738
 115373961.723 8  89901808.87245  21954935.992                    21954942.109
 113587487.004 8  88509774.88645  21614977.461                    21614985.281
 114041568.306 8  88863581.23145  21701393.453                    21701401.652
 123921864.325 7  96562498.31644  23581558.070                    23581566.977
 11  8 22 17 35 30.0000000  0 10G11G28G01G24G07G03G19G08G13G23
 116539590.603 7  90810129.60945  22176746.266                    22176753.875
 119706698.039 7  93277908.11845  22779403.055                    22779411.184
 124504405.510 7  97016475.721 6  23692393.734                    23692407.141
 123829911.889 6  96490824.86243  23564030.000                    23564041.594
 107874545.494 8  84058103.175 7  20527842.992                    20527850.098
 126805641.930 6  98809615.93443  24130318.508                    24130327.480
 115449090.625 8  89960350.84745  21969233.133                    21969239.133
 113519005.056 7  88456412.34645  21601945.977                    21601953.453
 114133650.111 7  88935333.20845  21718915.891                    21718924.461
 124035205.289 7  96650815.73944  23603126.359                    23603135.707
 11  8 22 17 36  0.0000000  0 10G11G28G01G24G07G03G19G08G13G23
 116484430.552 7  90767147.75345  22166249.930                    22166257.742
 119671570.713 7  93250536.19745  22772718.781                    22772726.105
 124428424.763 7  96957270.055 6  23677935.367                    23677947.672
 123758815.415 7  96435425.09343  23550500.492                    23550512.293
 107846297.031 8  84036091.381 7  20522467.375                    20522474.773
 126915686.653 6  98895365.01243  24151259.391                    24151268.301
 115524631.919 8  90019214.16045  21983608.031                    21983614.074
 113450635.378 8  88403137.27945  21588935.430                    21588943.340
 114226070.633 7  89007349.12845  21736503.633                    21736511.574
 124148620.652 6  96739191.15144  23624709.000                    23624717.398
 11  8 22 17 36 30.0000000  0  9G11G28G01G24G07G19G08G13G23
 116429639.849 7  90724453.70645  22155823.531                    22155831.547
 119636589.223 7  93223277.91044  22766062.000                    22766069.664
 124352522.770 7  96898125.740 6  23663491.391                    23663504.730
 123687816.113 7  96380101.05843  23536990.383                    23537001.508
 107818355.104 8  84014318.440 8  20517150.492                    20517157.559
 115600583.512 8  90078397.19545  21998061.227                    21998067.133
 113382380.635 8  88349951.77045  21575946.859                    21575955.055
 114318826.672 8  89079626.50345  21754154.195                    21754162.563
 124262107.728 6  96827622.38544  23646304.500                    23646314.156
 11  8 22 17 37  0.0000000  0  9G11G28G01G24G07G19G08G13G23
 116375220.699 7  90682049.19145  22145468.125                    22145475.773
 119601751.872 7  93196131.92544  22759432.578                    22759440.410
 124276701.293 7  96839044.150 6  23649062.430                    23649076.305
 123616916.795 6  96324854.90343  23523498.672                    23523509.652
 107790721.418 8  83992785.695 7  20511891.648                    20511898.852
 115676942.377 8  90137897.57345  22012591.852                    22012598.148
 113314242.561 7  88296857.17545  21562980.586                    21562988.785
 114411915.082 7  89152162.84945  21771868.633                    21771877.219
 124375663.224 6  96916106.94343  23667913.289                    23667922.918
 11  8 22 17 37 30.0000000  0  9G11G28G01G24G07G19G08G13G23
 116321175.658 7  90639936.18045  22135183.617                    22135191.188
 119567057.828 7  93169097.63444  22752830.203                    22752837.590
 124200963.428 7  96780027.705 6  23634650.500                    23634664.074
 123546119.987 7  96269688.65743  23510025.898                    23510037.574
 107763397.271 8  83971494.148 8  20506692.414                    20506699.512
 115753704.983 7  90197712.55145  22027199.313                    22027205.652
 113246222.860 8  88243854.81845  21550036.703                    21550045.164
 114505332.611 7  89224955.65845  21789645.172                    21789654.477
 124489284.007 6  97004642.35743  23689534.484                    23689544.469
 11  8 22 17 38  0.0000000  0  9G11G28G01G24G07G19G08G13G23
 116267507.379 7  90598116.74745  22124970.461                    22124978.391
 119532505.911 7  93142174.07444  22746255.023                    22746263.020
 124125312.055 7  96721078.658 7  23620254.391                    23620268.391
 123475428.845 6  96214604.72343  23496573.719                    23496584.582
 107736384.557 8  83950445.257 7  20501552.281                    20501559.156
 115830869.082 8  90257840.38945  22041883.367                    22041889.094
 113178323.082 8  88190945.90745  21537115.891                    21537124.258
 114599076.444 7  89298002.72445  21807484.133                    21807492.680
 124602967.123 6  97093226.36843  23711169.039                    23711177.504
 11  8 22 17 38 30.0000000  0  9G11G28G01G24G07G19G08G13G23
 116214218.684 7  90556593.10345  22114829.875                    22114838.164
 119498094.895 7  93115360.31444  22739707.117                    22739715.105
 124049750.040 7  96662199.248 6  23605875.195                    23605888.738
 123404846.365 6  96159605.42343  23483141.945                    23483153.180
 107709685.057 8  83929640.439 8  20496471.391                    20496478.602
 115908431.956 8  90318278.95745  22056642.938                    22056648.676
 113110545.464 8  88138132.18246  21524218.492                    21524226.621
 114693143.409 7  89371301.57445  21825384.727                    21825392.871
 124716709.376 6  97181856.44243  23732813.430                    23732823.086
 11  8 22 17 39  0.0000000  0  9G11G28G01G24G07G19G08G13G23
 116161312.516 7  90515367.53645  22104762.328                    22104770.277
 119463824.473 7  93088656.11245  22733185.563                    22733193.578
 123974280.937 7  96603392.224 6  23591514.094                    23591527.000
 123334375.809 6  96104693.37643  23469732.063                    23469743.445
 107683301.040 8  83909081.454 7  20491450.563                    20491457.609
 115986390.531 7  90379025.87045  22071478.305                    22071484.289
 113042892.458 8  88085415.56246  21511344.664                    21511352.426
 114787530.714 7  89444850.05045  21843345.922                    21843354.668
 124830508.775 7  97270531.07443  23754468.961                    23754478.039
 11  8 22 17 39 30.0000000  0  9G11G28G01G24G07G19G08G13G23
 116108790.915 7  90474441.62145  22094767.742                    22094775.699
 119429693.030 7  93062060.19944  22726690.641                    22726698.719
 123898906.930 7  96544659.312 6  23577170.750                    23577183.836
 123264019.822 7  96049870.58343  23456343.906                    23456354.789
 107657233.947 8  83888769.421 8  20486490.172                    20486497.465
 116064742.456 7  90440079.27545  22086388.117                    22086393.773
 112975365.566 8  88032797.20846  21498494.617                    21498502.344
 114882235.187 7  89518645.66945  21861367.867                    21861375.824
 124944361.618 7  97359247.37043  23776134.609                    23776143.516
 11  8 22 17 40  0.0000000  0  9G11G28G01G24G07G19G08G13G23
 116056656.694 7  90433817.55945  22084847.078                    22084854.699
 119395699.935 7  93035572.09245  22720222.211                    22720230.465
 123823631.848 7  96486003.481 6  23562846.164                    23562858.477
 123193781.752 7  95995139.68443  23442978.063                    23442988.938
 107631486.046 8  83868706.113 7  20481590.461                    20481597.621
 116143484.893 7  90501436.97545  22101372.070                    22101378.324
 112907967.013 8  87980278.85246  21485669.039                    21485676.813
 114977254.015 7  89592686.23845  21879449.188                    21879457.273
 125058265.459 7  97448003.43943  23797810.047                    23797818.605
 11  8 22 17 40 30.0000000  0  9G11G28G01G24G07G19G08G13G23
 116004912.991 7  90393497.80145  22075000.961                    22075008.195
 119361844.359 7  93009191.15145  22713779.578                    22713787.598
 123748458.446 7  96427426.879 6  23548541.352                    23548554.160
 123123664.769 7  95940503.14244  23429635.586                    23429646.793
 107606059.268 8  83848893.023 7  20476752.000                    20476759.449
 116222615.160 7  90563096.87045  22116430.742                    22116436.215
 112840699.035 8  87927862.23945  21472868.500                    21472876.348
 115072584.185 7  89666969.40845  21897590.000                    21897598.250
 125172217.470 7  97536797.03543  23819493.953                    23819502.418
 11  8 22 17 41  0.0000000  0 10G11G28G01G24G17G07G19G08G13G23
 115953562.097 7  90353484.14445  22065228.633                    22065236.332
 119328125.429 7  92982916.68545  22707363.273                    22707371.027
 123673389.699 7  96368931.810 6  23534255.906                    23534268.648
 123053671.868 7  95885963.28443  23416315.609                    23416327.133
 129475421.36017 100889976.43615  24638356.984
 107580955.398 8  83829331.562 7  20471974.906                    20471982.297
 116302130.245 7  90625056.64145  22131561.547                    22131567.031
 112773563.877 8  87875549.13046  21460092.758                    21460101.090
 115168222.554 7  89741492.74345  21915789.141                    21915798.348
 125286214.561 6  97625625.74743  23841186.945                    23841195.398
 11  8 22 17 41 30.0000000  0 10G11G28G01G24G17G07G19G08G13G23
 115902606.762 7  90313778.69945  22055532.328                    22055540.105
 119294541.459 7  92956747.38045  22700972.453                    22700980.086
 123598428.231 7  96310520.340 6  23519992.055                    23520003.988
 122983805.618 7  95831522.13043  23403020.641                    23403031.809
 129370865.687 7 100808504.629 5  24618460.727
 107556175.706 8  83810022.700 8  20467259.555                    20467266.273
 116382027.280 7  90687314.03045  22146765.500                    22146771.465
 112706562.903 8  87823340.57946  21447343.195                    21447351.359
 115264165.925 7  89816253.73445  21934046.836                    21934055.699
 125400253.431 6  97714486.99043  23862888.023                    23862896.992
 11  8 22 17 42  0.0000000  0 10G11G28G01G24G17G07G19G08G13G23
 115852049.340 7  90274383.30945  22045911.680                    22045919.324
 119261092.136 7  92930682.98945  22694607.031                    22694614.676
 123523577.652 7  96252195.291 7  23505747.523                    23505760.465
 122914069.692 6  95777182.54843  23389750.500                    23389761.012
 129266410.749 7 100727111.310 6  24598582.852                    24598595.367
 107531722.820 8  83790968.488 8  20462606.258                    20462613.250
 116462303.738 7  90749867.06745  22162041.398                    22162047.832
 112639698.896 8  87771238.76146  21434619.359                    21434627.375
 115360411.872 7  89891250.49045  21952361.797                    21952370.449
 125514331.808 6  97803378.95043  23884596.148                    23884606.156
 11  8 22 17 42 30.0000000  0 10G11G28G01G24G17G07G19G08G13G23
 115801892.920 8  90235300.39045  22036367.398                    22036374.918
 119227776.593 7  92904722.84445  22688268.063                    22688275.426
 123448840.897 7  96193958.938 6  23491525.813                    23491538.508
 122844467.395 7  95722947.07143  23376505.531                    23376516.305
 129162058.815 7 100645798.264 6  24578725.477                    24578737.430
 107507598.853 8  83772170.575 7  20458015.406                    20458022.754
 116542957.062 7  90812713.74745  22177389.188                    22177395.684
 112572973.981 8  87719245.31345  21421921.922                    21421930.340
 115456957.440 7  89966480.72145  21970733.922                    21970742.285
 125628447.236 6  97892299.75343  23906311.813                    23906322.063
 11  8 22 17 43  0.0000000  0 10G11G28G01G24G17G07G19G08G13G23
 115752140.083 8  90196531.95545  22026899.422                    22026906.914
 119194594.028 7  92878866.32145  22681953.219                    22681961.145
 123374221.422 7  96135813.980 6  23477326.375                    23477339.129
 122775001.774 7  95668818.08243  23363286.523                    23363297.195
 129057811.873 6 100564567.029 6  24558887.875                    24558899.801
 107483805.482 8  83753630.277 7  20453487.820                    20453494.883
 116623984.552 7  90875851.99245  22192808.234                    22192814.844
 112506390.152 8  87667361.81045  21409251.453                    21409259.742
 115553799.656 7  90041942.10645  21989162.594                    21989171.016
 125742596.903 6  97981247.25843  23928035.133                    23928044.785
 11  8 22 17 43 30.0000000  0 10G11G28G01G24G17G07G19G08G13G23
 115702793.324 8  90158079.94345  22017509.063                    22017516.699
 119161543.077 7  92853112.36945  22675663.375                    22675671.477
 123299721.869 7  96077762.464 6  23463149.000                    23463161.945
 122705675.409 6  95614797.61743  23350093.836                    23350105.273
 128953671.714 6 100483419.014 6  24539070.484                    24539082.320
 107460344.004 8  83735348.590 7  20449023.680                    20449030.531
 116705382.972 7  90939279.29445  22208298.016                    22208304.102
 112439949.558 7  87615589.91846  21396608.148                    21396616.230
 115650934.991 7  90117631.89545  22007646.773                    22007655.504
 125856777.398 6  98070218.78944  23949763.305                    23949772.723
 11  8 22 17 44  0.0000000  0 10G11G28G01G24G17G07G19G08G13G23
 115653855.222 8  90119946.36845  22008196.523                    22008204.582
 119128623.112 7  92827460.46645  22669399.266                    22669406.832
 123225345.237 7  96019806.736 7  23448995.430                    23449008.719
 122636491.488 7  95560888.16843  23336928.734                    23336939.957
 128849640.630 6 100402355.970 6  24519274.102                    24519285.309
 107437216.732 8  83717327.331 7  20444622.453                    20444629.531
 116787149.827 7  91002993.69045  22223857.977                    22223863.723
 112373654.547 8  87563931.47745  21383992.727                    21384000.695
 115748360.652 7  90193547.91045  22026186.320                    22026194.934
 125970986.232 7  98159212.43644  23971496.313                    23971506.297
 11  8 22 17 44 30.0000000  0 10G11G28G01G24G17G07G19G08G13G23
 115605328.439 8  90082133.29545  21998962.070                    21998970.430
 119095833.012 7  92801909.77845  22663159.578                    22663167.180
 123151094.768 7  95961949.320 6  23434865.766                    23434879.012
 122567453.259 7  95507092.26043  23323791.055                    23323802.145
 128745720.906 6 100321379.722 6  24499498.258                    24499510.930
 107414425.530 8  83699567.942 7  20440285.227                    20440292.523
 116869282.404 7  91066993.06045  22239486.852                    22239493.230
 112307507.328 8  87512388.19546  21371405.664                    21371413.605
 115846073.892 7  90269688.00445  22044780.445                    22044789.012
 126085220.535 7  98248225.91744  23993234.297                    23993244.379
 11  8 22 17 45  0.0000000  0 10G11G28G01G24G17G07G19G08G13G23
 115557216.463 7  90044643.43945  21989806.516                    21989814.629
 119063172.544 7  92776460.08345  22656944.180                    22656952.078
 123076974.328 7  95904193.233 7  23420761.211                    23420774.238
 122498564.634 6  95453412.92043  23310681.930                    23310693.000
 128641915.294 6 100240492.415 6  24479744.422                    24479757.191
 107391973.510 8  83682072.845 8  20436012.609                    20436020.230
 116951778.299 7  91131275.52845  22255185.523                    22255192.129
 112241510.346 7  87460961.97845  21358846.688                    21358854.500
 115944072.232 7  90346050.25945  22063429.672                    22063437.547
 126199478.363 7  98337257.71244  24014977.313                    24014986.953
 11  8 22 17 45 30.0000000  0 10G11G28G01G24G17G07G19G08G13G23
 115509521.188 8  90007478.30145  21980730.813                    21980738.906
 119030640.522 7  92751110.47245  22650753.398                    22650761.473
 123002986.207 7  95846540.247 7  23406681.906                    23406694.938
 122429828.130 7  95399852.10543  23297601.602                    23297612.531
 128538225.422 6 100159695.293 6  24460012.984                    24460024.988
 107369861.679 8  83664842.836 7  20431804.898                    20431812.141
 117034634.523 7  91195838.76545  22270952.672                    22270959.633
 112175665.514 8  87409654.32446  21346316.641                    21346324.844
 116042352.031 8  90422631.85145  22082131.086                    22082139.977
 126313756.145 7  98426305.06644  24036724.391                    24036734.191
 11  8 22 17 46  0.0000000  0 10G11G28G01G24G17G07G19G08G13G23
 115462244.292 8  89970639.16145  21971734.203                    21971741.652
 118998234.983 7  92725859.41845  22644586.703                    22644594.707
 122929133.411 7  95788992.711 7  23392627.648                    23392641.371
 122361245.982 6  95346411.57443  23284550.797                    23284561.980
 128434652.461 6 100078989.281 6  24440303.656                    24440316.063
 107348090.831 8  83647878.522 8  20427662.047                    20427669.262
 117117847.727 7  91260680.17645  22286788.094                    22286793.695
 112109974.858 8  87358466.81246  21333815.930                    21333824.336
 116140909.545 7  90499429.82545  22100886.109                    22100894.914
 126428050.515 7  98515365.36643  24058474.320                    24058483.840
 11  8 22 17 46 30.0000000  0 10G11G28G01G24G17G07G19G08G13G23
 115415388.897 8  89934128.46945  21962817.773                    21962825.766
 118965955.367 7  92700706.49045  22638444.297                    22638451.922
 122855419.109 7  95731553.104 6  23378600.852                    23378613.742
 122292822.097 7  95293094.37343  23271530.094                    23271540.477
 128331199.382 6  99998376.709 6  24420616.414                    24420629.293
 107326663.702 8  83631182.044 7  20423584.727                    20423592.410
 117201415.391 7  91325797.80445  22302690.180                    22302696.418
 112044441.088 8  87307401.54946  21321345.320                    21321353.816
 116239742.699 7  90576442.58445  22119693.617                    22119702.223
 126542359.517 6  98604437.03043  24080226.000                    24080236.117
 11  8 22 17 47  0.0000000  0 10G11G28G01G24G17G07G19G08G13G23
 115368957.485 8  89897948.14445  21953982.445                    21953989.836
 118933801.389 7  92675651.46045  22632325.641                    22632333.188
 122781846.377 7  95674223.807 7  23364600.141                    23364613.270
 122224559.407 7  95239902.77344  23258539.703                    23258550.676
 128227868.243 6  99917859.132 6  24400953.141                    24400965.773
 107305582.032 8  83614754.752 8  20419573.023                    20419580.379
 117285334.736 7  91391189.46145  22318659.477                    22318665.414
 111979065.852 8  87256459.80546  21308904.664                    21308912.957
 116338848.055 7  90653667.44545  22138552.898                    22138561.477
 126656679.897 6  98693517.60743  24101980.164                    24101990.410
 11  8 22 17 47 30.0000000  0 10G11G28G01G24G17G07G19G08G13G23
 115322952.683 8  89862100.24645  21945227.938                    21945235.609
 118901771.509 7  92650693.12045  22626230.633                    22626238.195
 122708418.280 7  95617007.211 6  23350627.164                    23350640.301
 122156461.091 6  95186839.26544  23245581.000                    23245592.473
 128124660.672 6  99837437.826 6  24381313.094                    24381325.359
 107284847.592 8  83598598.035 8  20415627.445                    20415635.051
 117369602.904 7  91456852.92145  22334695.336                    22334701.164
 111913851.498 8  87205643.42846  21296495.133                    21296503.371
 116438222.720 7  90731102.16544  22157463.117                    22157471.645
 126771009.166 6  98782605.05642  24123736.461                    24123746.949
 11  8 22 17 48  0.0000000  0 10G11G28G01G24G17G07G19G08G13G23
 115277376.964 8  89826586.69245  21936555.219                    21936563.328
 118869864.897 7  92625830.84845  22620158.813                    22620166.402
 122635137.652 7  95559905.517 6  23336682.742                    23336695.117
 122088530.016 6  95133906.05043  23232654.563                    23232665.516
 128021578.916 6  99757114.540 6  24361697.680                    24361709.723
 107264462.288 8  83582713.365 7  20411748.484                    20411755.469
 117454217.138 7  91522786.04245  22350796.859                    22350802.844
 111848800.324 8  87154954.20746  21284116.188                    21284125.008
 116537863.431 8  90808744.17745  22176424.594                    22176433.254
 126885344.424 6  98871697.18243  24145494.391                    24145504.602
 11  8 22 17 48 30.0000000  0 10G11G28G01G24G17G07G19G08G13G23
 115232233.035 8  89791409.60345  21927964.344                    21927972.512
 118838081.064 7  92601064.22945  22614110.703                    22614118.852
 122562008.096 7  95502921.561 6  23322766.250                    23322778.699
 122020769.863 7  95081106.03744  23219759.836                    23219771.000
 127918625.675 7  99676891.384 6  24342106.391                    24342117.766
 107244428.403 8  83567102.521 8  20407935.984                    20407943.266
 117539174.841 7  91588986.80545  22366963.633                    22366969.926
 111783914.838 8  87104394.08946  21271768.766                    21271776.938
 116637767.729 7  90886591.59345  22195435.734                    22195444.367
 126999683.186 6  98960792.01143  24167252.555                    24167262.668
 11  8 22 17 49  0.0000000  0 10G11G28G01G24G17G07G19G08G13G23
 115187522.764 8  89756570.43645  21919456.172                    21919463.934
 118806418.317 7  92576391.96645  22608085.164                    22608093.207
 122489032.016 7  95446057.188 7  23308879.680                    23308891.621
 121953182.922 6  95028440.98244  23206898.383                    23206909.898
 127815802.288 6  99596769.410 6  24322539.898                    24322551.750
 107224746.805 8  83551766.202 8  20404190.508                    20404198.203
 117624472.674 7  91655452.60145  22383195.297                    22383201.789
 111719196.216 8  87053963.99946  21259453.281                    21259461.867
 116737931.716 7  90964641.35244  22214496.188                    22214505.082
 127114022.148 6  99049887.01343  24189010.961                    24189021.246
 11  8 22 17 49 30.0000000  0 10G11G28G01G24G17G07G19G08G13G23
 115143249.244 8  89722071.59245  21911031.586                    21911038.875
 118774876.349 7  92551813.82745  22602083.156                    22602090.797
 122416213.207 7  95389315.364 7  23295021.969                    23295035.094
 121885772.922 7  94975913.80244  23194070.758                    23194082.016
 127713111.467 6  99516750.743 6  24302998.484                    24303010.375
 107205420.307 8  83536706.582 8  20400512.898                    20400520.234
 117710108.544 7  91722181.80645  22399491.492                    22399497.574
 111654647.759 8  87003666.51246  21247170.031                    21247178.891
 116838353.421 7  91042891.91945  22233605.727                    22233614.574
 127228359.147 6  99138980.48843  24210769.094                    24210778.641
 11  8 22 17 50  0.0000000  0 10G11G28G01G24G17G07G19G08G13G23
 115099414.693 8  89687914.81345  21902690.055                    21902697.746
 118743454.004 7  92527328.89945  22596103.656                    22596111.445
 122343554.619 7  95332698.354 7  23281195.594                    23281208.414
 121818542.771 7  94923526.78244  23181276.906                    23181288.074
 127610554.766 6  99436836.584 6  24283481.898                    24283494.445
 107186450.506 8  83521924.899 8  20396903.070                    20396910.617
 117796079.179 7  91789171.86645  22415851.055                    22415857.398
 111590271.788 8  86953503.42146  21234920.109                    21234928.000
 116939029.099 7  91121340.41045  22252764.172                    22252772.422
 127342691.460 6  99228070.28743  24232525.586                    24232536.203
 11  8 22 17 50 30.0000000  0 10G11G28G01G24G17G07G19G08G13G23
 115056020.943 8  89654101.51245  21894432.320                    21894440.055
 118712150.196 7  92502936.34445  22590146.344                    22590154.066
 122271058.673 7  95276208.093 7  23267400.156                    23267413.285
 121751495.257 7  94871282.07343  23168517.906                    23168529.324
 127508134.247 7  99357028.540 6  24263991.930                    24264004.152
 107167838.457 8  83507421.986 8  20393361.672                    20393368.797
 117882381.577 7  91856420.45645  22432274.133                    22432280.418
 111526069.773 8  86903475.88846  21222702.977                    21222710.914
 117039955.563 7  91199984.30545  22271969.609                    22271978.621
 127457015.668 6  99317153.77143  24254280.992                    24254291.598
 11  8 22 17 51  0.0000000  0 10G11G28G01G24G17G07G19G08G13G23
 115013070.881 8  89620633.93845  21886259.258                    21886267.188
 118680963.953 7  92478635.40645  22584211.742                    22584219.914
 122198728.885 7  95219847.318 7  23253635.555                    23253648.852
 121684633.811 7  94819182.31344  23155795.711                    23155805.910
 127405851.713 7  99277327.984 6  24244527.648                    24244540.078
 107149586.538 8  83493199.697 7  20389888.563                    20389895.391
 117969013.144 7  91923925.52045  22448759.547                    22448765.605
 111462044.434 8  86853586.01346  21210519.023                    21210526.895
 117141129.561 7  91278821.07745  22291222.508                    22291231.891
 127571329.237 6  99406228.96943  24276034.383                    24276045.289
 11  8 22 17 51 30.0000000  0 10G11G28G01G24G17G07G19G08G13G23
 114970566.894 8  89587513.96145  21878170.836                    21878178.953
 118649894.471 7  92454425.42745  22578299.430                    22578307.512
 122126568.227 7  95163618.313 7  23239904.148                    23239916.531
 121617961.400 7  94767229.87444  23143107.906                    23143118.699
 127303709.926 6  99197737.093 5  24225091.008                    24225102.762
 107131696.598 8  83479259.468 8  20386484.195                    20386491.164
 118055970.912 7  91991684.78245  22465306.773                    22465312.797
 111398198.139 8  86803835.66046  21198369.313                    21198377.570
 117242548.471 7  91357848.70645  22310522.047                    22310531.512
 127685629.525 6  99495293.80243  24297784.648                    24297796.242
 11  8 22 17 52  0.0000000  0 10G11G28G01G24G17G07G19G08G13G23
 114928511.207 8  89554743.31445  21870167.805                    21870175.730
 118618940.744 7  92430305.64845  22572409.266                    22572417.238
 122054579.900 7  95107523.586 7  23226205.836                    23226217.805
 121551481.022 7  94715427.05244  23130456.859                    23130467.402
 127201710.460 6  99118257.156 6  24205681.242                    24205693.152
 107114170.191 8  83465602.515 8  20383149.039                    20383156.402
 118143252.104 7  92059696.06845  22481915.938                    22481922.203
 111334532.943 8  86754226.42546  21186254.086                    21186262.734
 117344209.327 8  91437064.84645  22329867.320                    22329876.746
 127799913.966 6  99584346.30543  24319533.805                    24319543.734
 11  8 22 17 52 30.0000000  0 10G11G28G01G24G17G07G19G08G13G23
 114886906.438 8  89522324.01545  21862250.969                    21862258.848
 118588102.162 7  92406275.61245  22566540.977                    22566548.746
 121982767.164 7  95051565.678 7  23212539.375                    23212552.742
 121485196.095 7  94663776.53944  23117843.008                    23117854.043
 127099855.682 6  99038889.950 6  24186298.578                    24186311.016
 107097009.660 8  83452230.669 8  20379883.313                    20379890.805
 118230854.047 7  92127957.27745  22498586.023                    22498592.609
 111271051.722 7  86704760.55646  21174174.273                    21174182.508
 117446109.079 7  91516467.15145  22349258.367                    22349267.371
 127914179.888 6  99673384.34742  24341276.906                    24341288.512
 11  8 22 17 53  0.0000000  0 10G11G28G01G24G17G07G19G08G13G23
 114845754.830 8  89490257.83745  21854419.773                    21854427.770
 118557377.391 7  92382334.25445  22560694.313                    22560701.445
 121911132.816 7  94995746.763 7  23198908.070                    23198920.879
 121419109.554 6  94612280.58544  23105267.297                    23105278.445
 126998147.487 6  98959637.001 6  24166944.180                    24166956.512
 107080216.393 8  83439144.999 8  20376687.891                    20376695.152
 118318773.736 7  92196466.09045  22515316.570                    22515323.230
 111207756.417 7  86655439.54946  21162129.617                    21162137.563
 117548244.377 7  91596053.00344  22368694.234                    22368703.199
 128028424.529 5  99762405.80642  24363017.414                    24363028.715
 11  8 22 17 53 30.0000000  0 10G11G28G01G24G17G07G19G08G13G23
 114805057.786 8  89458545.87745  21846675.555                    21846683.945
 118526764.706 7  92358480.23545  22554868.992                    22554876.512
 121839679.431 7  94940068.862 7  23185311.070                    23185323.629
 121353223.625 7  94560940.95844  23092729.359                    23092740.402
 126896587.242 7  98880499.318 6  24147618.102                    24147630.148
 107063790.961 8  83426345.954 8  20373561.594                    20373568.973
 118407007.757 7  92265219.81945  22532106.844                    22532113.875
 111144648.303 8  86606264.39646  21150120.094                    21150128.555
 117650611.452 7  91675819.44845  22388174.000                    22388183.438
 128142644.652 5  99851408.12242  24384753.180                    24384764.609
 11  8 22 17 54  0.0000000  0 10G11G28G01G24G17G07G19G08G13G23
 114764818.025 8  89427190.23345  21839018.063                    21839025.684
 118496263.755 7  92334713.28445  22549064.695                    22549072.418
 121768410.325 7  94884534.530 7  23171748.867                    23171761.648
 121287541.824 7  94509760.37644  23080230.766                    23080241.387
 126795177.290 7  98801478.739 6  24128320.359                    24128331.555
 107047735.757 8  83413835.400 8  20370506.945                    20370514.254
 118495553.558 7  92334216.49445  22548956.734                    22548963.637
 111081730.180 7  86557237.29246  21138147.727                    21138155.449
 117753207.546 7  91755764.34644  22407697.297                    22407706.398
 128256837.581 6  99940389.34942  24406483.453                    24406494.391
 11  8 22 17 54 30.0000000  0 10G11G28G01G24G17G07G19G08G13G23
 114725038.407 8  89396193.14445  21831448.586                    21831456.398
 118465874.106 7  92311033.05045  22543282.281                    22543289.594
 121697328.944 7  94829146.491 7  23158222.656                    23158234.715
 121222067.870 7  94458741.75844  23067771.320                    23067782.125
 126693920.169 6  98722577.243 6  24109050.930                    24109062.676
 107032053.453 8  83401615.414 8  20367522.586                    20367529.945
 118584408.760 7  92403454.25745  22565865.297                    22565871.766
 111019004.953 8  86508360.49946  21126211.500                    21126219.516
 117856030.383 7  91835885.93644  22427264.102                    22427273.078
 128371001.054 6 100029347.58942  24428208.656                    24428219.574
 11  8 22 17 55  0.0000000  0 10G11G28G01G24G17G07G19G08G13G23
 114685721.447 8  89365556.56845  21823966.773                    21823974.551
 118435594.869 7  92287438.85345  22537520.086                    22537527.340
 121626438.724 7  94773907.410 7  23144732.414                    23144744.797
 121156804.777 6  94407887.43343  23055351.656                    23055362.590
 126592817.847 6  98643796.369 6  24089812.055                    24089823.434
 107016745.863 8  83389687.418 8  20364609.734                    20364617.137
 118673570.746 7  92472931.07745  22582832.305                    22582839.008
 110956475.335 7  86459636.13046  21114312.438                    21114320.160
 117959076.840 7  91916181.76544  22446873.078                    22446882.371
 128485132.430 6 100118280.79643  24449927.180                    24449938.711
 11  8 22 17 55 30.0000000  0  9G11G28G01G24G17G07G19G08G13
 114646869.635 8  89335282.44945  21816573.320                    21816581.277
 118405425.583 7  92263930.33845  22531779.023                    22531786.207
 121555742.999 7  94718819.852 7  23131279.539                    23131291.781
 121091755.955 7  94357200.08744  23042974.063                    23042984.523
 126491873.125 6  98565138.288 6  24070601.984                    24070614.160
 107001815.109 8  83378053.049 8  20361768.461                    20361775.859
 118763037.155 7  92542645.11245  22599857.453                    22599863.727
 110894144.178 7  86411066.40146  21102451.211                    21102459.414
 118062344.047 7  91996649.60744  22466524.703                    22466533.227
 11  8 22 17 56  0.0000000  0  9G11G28G01G24G17G07G19G08G13
 114608484.702 7  89305372.12645  21809268.750                    21809276.570
 118375364.494 7  92240506.12145  22526058.664                    22526066.332
 121485244.200 7  94663885.735 7  23117864.117                    23117876.512
 121026924.046 7  94306681.76444  23030636.664                    23030647.109
 126391087.292 7  98486604.002 6  24051423.625                    24051434.809
 106987262.219 8  83366713.116 8  20358999.070                    20359006.195
 118852804.302 7  92612593.50245  22616939.344                    22616946.395
 110832012.755 8  86362652.30646  21090627.836                    21090636.340
 118165828.204 7  92077286.50544  22486216.633                    22486225.574
 11  8 22 17 56 30.0000000  0  9G11G28G01G24G17G07G19G08G13
 114570568.425 7  89275826.99845  21802053.938                    21802061.508
 118345410.443 7  92217165.32745  22520358.320                    22520366.113
 121414945.023 7  94609107.181 7  23104486.719                    23104498.969
 120962311.645 7  94256334.48144  23018341.680                    23018351.926
 126290461.689 7  98408194.588 6  24032274.844                    24032286.879
 106973088.231 8  83355668.437 7  20356302.063                    20356309.324
 118942868.935 7  92682773.67645  22634077.625                    22634085.133
 110770083.136 8  86314395.46146  21078843.297                    21078851.035
 118269526.296 7  92158090.10244  22505949.906                    22505958.711
 11  8 22 17 57  0.0000000  0  9G11G28G01G24G17G07G19G08G13
 114533122.881 7  89246648.68345  21794927.953                    21794935.770
 118315562.710 7  92193907.36545  22514678.711                    22514686.422
 121344848.740 7  94554486.733 7  23091147.898                    23091160.121
 120897921.834 6  94206160.64344  23006088.180                    23006098.348
 126189998.604 6  98329911.779 6  24013157.227                    24013169.043
 106959295.332 8  83344920.720 8  20353676.953                    20353684.313
 119033228.452 7  92753183.62645  22651272.648                    22651279.730
 110708357.677 8  86266297.69746  21067097.109                    21067104.996
 118373435.007 7  92239057.83044  22525723.445                    22525732.496
 11  8 22 17 57 30.0000000  0 10G11G28G01G24G17G26G07G19G08G13
 114496150.113 8  89217838.75445  21787892.344                    21787900.445
 118285819.850 7  92170731.12945  22509018.625                    22509026.398
 121274958.270 7  94500026.653 7  23077848.047                    23077860.375
 120833757.659 7  94156162.63544  22993878.344                    22993888.980
 126089699.888 6  98251757.061 6  23994070.969                    23994082.582
 127499555.86515  99350358.78652  24262361.156                    24262372.691
 106945884.680 8  83334470.838 8  20351125.234                    20351132.277
 119123879.783 7  92823820.97345  22668523.609                    22668530.273
 110646838.459 8  86218360.65046  21055390.672                    21055398.605
 118477551.032 7  92320187.08444  22545536.273                    22545545.066
 11  8 22 17 58  0.0000000  0 10G11G28G01G24G17G26G07G19G08G13
 114459652.535 8  89189399.10645  21780947.398                    21780954.945
 118256181.512 7  92147636.34545  22503378.664                    22503386.344
 121205276.607 7  94445729.273 7  23064587.891                    23064600.688
 120769822.370 6  94106342.97043  22981711.523                    22981722.074
 125989567.497 6  98173731.936 6  23975016.938                    23975027.816
 127411944.101 5  99282090.00143  24245689.664                    24245699.922
 106932858.480 8  83324320.536 8  20348646.719                    20348653.461
 119214820.254 7  92894683.61745  22685828.852                    22685835.559
 110585528.362 8  86170586.54546  21043723.852                    21043732.027
 118581871.802 7  92401475.89044  22565387.859                    22565396.660
 11  8 22 17 58 30.0000000  0 10G11G28G01G24G17G26G07G19G08G13
 114423632.651 8  89161331.70145  21774092.453                    21774100.359
 118226646.870 7  92124622.35345  22497758.688                    22497766.238
 121135806.978 7  94391597.122 7  23051368.109                    23051380.590
 120706119.249 7  94056704.21544  22969589.375                    22969599.867
 125889603.835 7  98095838.276 6  23955994.305                    23956005.172
 127324712.926 6  99214117.71543  24229089.445                    24229100.832
 106920218.504 8  83314471.195 8  20346241.266                    20346248.613
 119306046.989 7  92965769.32445  22703189.328                    22703195.531
 110524430.101 8  86122977.50646  21032097.109                    21032104.789
 118686394.216 7  92482921.80544  22585277.852                    22585287.055
 11  8 22 17 59  0.0000000  0 10G11G28G01G24G17G26G07G19G08G13
 114388092.295 7  89133637.94145  21767329.273                    21767337.473
 118197214.431 7  92101688.00345  22492157.023                    22492165.613
 121066552.560 7  94337632.652 7  23038189.242                    23038201.836
 120642651.095 7  94007248.55744  22957511.508                    22957522.277
 125789810.868 7  98018077.623 6  23937004.516                    23937014.984
 127237865.002 6  99146444.07943  24212563.281                    24212573.465
 106907966.231 8  83304923.956 8  20343909.453                    20343916.965
 119397557.290 7  93037076.01145  22720602.984                    22720609.355
 110463545.572 8  86075535.01846  21020510.867                    21020519.305
 118791114.960 7  92564522.27444  22605205.758                    22605214.938
 11  8 22 17 59 30.0000000  0 10G11G28G01G24G17G26G07G19G08G13
 114353033.160 7  89106319.15345  21760657.953                    21760665.633
 118167883.232 7  92078832.53345  22486575.656                    22486583.395
 120997516.163 7  94283838.085 7  23025052.445                    23025064.707
 120579420.672 7  93957978.14944  22945479.406                    22945489.492
 125690190.069 6  97940451.134 6  23918047.445                    23918058.285
 127151403.087 6  99079071.20743  24196110.172                    24196120.895
 106896103.049 8  83295679.906 8  20341651.969                    20341659.059
 119489348.086 7  93108601.25545  22738070.297                    22738076.848
 110402876.839 8  86028260.68546  21008965.984                    21008974.145
 118896031.078 7  92646274.97644  22625170.961                    22625180.168
 11  8 22 18  0  0.0000000  0 10G11G28G01G24G17G26G07G19G08G13
 114318457.982 8  89079377.47545  21754078.336                    21754086.438
 118138653.066 7  92056055.79645  22481013.305                    22481021.598
 120928701.341 7  94230216.177 7  23011957.484                    23011969.559
 120516431.849 7  93908895.99244  22933492.828                    22933503.699
 125590744.023 6  97862960.833 6  23899122.828                    23899133.977
 127065330.190 6  99012001.46443  24179731.070                    24179741.781
 106884631.506 8  83286741.025 8  20339468.992                    20339476.172
 119581416.884 7  93180343.12045  22755590.391                    22755597.168
 110342426.863 8  85981156.80846  20997462.750                    20997470.734
 119001139.428 7  92728177.47144  22645172.242                    22645181.582
 11  8 22 18  0 30.0000000  0 10G11G28G01G24G17G26G07G19G08G13
 114284368.883 7  89052814.57445  21747591.414                    21747599.637
 118109522.825 7  92033356.92345  22475470.133                    22475478.500
 120860111.099 7  94176769.265 7  22998904.727                    22998917.633
 120453687.343 7  93860004.20244  22921552.859                    22921563.883
 125491474.892 7  97785608.363 6  23880232.805                    23880243.109
 126979649.075 6  98945236.99143  24163426.578                    24163436.867
 106873552.904 8  83278108.332 8  20337360.742                    20337368.402
 119673760.630 7  93252299.23945  22773162.656                    22773169.270
 110282198.217 8  85934225.40146  20986001.734                    20986009.969
 119106437.137 7  92810227.51044  22665209.773                    22665218.996
 11  8 22 18  1  0.0000000  0 10G11G28G01G24G17G26G07G19G08G13
 114250767.678 7  89026631.82545  21741197.359                    21741205.461
 118080491.278 7  92010734.95345  22469945.258                    22469953.828
 120791747.396 7  94123498.876 7  22985896.039                    22985908.457
 120391189.854 7  93811304.92244  22909660.078                    22909670.469
 125392383.995 7  97708394.787 6  23861375.766                    23861386.871
 126894362.178 6  98878779.69343  24147196.703                    24147207.094
 106862868.391 8  83269782.728 8  20335327.750                    20335335.277
 119766376.698 7  93324467.55345  22790786.742                    22790793.375
 110222192.715 8  85887467.86146  20974582.961                    20974591.023
 119211920.876 7  92892422.51944  22685282.680                    22685291.836
 11  8 22 18  1 30.0000000  0 10G11G28G01G24G17G26G07G19G08G13
 114217656.615 7  89000831.00545  21734896.820                    21734904.297
 118051558.242 7  91988189.73645  22464439.734                    22464448.105
 120723614.706 7  94070408.496 7  22972930.633                    22972943.012
 120328943.061 7  93762800.97144  22897814.945                    22897825.461
 125293474.005 7  97631322.153 6  23842554.250                    23842565.199
 126809472.589 6  98812632.00743  24131042.500                    24131053.141
 106852580.729 8  83261766.345 8  20333370.039                    20333377.078
 119859262.440 7  93396845.99545  22808462.391                    22808469.176
 110162413.728 8  85840886.84046  20963207.633                    20963215.801
 119317588.075 7  92974760.46744  22705390.891                    22705399.594
 11  8 22 18  2  0.0000000  0 10G11G28G01G24G17G26G07G19G08G13
 114185037.455 7  88975413.48645  21728689.188                    21728697.176
 118022722.148 7  91965720.05645  22458951.992                    22458960.629
 120655715.656 7  94017500.170 7  22960009.953                    22960022.188
 120266949.622 7  93714494.43344  22886017.492                    22886028.742
 125194746.180 7  97554391.473 6  23823766.891                    23823777.527
 126724982.774 6  98746795.82943  24114964.758                    24114975.035
 106842690.594 8  83254059.731 8  20331487.914                    20331495.156
 119952414.542 7  93469431.98045  22826189.273                    22826195.277
 110102862.955 7  85794483.64446  20951875.133                    20951883.340
 119423435.150 7  93057238.58744  22725532.719                    22725541.738
 11  8 22 18  2 30.0000000  0 10G11G28G01G24G17G26G07G19G08G13
 114152912.078 7  88950380.72845  21722576.141                    21722584.051
 117993981.820 7  91943325.00845  22453483.078                    22453491.203
 120588053.146 7  93964776.177 7  22947133.531                    22947146.207
 120205212.611 7  93666387.69844  22874269.273                    22874280.445
 125096202.839 7  97477604.559 6  23805014.656                    23805025.426
 126640895.432 6  98681273.30243  24098963.844                    24098974.504
 106833199.772 8  83246664.277 8  20329682.094                    20329689.313
 120045830.317 7  93542223.44645  22843965.758                    22843972.117
 110043542.895 8  85748260.21846  20940587.047                    20940595.348
 119529458.968 7  93139854.43344  22745708.711                    22745717.684
 11  8 22 18  3  0.0000000  0 10G11G28G01G24G17G26G07G19G08G13
 114121282.851 7  88925734.58945  21716557.039                    21716565.066
 117965337.027 7  91921004.39845  22448032.344                    22448040.332
 120520630.532 7  93912239.122 7  22934303.820                    22934315.965
 120143734.915 6  93618483.03244  22862570.672                    22862581.395
 124997846.093 7  97400963.022 6  23786297.656                    23786308.867
 126557213.249 6  98616066.43643  24083038.375                    24083050.414
 106824110.142 8  83239581.441 8  20327952.305                    20327959.395
 120139507.212 7  93615218.36545  22861791.695                    22861798.109
 109984456.016 7  85702218.49646  20929343.133                    20929350.996
 119635656.422 7  93222605.57744  22765916.891                    22765926.434
 11  8 22 18  3 30.0000000  0 10G11G28G01G24G17G26G07G19G08G13
 114090151.675 7  88901476.52945  21710633.633                    21710641.109
 117936786.831 7  91898757.51045  22442599.586                    22442607.637
 120453450.819 7  93859891.324 7  22921519.789                    22921532.313
 120082519.948 7  93570783.10544  22850922.344                    22850932.727
 124899677.721 7  97324468.264 6  23767616.617                    23767627.941
 126473939.540 6  98551177.88142  24067192.148                    24067203.805
 106815423.556 8  83232812.656 8  20326299.102                    20326306.703
 120233442.280 7  93688414.47145  22879667.094                    22879673.484
 109925605.332 7  85656360.81146  20918144.297                    20918152.277
 119742025.116 7  93305490.16844  22786158.430                    22786168.043
 11  8 22 18  4  0.0000000  0 10G11G28G01G24G17G26G07G19G08G13
 114059520.270 8  88877607.89145  21704804.195                    21704812.234
 117908330.100 7  91876583.44545  22437184.953                    22437192.383
 120386516.520 7  93807734.771 7  22908782.680                    22908795.188
 120021570.457 7  93523290.00744  22839323.781                    22839334.777
 124801699.514 7  97248121.704 6  23748972.203                    23748983.625
 126391076.273 6  98486609.20443  24051424.328                    24051435.363
 106807141.111 8  83226358.788 8  20324723.227                    20324730.645
 120327632.726 7  93761809.55945  22897590.930                    22897597.055
 109866992.627 8  85610688.57446  20906990.359                    20906998.691
 119848561.193 7  93388505.19844  22806431.734                    22806441.328
 11  8 22 18  4 30.0000000  0 10G11G28G01G24G17G26G07G19G08G13
 114029390.645 7  88854130.26545  21699070.695                    21699078.723
 117879965.735 7  91854481.34545  22431787.055                    22431794.707
 120319830.711 7  93755771.821 7  22896092.875                    22896105.172
 119960889.081 7  93476005.84344  22827776.898                    22827786.863
 124703913.371 6  97171924.798 6  23730363.148                    23730374.922
 126308626.077 6  98422362.33142  24035734.648                    24035744.602
 106799264.059 8  83220220.807 7  20323224.305                    20323231.742
 120422075.384 7  93835401.19545  22915562.719                    22915568.957
 109808620.023 8  85565203.42746  20895882.547                    20895890.848
 119955261.544 7  93471648.23944  22826736.273                    22826746.387
 11  8 22 18  5  0.0000000  0 10G11G28G01G24G17G26G07G19G08G13
 113999764.971 8  88831045.31945  21693433.156                    21693440.508
 117851693.406 7  91832450.96445  22426406.734                    22426414.813
 120253396.942 7  93704005.292 7  22883451.109                    22883463.141
 119900479.432 6  93428933.43944  22816280.453                    22816290.984
 124606321.466 7  97095879.256 6  23711793.008                    23711803.738
 126226592.009 6  98358439.73142  24020123.594                    24020134.094
 106791794.767 8  83214400.565 8  20321803.102                    20321810.273
 120516767.657 7  93909187.32045  22933582.063                    22933588.367
 109750490.901 8  85519908.01046  20884821.180                    20884829.043
 120062123.770 7  93554917.38444  22847071.742                    22847081.090
 11  8 22 18  5 30.0000000  0 10G11G28G01G24G17G26G07G19G08G13
 113970644.429 8  88808353.99545  21687891.602                    21687899.414
 117823511.695 7  91810491.20045  22421043.984                    22421051.348
 120187217.880 7  93652437.221 7  22870857.102                    22870869.801
 119840344.113 7  93382074.77544  22804837.008                    22804848.004
 124508925.532 7  97019986.418 6  23693258.813                    23693270.074
 126144976.355 6  98294843.15042  24004593.055                    24004603.059
 106784734.157 8  83208898.773 8  20320459.242                    20320466.906
 120611706.824 7  93983165.84744  22951647.969                    22951654.625
 109692606.712 8  85474803.44446  20873806.070                    20873814.152
 120169144.233 7  93638309.83544  22867436.672                    22867446.469
 11  8 22 18  6  0.0000000  0 10G11G28G01G24G17G26G07G19G08G13
 113942031.351 7  88786058.08945  21682446.852                    21682454.590
 117795419.777 7  91788601.40245  22415698.422                    22415705.762
 120121296.633 7  93601070.053 7  22858313.375                    22858325.602
 119780486.558 7  93335432.56644  22793446.516                    22793457.078
 124411727.564 7  96944247.848 6  23674762.633                    23674773.855
 126063782.019 6  98231574.86143  23989142.898                    23989152.750
 106778084.090 8  83203716.884 8  20319193.945                    20319201.082
 120706889.823 7  94057334.36644  22969760.883                    22969767.801
 109634970.657 8  85429892.22446  20862838.219                    20862846.605
 120276320.133 7  93721823.39644  22887831.789                    22887841.449
 11  8 22 18  6 30.0000000  0 10G11G28G01G24G17G26G07G19G08G13
 113913927.482 8  88764158.97545  21677098.578                    21677106.863
 117767416.634 7  91766780.77945  22410369.438                    22410377.434
 120055635.936 7  93549905.911 7  22845818.602                    22845830.508
 119720909.310 7  93289008.76144  22782109.211                    22782119.973
 124314728.939 7  96868664.605 6  23656304.352                    23656314.891
 125983011.315 6  98168636.67543  23973771.734                    23973782.328
 106771845.759 8  83198855.831 8  20318006.813                    20318014.074
 120802313.724 7  94131690.59544  22987919.766                    22987926.457
 109577584.714 8  85385175.90546  20851918.234                    20851926.324
 120383648.093 7  93805455.44244  22908255.391                    22908265.645
 11  8 22 18  7  0.0000000  0 10G11G28G01G24G17G26G07G19G08G13
 113886334.240 7  88742657.74545  21671848.031                    21671855.910
 117739501.293 7  91745028.57545  22405057.258                    22405064.926
 119990238.804 7  93498947.162 7  22833373.445                    22833386.000
 119661615.475 7  93242805.79944  22770826.008                    22770837.063
 124217931.835 7  96793238.379 6  23637883.625                    23637895.137
 125902666.722 7  98106030.54643  23958482.727                    23958492.949
 106766020.658 8  83194316.774 8  20316898.211                    20316905.816
 120897975.605 7  94206232.24544  23006123.664                    23006130.453
 109520450.840 8  85340656.00546  20841046.016                    20841053.984
 120491124.918 7  93889203.48244  22928708.195                    22928718.316
 11  8 22 18  7 30.0000000  0 10G11G28G01G24G17G26G07G19G08G13
 113859253.839 7  88721556.12945  21666694.813                    21666702.531
 117711673.276 7  91723344.41545  22399761.789                    22399769.328
 119925108.401 7  93448196.224 7  22820979.266                    22820991.801
 119602608.059 7  93196826.03944  22759597.344                    22759608.613
 124121338.388 7  96717970.828 6  23619503.078                    23619513.977
 125822751.184 7  98043758.69843  23943275.727                    23943285.691
 106760610.526 8  83190101.063 8  20315869.109                    20315876.059
 120993873.017 7  94280957.44744  23024372.625                    23024379.277
 109463572.410 8  85296335.15646  20830222.492                    20830230.223
 120598747.725 7  93973065.25444  22949188.578                    22949198.215
 11  8 22 18  8  0.0000000  0 10G11G28G01G24G17G26G07G19G08G13
 113832687.971 7  88700855.45745  21661639.313                    21661646.992
 117683931.698 7  91701727.61645  22394482.570                    22394490.613
 119860247.793 7  93397655.537 7  22808636.883                    22808649.676
 119543890.115 7  93151071.82944  22748423.992                    22748434.418
 124024950.602 7  96642863.528 6  23601161.109                    23601172.043
 125743267.155 7  97981823.13643  23928149.961                    23928160.086
 106755617.249 8  83186210.182 8  20314918.805                    20314926.297
 121090003.181 7  94355864.01345  23042665.422                    23042672.043
 109406951.878 8  85252215.26946  20819447.992                    20819456.043
 120706513.674 7  94057038.58444  22969695.313                    22969705.738
 11  8 22 18  8 30.0000000  0 10G11G28G01G24G17G26G07G19G08G13
 113806638.491 8  88680557.15445  21656682.250                    21656690.355
 117656275.524 7  91680177.36745  22389220.344                    22389227.957
 119795660.146 7  93347327.545 7  22796346.203                    22796358.500
 119485464.483 7  93105545.41244  22737305.844                    22737316.449
 123928770.049 7  96567917.710 6  23582858.930                    23582869.719
 125664217.252 7  97920225.82843  23913107.805                    23913117.711
 106751041.761 8  83182644.845 8  20314048.328                    20314055.344
 121186363.270 7  94430949.73644  23061002.102                    23061008.406
 109350591.308 8  85208297.93846  20808722.563                    20808730.934
 120814419.602 7  94141120.97544  22990229.586                    22990239.723
 11  8 22 18  9  0.0000000  0 10G11G28G01G24G17G26G07G19G08G13
 113781107.241 7  88660662.67345  21651823.719                    21651831.766
 117628704.054 7  91658693.11745  22383973.164                    22383981.148
 119731348.348 7  93297214.508 7  22784107.922                    22784120.594
 119427334.524 7  93060249.39744  22726243.875                    22726254.457
 123832798.882 7  96493135.061 6  23564595.883                    23564606.469
 125585604.317 7  97858969.01344  23898148.438                    23898158.297
 106746886.118 8  83179406.661 8  20313257.266                    20313264.746
 121282950.462 7  94506212.42445  23079382.070                    23079388.766
 109294493.078 8  85164585.03146  20798047.297                    20798055.516
 120922462.226 7  94225309.90244  23010789.656                    23010799.430
 11  8 22 18  9 30.0000000  0 10G11G28G01G24G17G26G07G19G08G13
 113756095.935 7  88641173.34145  21647064.398                    21647072.223
 117601216.594 7  91637274.33345  22378742.648                    22378750.414
 119667315.941 7  93247319.184 7  22771923.484                    22771935.340
 119369503.286 7  93015186.13944  22715239.172                    22715249.602
 123737039.268 7  96418517.259 6  23546373.406                    23546384.016
 125507431.043 7  97798054.81043  23883273.133                    23883282.664
 106743151.664 8  83176496.678 7  20312546.469                    20312554.238
 121379761.944 7  94581649.88945  23097804.672                    23097811.730
 109238660.687 8  85121079.26746  20787423.289                    20787431.227
 121030638.861 7  94309603.24744  23031374.773                    23031384.566
 11  8 22 18 10  0.0000000  0 10G11G28G01G24G17G26G07G19G08G13
 113731605.946 7  88622090.24145  21642403.938                    21642412.188
 117573811.797 7  91615919.97345  22373528.008                    22373535.047
 119603564.788 7  93197643.019 7  22759791.344                    22759803.656
 119311973.217 7  92970357.57244  22704291.039                    22704301.961
 123641492.237 7  96344065.104 6  23528191.805                    23528201.375
 125429699.481 7  97737484.77644  23868480.875                    23868490.824
 106739839.429 8  83173915.697 8  20311916.398                    20311923.961
 121476795.111 7  94657260.07744  23116269.727                    23116276.500
 109183096.053 8  85077782.14846  20776849.570                    20776857.605
 121138946.265 7  94393998.50843  23051984.711                    23051994.672
 11  8 22 18 10 30.0000000  0 10G11G28G01G24G17G26G07G19G08G13
 113707639.121 8  88603414.81545  21637843.727                    21637851.195
 117546489.102 7  91594629.57445  22368328.289                    22368335.672
 119540098.674 7  93148188.950 7  22747714.250                    22747726.301
 119254747.378 7  92925766.06344  22693401.352                    22693411.797
 123546160.031 6  96269780.362 6  23510050.063                    23510060.844
 125352412.146 6  97677260.93643  23853772.602                    23853783.387
 106736951.138 8  83171665.051 8  20311366.922                    20311374.430
 121574046.856 7  94733040.59744  23134775.945                    23134783.055
 109127801.372 8  85034695.39546  20766327.227                    20766335.398
 121247381.207 7  94478493.13743  23072619.586                    23072628.738
 11  8 22 18 11  0.0000000  0 10G11G28G01G24G17G26G07G19G08G13
 113684196.936 8  88585148.18945  21633382.578                    21633390.031
 117519247.312 7  91573402.21945  22363144.500                    22363152.039
 119476919.726 7  93098958.662 7  22735692.164                    22735704.035
 119197828.616 7  92881413.83944  22682570.266                    22682580.652
 123451044.332 6  96195664.338 6  23491949.422                    23491960.469
 125275571.838 6  97617385.42543  23839151.094                    23839160.895
 106734488.108 8  83169745.786 8  20310898.336                    20310905.813
 121671514.511 7  94808989.35744  23153323.453                    23153330.727
 109072779.441 8  84991821.16446  20755856.758                    20755864.832
 121355940.663 7  94563084.78143  23093277.625                    23093287.324
 11  8 22 18 11 30.0000000  0 10G11G28G01G24G17G26G07G19G08G13
 113661281.060 8  88567291.67845  21629021.766                    21629029.691
 117492085.787 7  91552237.41245  22357975.820                    22357983.539
 119414031.916 7  93049955.225 7  22723724.531                    22723736.359
 119141219.690 7  92837303.04744  22671797.484                    22671808.551
 123356147.147 6  96121718.582 6  23473890.852                    23473902.613
 125199180.819 6  97557859.99243  23824613.602                    23824624.215
 106732451.856 8  83168159.073 8  20310510.406                    20310518.012
 121769195.350 7  94885104.24044  23171911.617                    23171918.535
 109018032.587 8  84949161.28346  20745439.117                    20745447.012
 121464621.875 7  94647771.29644  23113959.320                    23113969.047
 11  8 22 18 12  0.0000000  0 10G11G28G01G24G17G26G07G19G08G13
 113638893.111 7  88549846.55645  21624761.672                    21624769.551
 117465003.762 7  91531134.54345  22352821.844                    22352829.840
 119351437.641 7  93001180.520 7  22711812.969                    22711825.031
 119084923.732 7  92793436.12844  22661085.047                    22661095.664
 123261470.347 6  96047944.538 6  23455875.102                    23455886.484
 125123241.535 6  97498686.56843  23810163.836                    23810173.520
 106730843.597 8  83166905.863 8  20310204.563                    20310211.766
 121867086.298 7  94961382.83344  23190539.633                    23190546.773
 108963563.126 8  84906717.55746  20735073.844                    20735081.707
 121573421.525 7  94732550.09743  23134662.539                    23134672.914
 11  8 22 18 12 30.0000000  0 10G11G28G01G24G17G26G07G19G08G13
 113617034.572 7  88532813.94345  21620601.766                    21620609.680
 117437999.990 7  91510092.65545  22347683.406                    22347690.734
 119289139.798 7  92952636.797 7  22699958.305                    22699970.641
 119028943.804 7  92749815.45144  22650432.797                    22650442.516
 123167015.381 6  95974343.359 6  23437900.500                    23437911.773
 125047756.495 6  97439867.08843  23795798.219                    23795808.988
 106729664.774 8  83165987.287 8  20309980.258                    20309987.875
 121965184.784 7  95037823.15344  23209207.023                    23209213.863
 108909373.718 8  84864492.05146  20724761.672                    20724769.941
 121682336.581 7  94817418.79744  23155389.078                    23155399.051
 11  8 22 18 13  0.0000000  0 10G11G28G01G24G17G26G07G19G08G13
 113595707.391 8  88516195.38045  21616543.836                    21616551.070
 117411073.641 7  91489111.09145  22342559.375                    22342566.816
 119227141.313 7  92904326.338 7  22688160.531                    22688173.074
 118973282.665 7  92706443.21344  22639840.367                    22639850.426
 123072784.341 7  95900916.672 6  23419969.461                    23419979.691
 124972728.078 6  97381403.45243  23781520.992                    23781531.219
 106728916.895 8  83165404.517 8  20309838.031                    20309845.309
 122063488.091 7  95114423.06944  23227913.680                    23227920.570
 108855466.571 8  84822486.48046  20714503.516                    20714511.781
 121791363.814 7  94902374.90244  23176137.609                    23176146.711
 11  8 22 18 13 30.0000000  0 10G11G28G01G24G17G26G07G19G08G13
 113574912.767 7  88499991.80245  21612586.188                    21612594.250
 117384224.480 7  91468189.67045  22337450.234                    22337457.805
 119165445.367 7  92856251.609 7  22676419.633                    22676432.488
 118917943.205 7  92663321.61244  22629309.727                    22629320.121
 122978779.061 7  95827665.898 6  23402080.375                    23402091.344
 124898159.071 6  97323297.80343  23767330.773                    23767341.082
 106728601.402 8  83165158.671 8  20309778.008                    20309785.320
 122161993.381 7  95191180.37644  23246658.898                    23246665.563
 108801844.794 8  84780703.27346  20704299.930                    20704307.773
 121900500.444 7  94987416.28744  23196905.086                    23196914.836
 11  8 22 18 14  0.0000000  0 10G11G28G01G24G17G26G07G19G08G13
 113554652.009 7  88484204.22245  21608730.516                    21608738.648
 117357451.427 7  91447327.56145  22332355.195                    22332362.977
 119104054.563 7  92808414.656 7  22664737.563                    22664750.129
 118862928.043 7  92620452.71944  22618840.648                    22618850.066
 122885001.147 7  95754592.291 6  23384234.953                    23384245.590
 124824051.486 6  97265551.66243  23753229.078                    23753239.367
 106728719.260 8  83165250.494 8  20309800.359                    20309808.051
 122260697.776 6  95268092.80844  23265441.922                    23265448.496
 108748510.197 8  84739143.85246  20694150.578                    20694158.477
 122009743.244 7  95072540.39344  23217693.688                    23217703.375
 11  8 22 18 14 30.0000000  0 10G11G28G01G24G17G26G07G19G08G13
 113534927.006 7  88468834.11045  21604977.219                    21604985.152
 117330753.633 7  91426524.09045  22327274.781                    22327282.980
 119042972.276 7  92760818.118 7  22653114.047                    22653126.035
 118808240.314 7  92577838.98444  22608433.977                    22608444.316
 122791452.716 7  95681697.494 6  23366433.102                    23366443.613
 124750408.019 6  97208167.15243  23739214.992                    23739224.715
 106729272.552 8  83165681.616 8  20309905.828                    20309913.027
 122359598.827 7  95345158.49544  23284262.086                    23284268.910
 108695465.530 8  84697810.34846  20684056.680                    20684064.652
 122119089.437 7  95157745.05644  23238501.305                    23238512.137
 11  8 22 18 15  0.0000000  0 10G11G28G01G24G17G26G07G19G08G13
 113515738.989 8  88453882.42845  21601325.992                    21601333.867
 117304130.415 7  91405778.73545  22322209.164                    22322216.648
 118982200.981 7  92713463.906 7  22641549.859                    22641561.555
 118753882.861 7  92535482.56444  22598089.773                    22598100.152
 122698135.434 7  95608982.817 6  23348676.164                    23348686.016
 124677230.843 7  97151146.03943  23725289.719                    23725299.574
 106730261.901 8  83166452.521 8  20310094.000                    20310101.523
 122458693.381 6  95422374.98844  23303118.633                    23303126.180
 108642713.611 8  84656704.95846  20674018.227                    20674026.090
 122228535.422 7  95243027.47744  23259328.469                    23259338.656
 11  8 22 18 15 30.0000000  0 10G11G28G01G24G17G26G07G19G08G13
 113497089.313 8  88439350.22145  21597777.133                    21597784.746
 117277580.078 7  91385090.17345  22317156.469                    22317164.000
 118921743.313 7  92666354.088 7  22630044.578                    22630056.832
 118699858.332 7  92493385.58944  22587809.227                    22587819.801
 122605050.935 7  95536449.507 6  23330962.297                    23330972.359
 124604522.167 7  97094489.88843  23711453.781                    23711463.563
 106731688.331 7  83167564.010 8  20310365.250                    20310372.523
 122557978.999 7  95499740.34044  23322012.664                    23322019.457
 108590256.421 8  84615829.22846  20664036.023                    20664043.750
 122338078.202 7  95328385.32943  23280173.555                    23280183.938
 11  8 22 18 16  0.0000000  0 10G11G28G01G24G17G26G07G19G08G13
 113478979.759 8  88425238.90045  21594330.914                    21594338.344
 117251103.250 7  91364458.89545  22312117.953                    22312125.926
 118861603.102 7  92619491.617 7  22618600.742                    22618612.902
 118646170.111 7  92451550.67844  22577592.438                    22577602.461
 122512201.307 7  95464099.224 6  23313293.156                    23313303.453
 124532284.893 7  97038201.13943  23697706.984                    23697717.270
 106733554.413 8  83169018.080 8  20310720.422                    20310727.836
 122657453.307 7  95577252.72744  23340941.672                    23340948.844
 108538097.129 8  84575185.62446  20654110.406                    20654118.020
 122447715.447 7  95413816.77543  23301036.883                    23301047.016
 11  8 22 18 16 30.0000000  0 10G11G28G01G24G17G26G07G19G08G13
 113461411.486 8  88411549.35145  21590987.805                    21590995.121
 117224698.147 8  91343883.49345  22307093.734                    22307101.305
 118801782.617 7  92572878.285 7  22607217.523                    22607229.074
 118592820.879 7  92409979.89944  22567440.906                    22567450.727
 122419587.867 7  95391932.980 6  23295670.000                    23295679.523
 124460521.217 7  96982281.36143  23684051.023                    23684061.285
 106735860.456 8  83170814.983 8  20311159.352                    20311166.598
 122757112.968 7  95654909.57244  23359906.578                    23359913.605
 108486238.151 8  84534776.03146  20644241.797                    20644249.355
 122557443.710 7  95499319.15943  23321917.688                    23321927.887
 11  8 22 18 17  0.0000000  0 10G11G28G01G24G17G26G07G19G08G13
 113444385.529 8  88398282.37345  21587747.945                    21587755.777
 117198363.923 7  91323363.32845  22302081.500                    22302089.898
 118742284.754 7  92526516.365 7  22595895.445                    22595906.723
 118539813.108 7  92368675.21244  22557354.078                    22557363.746
 122327212.355 7  95319952.136 6  23278090.711                    23278101.152
 124389233.086 7  96926732.10443  23670485.656                    23670496.020
 106738607.660 8  83172955.658 8  20311682.133                    20311689.527
 122856955.211 7  95732708.65844  23378906.039                    23378912.996
 108434681.510 8  84494602.02746  20634430.695                    20634438.617
 122667259.945 7  95584890.07243  23342815.164                    23342824.930
 11  8 22 18 17 30.0000000  0 10G11G28G01G24G17G26G07G19G08G13
 113427903.354 8  88385439.11545  21584611.250                    21584619.309
 117172099.964 7  91302897.92145  22297084.375                    22297092.023
 118683112.613 7  92480408.252 7  22584634.688                    22584646.918
 118487149.783 7  92327638.90444  22547332.281                    22547342.758
 122235076.807 7  95248158.297 6  23260558.422                    23260568.398
 124318423.248 7  96871555.60943  23657011.352                    23657021.297
 106741797.794 8  83175441.459 8  20312289.141                    20312296.305
 122956977.645 7  95810648.16544  23397939.711                    23397946.766
 108383430.141 8  84454665.89246  20624678.086                    20624686.023
 122777161.371 7  95670527.39243  23363728.977                    23363738.879
 11  8 22 18 18  0.0000000  0 10G11G28G01G24G17G26G07G19G08G13
 113411966.786 8  88373021.00845  21581578.258                    21581586.563
 117145905.516 8  91282486.68345  22292099.383                    22292107.473
 118624269.063 7  92434556.194 7  22573437.203                    22573448.293
 118434833.754 7  92286873.22044  22537376.875                    22537387.238
 122143182.927 7  95176552.763 6  23243070.766                    23243081.504
 124248094.026 7  96816753.64843  23643628.391                    23643638.223
 106745431.865 8  83178273.184 7  20312981.039                    20312988.176
 123057177.449 7  95888725.87744  23417007.430                    23417013.973
 108332486.821 8  84414969.80246  20614983.703                    20614991.906
 122887144.864 7  95756228.63143  23384658.641                    23384668.129
 11  8 22 18 18 30.0000000  0 10G11G28G01G24G17G26G07G19G08G13
 113396576.606 8  88361028.66045  21578650.133                    21578657.926
 117119779.594 7  91262128.84945  22287128.094                    22287135.930
 118565756.463 7  92388962.003 7  22562302.547                    22562314.027
 118382867.920 7  92246380.37844  22527487.289                    22527498.043
 122051532.228 7  95105136.719 6  23225630.898                    23225640.910
 124178247.633 7  96762327.99643  23630336.250                    23630346.754
 106749511.066 8  83181451.770 8  20313757.094                    20313764.629
 123157551.481 7  95966939.38244  23436107.852                    23436114.609
 108281853.007 8  84375514.88546  20605348.555                    20605356.773
 122997207.127 7  95841991.26043  23405602.227                    23405612.707
 11  8 22 18 19  0.0000000  0 10G11G28G01G24G17G26G07G19G08G13
 113381734.104 8  88349463.07045  21575825.820                    21575833.461
 117093721.402 7  91241823.77545  22282169.586                    22282177.203
 118507577.980 7  92343628.166 7  22551231.469                    22551243.559
 118331254.750 7  92206162.35844  22517666.336                    22517675.992
 121960126.411 7  95033911.493 6  23208236.797                    23208247.098
 124108886.003 6  96708280.05543  23617137.555                    23617147.473
 106754036.228 8  83184977.846 8  20314618.047                    20314625.477
 123258097.298 7  96045286.70344  23455241.109                    23455248.387
 108231531.373 8  84336303.22846  20595772.609                    20595780.863
 123107344.997 7  95927812.79244  23426561.688                    23426571.918
 11  8 22 18 19 30.0000000  0 10G11G28G01G24G17G26G07G19G08G13
 113367440.847 8  88338325.46745  21573105.461                    21573113.500
 117067730.300 7  91221570.99345  22277223.070                    22277230.953
 118449736.634 7  92298557.021 7  22540224.789                    22540236.641
 118279997.560 7  92166221.71344  22507912.445                    22507922.082
 121868967.499 7  94962878.661 6  23190889.672                    23190900.395
 124040011.668 6  96654611.76043  23604030.875                    23604041.051
 106759009.354 8  83188853.001 8  20315564.672                    20315572.492
 123358812.666 7  96123766.15544  23474406.406                    23474413.898
 108181525.037 8  84297337.24946  20586256.875                    20586264.680
 123217556.076 7  96013691.35544  23447533.625                    23447544.977
 11  8 22 18 20  0.0000000  0 10G11G28G01G24G17G26G07G19G08G13
 113353698.490 8  88327617.13845  21570490.750                    21570498.711
 117041806.175 7  91201370.38245  22272290.070                    22272297.809
 118392235.528 7  92253751.010 7  22529282.680                    22529294.543
 118229099.173 7  92126560.65744  22498226.914                    22498236.531
 121778057.455 7  94892039.731 6  23173590.078                    23173600.598
 123971627.250 6  96601325.26743  23591017.109                    23591028.266
 106764431.926 8  83193078.360 8  20316596.281                    20316603.563
 123459694.648 7  96202375.42644  23493603.594                    23493610.926
 108131837.017 8  84258619.31146  20576801.750                    20576809.504
 123327837.684 7  96099624.87543  23468519.805                    23468530.750
 11  8 22 18 20 30.0000000  0 10G11G28G01G24G17G26G07G19G08G13
 113340507.605 8  88317338.53145  21567980.258                    21567988.469
 117015947.737 7  91181220.97045  22267369.359                    22267377.148
 118335077.402 7  92209212.256 7  22518405.258                    22518416.984
 118178562.190 7  92087181.21945  22488609.891                    22488619.945
 121687397.784 7  94821395.921 7  23156337.883                    23156348.566
 123903734.833 6  96548422.14343  23578097.883                    23578108.133
 106770304.476 8  83197654.361 8  20317713.773                    20317721.074
 123560740.633 7  96281112.49744  23512832.031                    23512839.414
 108082469.306 8  84220150.95546  20567407.031                    20567415.422
 123438186.537 7  96185610.80843  23489518.313                    23489529.676
 11  8 22 18 21  0.0000000  0 10G11G28G01G24G17G26G07G19G08G13
 113327869.390 8  88307490.57545  21565575.047                    21565583.094
 116990153.842 7  91161121.83745  22262461.023                    22262468.594
 118278264.565 7  92164942.545 7  22507594.250                    22507606.008
 118128389.211 7  92048085.40544  22479062.305                    22479073.254
 121596989.951 7  94750948.328 6  23139133.625                    23139144.484
 123836336.296 6  96495903.82143  23565272.352                    23565282.555
 106776628.010 8  83202581.777 8  20318917.086                    20318924.598
 123661947.805 7  96359975.15544  23532090.805                    23532098.688
 108033424.010 8  84181933.84246  20558074.289                    20558082.156
 123548599.123 6  96271646.37743  23510528.883                    23510540.730
 11  8 22 18 21 30.0000000  0 10G11G28G01G24G17G26G07G19G08G13
 113315785.176 8  88298074.32045  21563275.492                    21563283.543
 116964424.181 7  91141072.76245  22257564.836                    22257572.434
 118221800.240 7  92120944.399 7  22496850.141                    22496861.500
 118078583.178 7  92009275.52344  22469584.172                    22469594.844
 121506835.686 7  94680698.327 6  23121978.336                    23121989.098
 123769433.987 6  96443772.19443  23552540.961                    23552552.113
 106783403.964 8  83207861.727 8  20320206.734                    20320214.250
 123763313.565 7  96438961.40044  23551380.203                    23551387.523
 107984704.223 8  84143970.37246  20548802.938                    20548811.156
 123659073.089 6  96357729.78843  23531551.375                    23531562.727
 11  8 22 18 22  0.0000000  0 10G11G28G01G24G17G26G07G19G08G13
 113304256.155 8  88289090.66945  21561081.844                    21561089.699
 116938757.599 7  91121072.83945  22252680.484                    22252688.406
 118165687.241 7  92077220.026 7  22486171.703                    22486183.090
 118029146.470 7  91970753.43944  22460176.641                    22460186.605
 121416936.653 7  94610647.204 6  23104870.680                    23104881.016
 123703030.197 7  96392029.04243  23539905.125                    23539915.344
 106790633.500 8  83213495.114 8  20321582.484                    20321590.035
 123864835.232 7  96518069.10944  23570699.398                    23570706.336
 107936312.094 8  84106262.22346  20539594.242                    20539602.469
 123769605.110 6  96443858.41543  23552585.125                    23552596.879
 11  8 22 18 22 30.0000000  0 10G11G28G01G24G17G26G07G19G08G13
 113293283.091 8  88280540.23445  21558994.336                    21559001.988
 116913153.831 8  91101121.84745  22247808.672                    22247815.418
 118109927.989 7  92033771.282 7  22475560.914                    22475572.770
 117980082.009 7  91932521.39645  22450840.508                    22450850.563
 121327294.398 7  94540796.162 6  23087811.766                    23087822.875
 123637126.808 7  96340675.77744  23527364.156                    23527374.441
 106798317.548 8  83219482.663 8  20323044.734                    20323052.297
 123966510.169 6  96597296.25544  23590047.672                    23590054.605
 107888250.285 8  84068811.46046  20530448.602                    20530456.309
 123880192.183 6  96530029.98743  23573629.992                    23573640.461
 11  8 22 18 23  0.0000000  0 10G11G28G01G24G17G26G07G19G08G13
 113282867.185 8  88272423.95645  21557011.750                    21557019.828
 116887611.511 7  91081218.76445  22242947.742                    22242954.969
 118054525.239 7  91990600.339 7  22465018.445                    22465030.234
 117931392.360 7  91894581.45644  22441575.016                    22441585.492
 121237910.567 7  94471146.490 6  23070803.063                    23070813.508
 123571725.974 7  96289714.11744  23514919.344                    23514929.559
 106806457.168 8  83225825.226 8  20324593.500                    20324600.895
 124068335.288 7  96676640.41744  23609424.633                    23609431.879
 107840520.869 8  84031619.71046  20521365.844                    20521373.688
 123990831.003 7  96616241.86143  23594684.609                    23594694.277
 11  8 22 18 23 30.0000000  0 10G11G28G01G24G17G26G07G19G08G13
 113273009.528 8  88264742.66045  21555136.125                    21555143.789
 116862130.189 8  91061363.20345  22238098.773                    22238106.313
 117999481.737 7  91947709.329 7  22454543.719                    22454555.930
 117883080.168 7  91856935.63244  22432380.914                    22432391.387
 121148786.854 7  94401699.494 6  23053842.789                    23053854.098
 123506829.896 7  96239145.78444  23502569.891                    23502579.949
 106815053.400 8  83232523.565 8  20326229.586                    20326237.191
 124170308.085 7  96756099.66844  23628829.008                    23628836.172
 107793126.559 8  83994689.07646  20512346.992                    20512355.496
 124101519.048 7  96702492.11243  23615747.367                    23615758.145
 11  8 22 18 24  0.0000000  0 10G11G28G01G24G17G26G07G19G08G13
 113263711.069 8  88257497.11545  21553366.648                    21553373.875
 116836709.062 8  91041554.55345  22233261.547                    22233268.582
 117944800.505 7  91905100.602 7  22444138.336                    22444150.449
 117835148.057 7  91819585.95744  22423260.375                    22423270.152
 121059925.003 7  94332456.564 6  23036933.273                    23036944.066
 123442440.647 7  96188972.36844  23490316.813                    23490327.383
 106824107.301 8  83239578.539 8  20327952.367                    20327960.098
 124272426.253 7  96835672.20044  23648262.391                    23648268.930
 107746070.144 8  83958021.73746  20503392.469                    20503400.789
 124212253.174 7  96788778.24743  23636819.617                    23636830.109
 11  8 22 18 24 30.0000000  0 10G11G28G01G24G17G26G07G19G08G13
 113254972.801 8  88250688.07945  21551703.734                    21551711.402
 116811347.585 7  91021792.38045  22228435.445                    22228443.262
 117890484.320 7  91862776.348 7  22433802.500                    22433814.184
 117787598.752 7  91782534.59244  22414211.922                    22414221.859
 120971326.752 7  94263419.022 6  23020073.750                    23020083.891
 123378560.288 7  96139195.50544  23478161.336                    23478170.785
 106833620.143 8  83246991.130 8  20329762.445                    20329769.961
 124374686.957 6  96915355.80244  23667721.672                    23667729.180
 107699353.870 8  83921619.44946  20494502.781                    20494510.699
 124323030.701 7  96875098.24843  23657899.984                    23657910.934
 11  8 22 18 25  0.0000000  0 10G11G28G01G24G17G26G07G19G08G13
 113246795.995 8  88244316.54245  21550147.633                    21550155.180
 116786045.197 8  91002076.23645  22223620.305                    22223627.789
 117836535.991 7  91820738.726 7  22423536.477                    22423548.012
 117740435.285 7  91745783.87744  22405236.945                    22405246.582
 120882993.645 7  94194588.108 6  23003263.891                    23003274.445
 123315191.128 7  96089816.93844  23466102.000                    23466111.891
 106843593.083 8  83254762.236 7  20331660.359                    20331667.531
 124477087.609 6  96995148.45344  23687207.555                    23687215.113
 107652980.675 8  83885484.49046  20485678.477                    20485685.957
 124433848.731 6  96961449.73843  23678988.453                    23678998.871
 11  8 22 18 25 30.0000000  0 10G11G28G01G24G17G26G07G19G08G13
 113239181.574 8  88238383.22445  21548698.805                    21548706.898
 116760800.831 8  90982405.31245  22218816.305                    22218824.266
 117782958.199 7  91778989.845 7  22413340.563                    22413352.430
 117693660.154 7  91709335.76944  22396336.125                    22396345.648
 120794927.211 7  94125964.984 6  22986506.023                    22986516.063
 123252335.135 7  96040838.27643  23454140.383                    23454150.824
 106854027.120 8  83262892.633 7  20333645.813                    20333653.180
 124579625.896 7  97075048.35544  23706720.219                    23706727.750
 107606953.235 8  83849618.95246  20476919.766                    20476927.555
 124544704.195 6  97047830.41043  23700083.641                    23700094.898
 11  8 22 18 26  0.0000000  0 10G11G28G01G24G17G26G07G19G08G13
 113232130.352 8  88232888.77245  21547357.195                    21547364.797
 116735613.931 8  90962779.17345  22214023.398                    22214031.109
 117729753.627 7  91737531.778 7  22403216.094                    22403228.129
 117647276.193 7  91673192.45244  22387509.391                    22387518.941
 120707129.058 7  94057550.925 6  22969797.820                    22969808.426
 123189994.527 7  95992261.19243  23442277.758                    23442287.852
 106864923.099 8  83271382.996 8  20335719.344                    20335727.254
 124682298.967 6  97155053.29044  23726257.836                    23726265.766
 107561273.908 8  83814024.67446  20468227.094                    20468234.941
 124655594.116 6  97134237.90443  23721185.211                    23721196.797
 11  8 22 18 26 30.0000000  0 10G11G28G01G24G17G26G07G19G08G13
 113225643.270 8  88227833.91445  21546122.438                    21546129.668
 116710483.871 7  90943197.31345  22209241.055                    22209248.957
 117676924.722 7  91696366.425 7  22393163.297                    22393175.211
 117601285.629 7  91637355.68244  22378757.156                    22378766.988
 120619600.758 7  93989347.127 6  22953142.438                    22953152.473
 123128170.862 7  95944086.92643  23430513.023                    23430522.797
 106876281.977 8  83280234.050 8  20337880.727                    20337888.301
 124785104.321 7  97235161.29844  23745821.727                    23745829.078
 107515944.476 8  83778703.04946  20459601.148                    20459609.102
 124766515.348 6  97220669.81843  23742293.125                    23742304.172
 11  8 22 18 27  0.0000000  0 10G11G28G01G24G17G26G07G19G08G13
 113219720.970 8  88223219.14045  21544995.375                    21545003.207
 116685409.654 7  90923658.98345  22204469.344                    22204477.406
 117624474.516 7  91655496.182 7  22383181.797                    22383194.098
 117555691.138 7  91601827.55044  22370081.203                    22370090.953
 120532343.695 7  93921354.679 6  22936537.711                    22936547.957
 123066866.152 7  95896317.05443  23418846.789                    23418857.117
 106888104.767 8  83289446.602 8  20340130.969                    20340137.938
 124888038.798 7  97315369.93244  23765409.430                    23765416.488
 107470967.422 8  83743655.99946  20451042.289                    20451050.078
 124877465.178 6  97307124.00743  23763406.383                    23763417.848
 11  8 22 18 27 30.0000000  0 10G11G28G01G24G17G26G07G19G08G13
 113214364.331 8  88219045.14045  21543975.953                    21543984.039
 116660390.396 8  90904163.46645  22199708.727                    22199716.758
 117572405.203 7  91614922.726 7  22373273.586                    22373285.352
 117510495.407 7  91566610.11944  22361480.609                    22361490.988
 120445359.620 7  93853574.965 7  22919985.180                    22919995.496
 123006082.239 7  95848952.99843  23407280.328                    23407290.355
 106900392.126 8  83299021.142 8  20342469.125                    20342476.328
 124991099.999 7  97395677.32044  23785021.125                    23785028.645
 107426345.646 8  83708885.79146  20442550.859                    20442558.414
 124988440.300 7  97393597.88943  23784524.828                    23784535.387
 11  8 22 18 28  0.0000000  0 10G11G28G01G24G17G26G07G19G08G13
 113209573.934 8  88215312.37445  21543064.328                    21543072.297
 116635425.209 8  90884710.09045  22194958.414                    22194965.945
 117520719.184 7  91574647.941 7  22363438.234                    22363449.980
 117465700.401 7  91531704.96345  22352956.117                    22352966.102
 120358649.571 7  93786008.773 7  22903484.805                    22903494.910
 122945821.208 7  95801996.34943  23395812.688                    23395823.238
 106913144.717 8  83308958.210 8  20344895.703                    20344903.195
 125094285.046 6  97476081.19244  23804656.805                    23804663.777
 107382081.305 8  83674394.10646  20434127.883                    20434136.109
 125099437.846 7  97480089.26743  23805646.859                    23805657.633
 11  8 22 18 28 30.0000000  0 10G11G28G01G24G17G26G07G19G08G13
 113205350.953 8  88212021.75945  21542261.031                    21542268.777
 116610514.084 8  90865298.84745  22190217.727                    22190225.473
 117469419.802 7  91534674.425 7  22353676.227                    22353688.047
 117421309.034 7  91497114.30744  22344508.781                    22344519.148
 120272215.580 7  93718657.700 7  22887036.922                    22887046.613
 122886084.897 7  95755448.62143  23384445.320                    23384455.520
 106926364.048 8  83319258.970 7  20347411.422                    20347419.000
 125197591.872 6  97556579.96544  23824316.086                    23824322.477
 107338177.155 8  83640183.07746  20425773.203                    20425781.609
 125210455.382 7  97566596.22043  23826772.844                    23826784.082
 11  8 22 18 29  0.0000000  0 10G11G28G01G24G17G26G07G19G08G13
 113201696.004 8  88209173.76845  21541565.508                    21541572.727
 116585655.887 8  90845928.84145  22185487.438                    22185494.945
 117418509.284 7  91495003.907 7  22343987.898                    22344000.016
 117377323.895 7  91462840.20645  22336138.695                    22336148.895
 120186059.009 7  93651522.770 6  22870641.852                    22870651.223
 122826875.272 7  95709311.25344  23373178.250                    23373188.836
 106940050.797 8  83329923.941 8  20350015.719                    20350023.473
 125301017.883 6  97637171.61144  23843996.586                    23844004.219
 107294635.544 8  83606254.54946  20417487.453                    20417495.195
 125321489.499 7  97653116.11543  23847901.852                    23847913.215
 11  8 22 18 29 30.0000000  0 10G11G28G01G24G17G26G07G19G08G13
 113198610.150 8  88206769.21645  21540978.141                    21540985.242
 116560850.591 7  90826600.06245  22180767.328                    22180774.496
 117367990.989 7  91455639.032 7  22334374.563                    22334386.422
 117333748.091 7  91428885.04444  22327846.398                    22327856.641
 120100182.200 7  93584605.861 7  22854299.820                    22854309.832
 122768194.882 6  95663586.29244  23362011.828                    23362022.453
 106954206.615 8  83340954.424 8  20352709.539                    20352717.195
 125404560.601 7  97717854.17744  23863700.289                    23863708.031
 107251459.696 8  83572611.03746  20409271.586                    20409279.238
 125432537.893 7  97739647.10543  23869033.992                    23869044.867
 11  8 22 18 30  0.0000000  0 10G11G28G01G24G17G26G07G19G08G13
 113196094.178 8  88204808.74645  21540499.453                    21540507.258
 116536096.958 8  90807311.52745  22176056.438                    22176064.184
 117317866.779 7  91416581.224 7  22324837.055                    22324848.746
 117290583.540 7  91395250.34644  22319632.227                    22319642.613
 120014585.642 7  93517907.332 6  22838011.625                    22838021.027
 122710044.764 7  95618274.52043  23350946.281                    23350956.016
 106968831.589 8  83352350.474 8  20355492.672                    20355499.855
 125508217.438 6  97798625.69144  23883426.008                    23883432.871
 107208651.307 8  83539253.85546  20401125.195                    20401133.289
 125543597.370 6  97826186.75043  23890167.852                    23890179.211
 11  8 22 18 30 30.0000000  0 10G11G28G01G24G17G26G07G19G08G13
 113194148.346 7  88203292.52145  21540129.117                    21540137.215
 116511394.314 8  90788062.72945  22171355.727                    22171363.492
 117268139.397 7  91377832.622 7  22315373.641                    22315385.582
 117247832.673 7  91361938.01344  22311497.094                    22311507.035
 119929270.904 7  93451428.383 7  22821776.383                    22821786.289
 122652426.899 6  95573377.49744  23339981.984                    23339991.629
 106983926.445 8  83364112.683 8  20358365.039                    20358373.039
 125611985.606 6  97879483.96244  23903171.945                    23903179.086
 107166212.649 8  83506184.76746  20393049.102                    20393057.008
 125654664.876 7  97912732.63843  23911303.273                    23911314.305
 11  8 22 18 31  0.0000000  0 10G11G28G01G24G17G26G07G19G08G13
 113192773.511 8  88202221.22945  21539867.680                    21539874.445
 116486742.057 8  90768853.19745  22166664.609                    22166672.051
 117218811.618 7  91339395.403 7  22305986.492                    22305998.371
 117205498.225 7  91328950.18144  22303441.438                    22303450.770
 119844239.788 7  93385170.444 6  22805595.461                    22805605.285
 122595343.227 7  95528896.73243  23329119.734                    23329129.195
 106999492.377 8  83376241.965 8  20361327.297                    20361334.773
 125715862.611 6  97960427.00044  23922938.727                    23922946.789
 107124146.378 8  83473405.85546  20385044.094                    20385052.203
 125765737.592 6  97999282.60643  23932440.289                    23932451.543
 11  8 22 18 31 30.0000000  0 10G11G28G01G24G17G26G07G19G08G13
 113191970.044 8  88201595.17245  21539714.633                    21539721.805
 116462139.631 8  90749682.50245  22161982.930                    22161990.746
 117169885.919 7  91301271.499 7  22296676.484                    22296688.301
 117163582.978 7  91296288.95444  22295465.273                    22295474.914
 119759493.879 7  93319134.751 6  22789468.898                    22789478.438
 122538795.671 6  95484833.71244  23318357.852                    23318368.773
 107015529.944 8  83388738.745 8  20364379.398                    20364386.582
 125819845.858 6  98041452.86344  23942726.805                    23942733.551
 107082455.204 8  83440919.23446  20377110.648                    20377119.063
 125876812.682 6  98085834.39343  23953577.070                    23953588.285
 11  8 22 18 32  0.0000000  0 10G11G28G01G24G17G26G07G19G08G13
 113191739.017 8  88201415.16245  21539670.609                    21539678.246
 116437586.638 8  90730550.31945  22157310.734                    22157318.117
 117121364.899 7  91263462.925 7  22287443.453                    22287455.047
 117122089.068 7  91263956.07644  22287569.375                    22287578.613
 119675034.547 7  93253322.361 6  22773396.891                    22773407.031
 122482785.897 7  95441189.76544  23307700.438                    23307710.379
 107032040.076 8  83401603.765 7  20367521.016                    20367528.383
 125923932.839 6  98122559.52344  23962533.469                    23962541.594
 107041141.379 8  83408726.64646  20369249.008                    20369257.148
 125987887.366 6  98172385.85143  23974714.648                    23974726.125
 11  8 22 18 32 30.0000000  0 10G11G28G01G24G17G26G07G19G08G13
 113192080.741 8  88201681.45045  21539735.492                    21539743.063
 116413082.057 8  90711455.86545  22152647.383                    22152655.352
 117073251.126 7  91225971.682 7  22278287.477                    22278299.508
 117081019.131 7  91231953.55745  22279753.852                    22279763.438
 119590863.219 7  93187734.368 6  22757379.258                    22757389.262
 122427315.994 7  95397966.46744  23297144.789                    23297154.945
 107049023.859 8  83414837.859 7  20370753.117                    20370760.215
 126028121.418 6  98203745.33344  23982360.648                    23982367.641
 107000207.669 8  83376830.25746  20361459.328                    20361467.371
 126098958.898 6  98258934.81543  23995850.164                    23995862.535
 11  8 22 18 33  0.0000000  0 10G11G28G01G24G17G26G07G19G08G13
 113192996.209 8  88202394.80045  21539909.984                    21539917.590
 116388625.849 7  90692399.08645  22147993.500                    22148001.172
 117025547.502 7  91188800.046 7  22269209.977                    22269221.613
 117040375.869 7  91200283.50944  22272019.719                    22272029.559
 119506981.846 7  93122372.338 6  22741416.875                    22741426.875
 122372387.595 7  95355165.12744  23286691.906                    23286702.602
 107066482.344 8  83428441.845 8  20374075.344                    20374082.660
 126132409.282 6  98285008.54144  24002205.586                    24002213.473
 106959656.840 8  83345232.20746  20353742.945                    20353751.309
 126210024.460 6  98345479.13643  24016986.289                    24016997.727
 11  8 22 18 33 30.0000000  0 10G11G28G01G24G17G26G07G19G08G13
 113194485.501 8  88203555.29045  21540193.336                    21540201.051
 116364216.669 8  90673378.96045  22143348.844                    22143356.363
 116978255.692 7  91151949.311 7  22260210.656                    22260222.223
 117000160.986 7  91168947.27745  22264366.484                    22264376.715
 119423391.227 7  93057236.855 7  22725510.469                    22725520.566
 122318002.217 7  95312786.92444  23276342.789                    23276353.102
 107084415.500 8  83442415.715 8  20377487.695                    20377495.262
 126236793.354 7  98366346.72844  24022069.438                    24022076.730
 106919490.571 8  83313933.81846  20346099.727                    20346107.574
 126321080.823 6  98432016.31543  24038119.523                    24038131.555
 11  8 22 18 34  0.0000000  0 10G11G28G01G24G17G26G07G19G08G13
 113196549.043 7  88205163.24545  21540586.148                    21540593.516
 116339853.856 8  90654394.95945  22138712.641                    22138720.332
 116931378.645 7  91115421.762 7  22251290.250                    22251302.508
 116960376.860 7  91137946.66344  22256795.719                    22256806.379
 119340092.567 7  92992328.876 7  22709659.242                    22709669.141
 122264161.360 7  95270833.03144  23266097.664                    23266107.688
 107102823.915 8  83456759.912 7  20380990.961                    20380998.539
 126341270.811 7  98447757.65944  24041951.203                    24041958.406
 106879711.128 8  83282936.85646  20338529.945                    20338537.938
 126432125.045 6  98518544.03543  24059251.109                    24059262.949
 11  8 22 18 34 30.0000000  0 10G11G28G01G24G17G26G07G19G08G13
 113199187.480 8  88207219.16545  21541088.117                    21541095.871
 116315536.919 7  90635446.71545  22134085.898                    22134093.070
 116884918.559 7  91079219.133 7  22242448.758                    22242461.105
 116921025.835 7  91107283.58644  22249307.789                    22249317.617
 119257087.636 7  92927649.785 7  22693863.656                    22693873.742
 122210866.661 7  95229304.69944  23255955.656                    23255965.832
 107121708.537 8  83471475.182 8  20384584.273                    20384592.035
 126445839.338 6  98529239.56444  24061849.688                    24061856.758
 106840321.042 8  83252243.28446  20331034.297                    20331041.953
 126543154.396 6  98605060.14043  24080378.547                    24080391.086
 11  8 22 18 35  0.0000000  0 10G11G28G01G24G17G26G07G19G08G13
 113202401.519 8  88209723.60945  21541699.523                    21541707.387
 116291265.558 7  90616533.97745  22129466.852                    22129474.449
 116838878.495 7  91043343.788 7  22233687.578                    22233699.887
 116882110.909 7  91076960.28645  22241902.359                    22241912.680
 119174378.099 7  92863200.857 7  22678124.359                    22678134.449
 122158120.094 7  95188203.50144  23245918.414                    23245928.035
 107141070.383 8  83486562.300 8  20388268.617                    20388276.484
 126550497.077 7  98610790.97844  24081765.172                    24081772.824
 106801323.452 8  83221855.55546  20323613.000                    20323621.098
 126654166.336 6  98691562.67843  24101504.156                    24101516.715
 11  8 22 18 35 30.0000000  0 10G11G28G01G24G17G26G07G19G08G13
 113206191.129 8  88212676.54545  21542420.469                    21542428.238
 116267038.825 8  90597656.00945  22124856.641                    22124864.199
 116793260.310 7  91007797.188 7  22225006.438                    22225018.691
 116843634.047 7  91046978.34544  22234580.773                    22234590.527
 119091965.028 7  92798982.948 7  22662442.000                    22662451.969
 122105923.144 7  95147530.54043  23235986.078                    23235995.348
 107160909.795 8  83502021.555 8  20392043.938                    20392051.633
 126655241.080 7  98692409.61044  24101697.633                    24101704.996
 106762720.094 8  83191775.01446  20316267.344                    20316275.184
 126765157.670 6  98778049.18543  24122625.586                    24122638.012
 11  8 22 18 36  0.0000000  0 10G11G28G01G24G17G26G07G19G08G13
 113210557.057 7  88216078.56145  21543251.461                    21543259.398
 116242856.349 8  90578812.51945  22120254.344                    22120262.316
 116748066.815 7  90972581.506 7  22216406.969                    22216418.559
 116805597.654 7  91017339.62745  22227342.313                    22227352.035
 119009850.121 7  92734997.384 7  22646815.523                    22646826.219
 122054277.510 7  95107287.18944  23226157.867                    23226167.453
 107181227.632 8  83517853.606 8  20395910.484                    20395917.988
 126760069.061 7  98774093.70644  24121645.492                    24121653.121
 106724513.876 8  83162003.93546  20308996.578                    20309005.113
 126876125.944 6  98864517.69643  24143742.469                    24143755.051
 11  8 22 18 36 30.0000000  0 10G11G28G01G24G17G26G07G19G08G13
 113215499.790 8  88219930.04145  21544192.180                    21544199.891
 116218717.549 8  90560003.07745  22115661.180                    22115668.691
 116703300.620 7  90937698.799 7  22207887.914                    22207899.656
 116768004.138 7  90988045.99545  22220188.750                    22220198.742
 118928034.598 7  92671245.103 7  22631246.406                    22631256.926
 122003184.946 7  95067474.81044  23216435.430                    23216445.227
 107202024.642 8  83534059.043 8  20399868.258                    20399875.840
 126864978.738 7  98855841.42044  24141610.000                    24141617.121
 106686707.236 8  83132544.21746  20301802.125                    20301810.168
 126987068.303 6  98950966.02243  24164853.922                    24164866.098
 11  8 22 18 37  0.0000000  0 10G11G28G01G24G17G26G07G19G08G13
 113221019.594 8  88224231.18845  21545242.469                    21545250.152
 116194621.778 8  90541227.16345  22111075.773                    22111083.395
 116658964.012 7  90903150.850 7  22199450.820                    22199462.527
 116730855.722 7  90959099.19745  22213119.625                    22213129.402
 118846519.835 7  92607727.182 7  22615734.930                    22615744.844
 121952646.782 7  95028094.42644  23206817.742                    23206828.066
 107223301.431 8  83550638.330 8  20403916.859                    20403924.672
 126969967.236 7  98937650.58544  24161588.266                    24161595.613
 106649302.102 8  83103397.35946  20294684.344                    20294692.637
 127097981.862 6  99037391.89743  24185960.016                    24185972.418
 11  8 22 18 37 30.0000000  0 10G11G28G01G24G17G26G07G19G08G13
 113227116.833 8  88228982.29645  21546402.555                    21546410.203
 116170568.403 8  90522484.27945  22106498.820                    22106506.168
 116615059.058 7  90868939.220 7  22191096.508                    22191108.695
 116694154.577 7  90930500.94545  22206135.156                    22206145.465
 118765307.083 7  92544444.594 7  22600280.164                    22600290.340
 121902664.482 7  94989147.19444  23197306.563                    23197316.504
 107245058.421 8  83567591.808 7  20408057.047                    20408064.750
 127075032.422 7  99019519.49443  24181581.875                    24181588.438
 106612300.955 8  83074565.29746  20287643.219                    20287651.332
 127208863.472 6  99123792.92242  24207059.500                    24207073.102
 11  8 22 18 38  0.0000000  0 10G11G28G01G24G17G26G07G19G08G13
 113233791.711 7  88234183.51545  21547672.664                    21547680.879
 116146557.161 7  90503774.23345  22101929.195                    22101936.934
 116571588.340 7  90835065.970 7  22182824.734                    22182836.102
 116657903.069 7  90902253.05545  22199237.016                    22199246.867
 118684397.685 7  92481398.378 7  22584884.133                    22584893.836
 121853239.713 7  94950634.37543  23187901.422                    23187910.898
 107267296.199 8  83584919.922 8  20412288.930                    20412296.605
 127180171.966 6  99101446.36143  24201588.977                    24201595.723
 106575706.696 8  83046050.27846  20280679.688                    20280687.867
 127319710.811 6  99210167.16043  24228153.859                    24228166.902
 11  8 22 18 38 30.0000000  0 10G11G28G01G24G17G26G07G19G08G13
 113241044.492 8  88239835.04245  21549052.984                    21549060.563
 116122587.093 8  90485096.26745  22097367.859                    22097375.457
 116528554.404 7  90801533.067 7  22174635.180                    22174646.895
 116622103.456 7  90874357.28544  22192424.250                    22192434.566
 118603793.126 7  92418589.705 7  22569545.781                    22569555.398
 121804373.995 7  94912557.21043  23178602.813                    23178612.445
 107290015.408 8  83602623.173 7  20416612.031                    20416620.020
 127285383.156 6  99183429.03843  24221609.391                    24221617.480
 106539521.180 8  83017853.77346  20273793.867                    20273801.996
 127430521.243 6  99296512.65843  24249241.461                    24249253.973
 11  8 22 18 39  0.0000000  0 10G11G28G01G24G17G26G07G19G08G13
 113248875.452 8  88245937.09645  21550543.055                    21550550.902
 116098657.932 8  90466450.17745  22092814.508                    22092822.098
 116485959.499 7  90768342.276 7  22166529.164                    22166541.320
 116586758.252 7  90846815.60345  22185698.453                    22185708.504
 118523494.728 7  92356019.603 6  22554265.367                    22554274.500
 121756068.768 7  94874916.79443  23169410.102                    23169419.504
 107313216.608 8  83620702.004 8  20421027.195                    20421035.039
 127390664.130 6  99265466.11743  24241644.250                    24241651.000
 106503746.881 8  82989977.69846  20266986.094                    20266994.152
 127541291.608 6  99382826.96443  24270319.719                    24270333.180
 11  8 22 18 39 30.0000000  0 10G11G28G01G24G17G26G07G19G08G13
 113257285.145 7  88252490.11645  21552143.609                    21552151.047
 116074768.963 8  90447835.40945  22088268.484                    22088276.191
 116443806.142 7  90735495.538 7  22158507.531                    22158519.391
 116551869.504 7  90819629.61245  22179059.516                    22179069.176
 118443503.770 7  92293689.056 6  22539043.313                    22539052.059
 121708325.719 7  94837714.39943  23160325.133                    23160334.629
 107336900.563 8  83639157.006 8  20425534.109                    20425541.910
 127496012.185 6  99347555.46343  24261691.031                    24261698.281
 106468386.318 8  82962424.00946  20260257.563                    20260265.301
 127652019.383 6  99469108.07743  24291390.742                    24291403.598
 11  8 22 18 40  0.0000000  0 10G11G28G01G24G17G26G07G19G08G13
 113266273.434 7  88259493.98445  21553854.047                    21553861.770
 116050919.928 8  90429251.75945  22083730.023                    22083738.137
 116402096.557 7  90702994.595 7  22150570.773                    22150582.859
 116517439.105 7  90792800.75045  22172507.641                    22172518.066
 118363821.394 7  92231598.975 6  22523880.242                    22523889.656
 121661145.964 7  94800950.97543  23151347.398                    23151356.703
 107361067.181 8  83657988.117 8  20430132.852                    20430140.500
 127601424.880 6  99429695.18143  24281751.070                    24281757.961
 106433441.669 8  82935194.40446  20253607.602                    20253615.871
 127762701.676 6  99555353.67943  24312453.422                    24312466.520
 11  8 22 18 40 30.0000000  0 10G11G28G01G24G17G26G07G19G08G13
 113275840.410 8  88266948.77045  21555674.641                    21555682.230
 116027110.101 8  90410698.65345  22079199.602                    22079206.754
 116360832.831 7  90670841.070 7  22142718.344                    22142730.000
 116483469.443 7  90766330.92245  22166043.359                    22166053.676
 118284448.840 7  92169750.310 7  22508776.391                    22508785.777
 121614530.741 7  94764627.43144  23142476.266                    23142485.914
 107385717.359 8  83677196.030 8  20434823.594                    20434831.645
 127706899.726 6  99511883.29443  24301821.938                    24301829.414
 106398915.148 8  82908290.62346  20247037.492                    20247046.105
 127873335.917 6  99641561.87243  24333506.711                    24333519.988
 11  8 22 18 41  0.0000000  0 10G11G28G01G24G17G26G07G19G08G13
 113285986.467 8  88274854.80845  21557605.031                    21557612.523
 116003339.008 8  90392175.73745  22074675.773                    22074683.570
 116320017.524 7  90639036.968 7  22134951.516                    22134963.492
 116449962.978 7  90740222.02645  22159667.070                    22159676.809
 118205387.845 7  92108144.412 7  22493730.938                    22493740.965
 121568481.678 7  94728745.04944  23133713.383                    23133723.570
 107410851.718 8  83696781.232 8  20439606.609                    20439614.367
 127812434.331 6  99594117.97743  24321904.727                    24321912.535
 106364809.332 8  82881714.66146  20240547.242                    20240555.266
 127983919.180 6  99727730.35243  24354549.844                    24354563.512
 11  8 22 18 41 30.0000000  0 10G11G28G01G24G17G26G07G19G08G13
 113296711.463 8  88283211.95045  21559646.148                    21559653.711
 115979605.678 8  90373682.24245  22070159.484                    22070167.469
 116279652.443 7  90607583.689 7  22127270.352                    22127282.305
 116416921.579 7  90714475.51545  22153379.727                    22153389.746
 118126639.258 7  92046781.963 7  22478745.258                    22478755.164
 121523000.242 7  94693304.97144  23125059.109                    23125069.352
 107436470.491 8  83716743.883 8  20444482.023                    20444489.508
 127918026.246 6  99676397.33243  24341997.766                    24342005.672
 106331126.417 8  82855468.23246  20234137.523                    20234146.168
 128094448.566 6  99813856.81243  24375582.992                    24375597.051
 11  8 22 18 42  0.0000000  0 10G11G28G01G24G17G26G07G19G08G13
 113308015.871 8  88292020.57545  21561797.617                    21561805.027
 115955910.145 8  90355218.19845  22065650.461                    22065657.957
 116239740.417 7  90576483.438 7  22119675.242                    22119687.246
 116384347.512 7  90689093.14745  22147180.914                    22147190.629
 118048204.640 7  91985664.157 7  22463820.086                    22463829.641
 121478087.464 7  94658308.01444  23116512.555                    23116522.582
 107462574.144 8  83737084.370 8  20449449.508                    20449456.930
 128023673.522 6  99758719.81643  24362102.414                    24362109.648
 106297868.988 8  82829553.35746  20227808.594                    20227817.152
 128204921.489 6  99899939.24943  24396605.727                    24396619.293
 11  8 22 18 42 30.0000000  0 10G11G28G01G24G17G26G07G19G08G13
 113319899.346 8  88301280.41445  21564058.883                    21564066.254
 115932251.534 8  90336782.92145  22061148.570                    22061155.707
 116200283.302 7  90545737.663 7  22112166.672                    22112178.434
 116352242.501 7  90664076.28644  22141071.242                    22141081.559
 117970085.009 8  91924791.799 7  22448953.938                    22448964.063
 121433744.684 7  94623755.20344  23108074.664                    23108084.367
 107489162.939 8  83757802.893 7  20454508.820                    20454516.664
 128129373.669 6  99841083.53943  24382216.063                    24382223.691
 106265039.235 8  82803971.72846  20221561.633                    20221569.871
 128315335.230 6  99985975.62442  24417616.938                    24417630.164
 11  8 22 18 43  0.0000000  0 10G11G28G01G24G17G26G07G19G08G13
 113332361.763 8  88310991.38945  21566430.234                    21566437.867
 115908629.572 8  90318376.21245  22056653.188                    22056660.684
 116161283.048 7  90515347.892 7  22104745.508                    22104757.180
 116320608.649 7  90639426.55045  22135051.906                    22135061.715
 117892281.185 8  91864165.522 7  22434148.781                    22434158.180
 121389973.037 7  94589647.43244  23099744.477                    23099754.863
 107516236.986 8  83778899.540 7  20459660.742                    20459668.727
 128235124.022 7  99923486.37843  24402340.391                    24402346.941
 106232638.936 8  82778724.73946  20215395.969                    20215404.129
 128425686.853 6 100071963.59342  24438616.133                    24438630.055
 11  8 22 18 43 30.0000000  0 10G11G28G01G24G17G26G07G19G08G13
 113345403.580 8  88321153.84245  21568912.102                    21568919.746
 115885043.874 8  90299997.74645  22052165.383                    22052171.973
 116122742.386 7  90485316.226 7  22097411.109                    22097423.215
 116289448.280 7  90615145.76645  22129122.359                    22129132.129
 117814794.824 8  91803786.616 7  22419403.461                    22419413.035
 121346773.941 7  94555985.80144  23091524.234                    23091534.328
 107543797.236 8  83800375.038 7  20464905.609                    20464913.430
 128340922.608 7 100005926.79444  24422472.609                    24422480.109
 106200671.011 8  82753814.67046  20209312.578                    20209321.102
 128535973.838 6 100157901.14842  24459603.734                    24459616.910
 11  8 22 18 44  0.0000000  0 10G11G28G01G24G17G26G07G19G08G13
 113359024.691 8  88331767.69945  21571504.078                    21571511.605
 115861493.626 8  90281646.91445  22047683.609                    22047691.336
 116084663.564 7  90455644.464 7  22090165.125                    22090176.621
 116258763.536 7  90591235.60345  22123282.914                    22123292.512
 117737627.318 7  91743656.171 7  22404719.266                    22404729.102
 121304148.672 7  94522771.32344  23083412.953                    23083423.367
 107571844.061 8  83822229.694 7  20470242.609                    20470250.691
 128446767.065 6 100088402.96244  24442614.211                    24442621.934
 106169137.543 8  82729243.13246  20203312.180                    20203320.273
 128646193.671 6 100243786.41242  24480578.109                    24480591.668
 11  8 22 18 44 30.0000000  0 10G11G28G01G24G17G26G07G19G08G13
 113373225.050 8  88342832.89545  21574206.219                    21574214.383
 115837978.399 8  90263323.36345  22043208.703                    22043216.320
 116047048.294 7  90426333.883 7  22083007.031                    22083018.754
 116228556.332 7  90567697.55645  22117534.602                    22117544.383
 117660779.472 7  91683774.798 7  22390095.219                    22390104.660
 121262098.603 7  94490005.01744  23075410.945                    23075421.406
 107600377.514 8  83844463.531 8  20475672.336                    20475680.328
 128552654.996 7 100170912.95944  24462763.961                    24462771.801
 106138040.511 8  82705011.68246  20197394.602                    20197402.711
 128756343.254 6 100329616.98342  24501539.328                    24501552.426
 11  8 22 18 45  0.0000000  0 10G11G28G01G24G17G26G07G19G08G13
 113388004.496 8  88354349.34645  21577018.797                    21577026.676
 115814498.010 8  90245026.96845  22038740.867                    22038748.277
 116009898.885 8  90397386.316 7  22075937.953                    22075949.805
 116198828.560 7  90544533.09045  22111877.742                    22111887.719
 117584252.477 7  91624143.442 7  22375532.133                    22375542.180
 121220624.307 7  94457687.39044  23067518.477                    23067528.969
 107629397.618 8  83867076.578 7  20481194.758                    20481202.750
 128658584.128 7 100253455.09944  24482921.633                    24482929.227
 106107382.090 8  82681121.99646  20191560.438                    20191568.379
 128866420.033 6 100415390.77842  24522486.266                    24522500.188
 11  8 22 18 45 30.0000000  0 10G11G28G01G24G17G26G07G19G08G13
 113403363.078 8  88366317.06445  21579941.367                    21579948.691
 115791051.843 8  90226757.23445  22034278.828                    22034286.285
 115973217.650 7  90368803.560 7  22068957.734                    22068969.359
 116169582.500 7  90521743.98145  22106312.273                    22106322.020
 117508047.974 8  91564763.388 7  22361031.430                    22361041.020
 121179727.562 7  94425819.79244  23059736.344                    23059746.719
 107658904.999 8  83890069.319 7  20486809.695                    20486817.910
 128764552.266 6 100336027.60544  24503087.141                    24503094.703
 106077165.526 8  82657576.62346  20185810.648                    20185818.551
 128976421.438 6 100501105.83243  24543419.867                    24543432.980
 11  8 22 18 46  0.0000000  0 10G11G28G01G24G17G26G07G19G08G13
 113419300.808 8  88378736.08345  21582974.141                    21582982.016
 115767639.551 8  90208513.89545  22029824.016                    22029831.195
 115937007.105 7  90340587.587 7  22062067.023                    22062078.480
 116140820.282 7  90499331.88245  22100839.367                    22100849.184
 117432166.953 7  91505635.377 7  22346591.313                    22346601.254
 121139409.488 7  94394403.12344  23052064.070                    23052074.000
 107688900.652 8  83913442.529 8  20492517.797                    20492525.570
 128870557.325 6 100418628.88944  24523259.203                    24523266.391
 106047392.875 8  82634377.14746  20180144.734                    20180153.410
 129086345.059 6 100586760.28743  24564337.336                    24564351.176
 11  8 22 18 46 30.0000000  0 10G11G28G01G24G17G26G07G19G08G13
 113435817.209 8  88391606.01545  21586116.891                    21586124.879
 115744260.286 8  90190296.29745  22025375.078                    22025382.176
 115901268.340 7  90312739.238 7  22055265.875                    22055277.613
 116112543.203 7  90477297.81745  22095457.781                    22095467.977
 117356610.316 7  91446760.141 7  22332213.445                    22332223.219
 121099671.015 7  94363438.08244  23044502.188                    23044512.004
 107719383.725 8  83937195.548 7  20498318.484                    20498326.668
 128976596.478 6 100501256.72644  24543437.914                    24543445.641
 106018065.981 8  82611525.02746  20174564.289                    20174572.426
 129196187.859 6 100672351.76343  24585239.828                    24585253.547
 11  8 22 18 47  0.0000000  0 10G11G28G01G24G17G26G07G19G08G13
 113452912.315 8  88404926.87845  21589369.953                    21589378.273
 115720914.392 8  90172104.70245  22020932.008                    22020939.211
 115866004.293 7  90285260.783 7  22048555.656                    22048567.055
 116084753.503 7  90455643.53945  22090169.969                    22090179.977
 117281379.301 7  91388138.624 7  22317897.164                    22317906.691
 121060513.065 7  94332925.40244  23037050.773                    23037060.680
 107750354.825 8  83961328.841 7  20504212.211                    20504220.004
 129082667.843 6 100583909.67644  24563622.672                    24563630.684
 105989186.821 8  82589021.78446  20169068.867                    20169076.609
 129305947.145 6 100757878.14143  24606126.766                    24606139.910
 11  8 22 18 47 30.0000000  0 10G11G28G01G24G17G26G07G19G08G13
 113470586.432 8  88418698.91645  21592733.477                    21592741.316
 115697601.121 8  90153938.53445  22016495.820                    22016503.383
 115831216.894 7  90258153.752 7  22041935.695                    22041947.516
 116057453.444 7  90434370.79345  22084974.695                    22084984.707
 117206475.376 8  91329771.997 7  22303643.727                    22303652.832
 121021937.054 7  94302866.18244  23029709.961                    23029719.875
 107781814.631 8  83985842.953 7  20510198.805                    20510206.352
 129188769.573 6 100666586.25843  24583813.781                    24583820.832
 105960758.372 8  82566869.73946  20163659.352                    20163667.332
 129415620.689 6 100843337.71443  24626997.250                    24627010.883
 11  8 22 18 48  0.0000000  0 10G11G28G01G24G17G26G07G19G08G13
 113488838.976 8  88432921.67445  21596206.805                    21596214.512
 115674319.908 8  90135797.34145  22012065.609                    22012073.129
 115796908.232 7  90231419.750 7  22035406.688                    22035418.777
 116030644.732 7  90413480.91944  22079873.281                    22079882.930
 117131899.406 7  91271660.922 7  22289452.422                    22289461.887
 120983944.146 7  94273261.32844  23022480.328                    23022490.082
 107813763.313 8  84010738.001 8  20516278.484                    20516286.141
 129294899.319 6 100749284.70543  24604008.273                    24604015.633
 105932782.562 8  82545070.40146  20158335.414                    20158343.324
 129525205.806 6 100928728.35843  24647850.484                    24647863.797
 11  8 22 18 48 30.0000000  0 10G11G28G01G24G17G26G07G19G08G13
 113507669.942 8  88447595.16145  21599790.313                    21599797.832
 115651070.887 8  90117681.23645  22007641.508                    22007649.027
 115763080.233 7  90205060.299 7  22028969.375                    22028981.168
 116004329.413 7  90392975.51345  22074865.539                    22074875.441
 117057652.670 7  91213806.379 7  22275323.594                    22275333.137
 120946535.297 7  94244111.57444  23015361.547                    23015371.180
 107846201.032 8  84036014.112 7  20522451.023                    20522459.168
 129401054.911 6 100832003.34542  24624208.805                    24624216.953
 105905261.769 8  82523625.62546  20153098.344                    20153106.199
 129634700.375 6 101014048.41642  24668687.445                    24668700.891
 11  8 22 18 49  0.0000000  0  9G11G28G01G24G17G26G07G19G08
 113527079.821 8  88462719.74545  21603484.063                    21603491.465
 115627854.409 8  90099590.48245  22003223.539                    22003230.758
 115729736.013 7  90179077.820 7  22022624.094                    22022636.223
 115978510.261 7  90372856.71545  22069952.508                    22069962.320
 116983737.248 8  91156210.008 7  22261258.445                    22261267.328
 120909712.365 7  94215418.38444  23008354.188                    23008363.973
 107879128.855 8  84061672.117 7  20528717.016                    20528724.637
 129507234.842 6 100914740.86443  24644414.727                    24644422.992
 105878198.785 8  82502537.57546  20147948.531                    20147956.367
 11  8 22 18 49 30.0000000  0  9G11G28G01G24G17G26G07G19G08
 113547066.936 8  88478294.12445  21607287.195                    21607294.758
 115604668.506 7  90081523.56945  21998811.281                    21998818.914
 115696876.209 7  90153472.813 7  22016371.367                    22016383.207
 115953187.463 7  90353124.69345  22065133.258                    22065143.477
 116910152.532 8  91098871.322 7  22247255.375                    22247264.656
 120873474.874 7  94187181.39944  23001458.570                    23001468.438
 107912545.539 8  84087711.066 7  20535076.375                    20535084.160
 129613435.466 6 100997494.54443  24664624.352                    24664632.457
 105851594.317 8  82481806.81646  20142885.469                    20142893.746
 11  8 22 18 50  0.0000000  0  9G11G28G01G24G17G26G07G19G08
 113567630.797 8  88494317.89845  21611200.336                    21611207.984
 115581512.521 8  90063479.95245  21994404.836                    21994411.824
 115664502.391 7  90128246.489 7  22010211.242                    22010222.996
 115928362.819 7  90333780.83645  22060409.406                    22060419.543
 116836899.654 8  91041791.221 7  22233315.680                    22233325.340
 120837823.836 7  94159401.39144  22994673.891                    22994683.984
 107946451.161 8  84114130.990 7  20541528.359                    20541536.199
 129719654.996 6 101080262.96543  24684837.695                    24684845.648
 105825450.748 8  82461435.19346  20137910.914                    20137918.648
 11  8 22 18 50 30.0000000  0  9G11G28G01G24G17G26G07G19G08
 113588771.458 8  88510791.13945  21615223.688                    21615230.789
 115558386.767 8  90045459.89045  21990004.227                    21990011.516
 115632617.075 7  90103400.812 7  22004143.164                    22004155.008
 115904038.499 7  90314826.85045  22055780.719                    22055790.281
 116763979.937 8  90984970.712 7  22219439.750                    22219448.398
 120802760.093 7  94132079.01144  22988001.422                    22988011.527
 107980846.044 8  84140932.163 7  20548073.281                    20548081.180
 129825891.011 6 101163044.23743  24705053.703                    24705061.684
 105799770.418 8  82441424.54046  20133024.063                    20133032.777
 11  8 22 18 51  0.0000000  0  9G11G28G01G24G17G26G07G19G08
 113610488.165 8  88527713.24945  21619356.047                    21619363.891
 115535290.281 8  90027462.64645  21985608.773                    21985616.277
 115601221.522 7  90078936.765 7  21998169.133                    21998180.691
 115880215.945 7  90296263.84045  22051247.367                    22051257.301
 116691394.269 8  90928410.502 7  22205627.016                    22205635.910
 120768284.058 6  94105214.58444  22981440.961                    22981450.289
 108015729.721 8  84168114.218 7  20554712.031                    20554719.367
 129932141.275 6 101245836.59143  24725272.375                    24725280.066
 105774554.810 8  82421776.00346  20128225.523                    20128233.707
 11  8 22 18 51 30.0000000  0  9G11G28G01G24G17G26G07G19G08
 113632781.120 8  88545084.36445  21623598.477                    21623605.844
 115512223.066 8  90009488.20545  21981219.797                    21981227.336
 115570318.161 7  90054856.240 7  21992288.039                    21992299.711
 115856897.475 7  90278093.63745  22046809.672                    22046819.758
 116619143.909 8  90872111.576 7  22191877.836                    22191887.363
 120734397.158 7  94078809.22044  22974992.750                    22975002.328
 108051102.687 8  84195677.534 7  20561443.117                    20561450.945
 130038403.831 6 101328638.53643  24745493.141                    24745501.902
 105749807.049 8  82402492.02946  20123515.883                    20123523.902
 11  8 22 18 52  0.0000000  0  9G11G28G01G24G17G26G07G19G08
 113655649.194 8  88562903.63745  21627949.992                    21627957.477
 115489184.685 8  89991536.23845  21976835.305                    21976842.980
 115539908.787 7  90031160.644 7  21986501.500                    21986513.242
 115834084.282 7  90260317.13445  22042468.844                    22042478.746
 116547229.649 8  90816074.555 7  22178192.727                    22178202.238
 120701100.042 7  94052863.42044  22968656.258                    22968666.152
 108086964.778 8  84223621.977 7  20568267.234                    20568274.859
 130144676.300 6 101411448.20243  24765716.984                    24765724.707
 105725528.594 8  82383573.73846  20118896.250                    20118904.879
 11  8 22 18 52 30.0000000  0  9G11G28G01G24G17G26G07G19G08
 113679092.811 8  88581171.37445  21632411.102                    21632418.910
 115466175.337 8  89973606.88145  21972456.953                    21972465.070
 115509995.552 8  90007851.640 7  21980809.781                    21980821.078
 115811778.721 7  90242936.19945  22038224.047                    22038234.277
 116475652.626 8  90760300.303 7  22164572.672                    22164581.836
 120668393.821 7  94027378.07544  22962432.734                    22962442.590
 108123316.862 8  84251948.237 7  20575184.633                    20575192.461
 130250957.074 6 101494264.34443  24785940.953                    24785949.230
 105701721.927 8  82365023.07946  20114365.984                    20114374.180
 11  8 22 18 53  0.0000000  0  9G11G28G01G24G17G26G07G19G08
 113703111.706 8  88599887.39345  21636981.469                    21636989.230
 115443194.700 7  89955699.90045  21968083.734                    21968091.367
 115480580.694 7  89984930.995 7  21975211.164                    21975223.219
 115789982.642 7  90225952.26345  22034076.570                    22034086.223
 116404414.215 8  90704789.905 7  22151016.023                    22151025.219
 120636279.907 7  94002354.24744  22956321.477                    22956331.469
 108160158.871 8  84280656.266 7  20582195.094                    20582203.188
 130357244.287 6 101577085.51543  24806167.172                    24806174.766
 105678389.798 8  82346842.19646  20109925.750                    20109934.262
 11  8 22 18 53 30.0000000  0  8G11G28G01G24G17G26G07G08
 113727705.534 8  88619051.38945  21641661.789                    21641669.191
 115420242.677 8  89937815.22745  21963716.258                    21963723.375
 115451666.114 7  89962400.170 7  21969709.266                    21969721.023
 115768697.764 7  90209366.65945  22030026.273                    22030036.023
 116333515.745 8  90649544.404 7  22137524.594                    22137533.836
 120604758.738 7  93977792.30544  22950323.422                    22950333.336
 108197490.884 8  84309746.112 7  20589299.688                    20589307.105
 105655534.093 8  82329032.54146  20105576.633                    20105584.945
 11  8 22 18 54  0.0000000  0  8G11G28G01G24G17G26G07G08
 113752872.633 8  88638662.10745  21646450.977                    21646458.555
 115397318.097 7  89919951.93545  21959353.664                    21959360.938
 115423252.715 7  89940259.877 7  21964302.273                    21964313.977
 115747924.831 7  90193179.99145  22026073.195                    22026082.699
 116262957.351 8  90594563.897 7  22124097.867                    22124107.016
 120573830.448 6  93953692.34344  22944437.914                    22944447.664
 108235312.164 8  84339217.197 7  20596497.016                    20596504.609
 105633155.862 8  82311594.94146  20101318.484                    20101326.613
 11  8 22 18 54 30.0000000  0  8G11G28G01G24G17G26G07G08
 113778612.685 8  88658719.27745  21651349.063                    21651357.008
 115374420.831 8  89902109.92045  21954996.305                    21955004.160
 115395342.362 7  89918511.572 7  21958991.539                    21959002.688
 115727665.670 7  90177393.66345  22022218.070                    22022227.770
 116192739.943 8  90539849.083 7  22110735.336                    22110745.121
 120543495.740 7  93930054.89144  22938665.000                    22938674.867
 108273622.847 8  84369069.647 7  20603787.086                    20603794.957
 105611257.463 8  82294531.25046  20097151.148                    20097159.266
 11  8 22 18 55  0.0000000  0  8G11G28G01G24G17G26G07G08
 113804925.505 8  88679222.76745  21656356.297                    21656363.680
 115351550.610 8  89884288.97645  21950644.594                    21950651.945
 115367937.069 7  89897156.818 7  21953776.195                    21953787.715
 115707921.795 7  90162008.85345  22018460.953                    22018470.531
 116122864.304 8  90485400.584 7  22097439.109                    22097447.688
 120513755.135 7  93906880.39744  22933005.766                    22933015.473
 108312422.660 8  84399303.234 7  20611170.531                    20611178.273
 105589840.945 8  82277843.04946  20093075.523                    20093083.863
 11  8 22 18 55 30.0000000  0  8G11G28G01G24G17G26G07G08
 113831809.611 8  88700171.40445  21661472.086                    21661479.648
 115328706.530 8  89866488.40845  21946297.438                    21946304.750
 115341038.001 7  89876196.522 7  21948657.383                    21948669.277
 115688694.473 7  90147026.54745  22014802.148                    22014811.363
 116053331.366 8  90431219.136 7  22084207.047                    22084216.074
 120484608.975 6  93884169.11344  22927459.500                    22927468.816
 108351711.113 8  84429917.576 7  20618646.766                    20618654.586
 105568907.873 8  82261531.55646  20089092.258                    20089100.504
 11  8 22 18 56  0.0000000  0  8G11G28G01G24G17G26G07G08
 113859264.922 8  88721565.14445  21666696.836                    21666704.336
 115305888.701 7  89848708.29745  21941955.211                    21941962.980
 115314647.146 7  89855632.234 7  21943635.078                    21943647.078
 115669985.791 7  90132448.38245  22011242.070                    22011251.734
 115984142.321 8  90377305.652 7  22071041.219                    22071049.914
 120456058.335 7  93861921.83144  22922026.305                    22922035.859
 108391488.620 8  84460913.004 7  20626216.055                    20626224.137
 105548461.015 8  82245598.93046  20085201.359                    20085209.516
 11  8 22 18 56 30.0000000  0  8G11G28G01G24G17G26G07G08
 113887290.621 8  88743403.34045  21672029.789                    21672037.625
 115283096.859 7  89830948.43145  21937617.727                    21937625.852
 115288766.422 7  89835465.465 7  21938710.617                    21938721.855
 115651797.004 7  90118275.34045  22007780.328                    22007790.637
 115915297.584 8  90323660.449 7  22057940.039                    22057949.285
 120428103.402 7  93840138.77444  22916706.430                    22916715.938
 108431754.863 8  84492289.270 7  20633878.539                    20633886.980
 105528501.522 8  82230046.07446  20081403.359                    20081411.668
 11  8 22 18 57  0.0000000  0  8G11G28G01G24G17G26G07G08
 113915886.332 8  88765685.70045  21677471.313                    21677479.148
 115260330.716 8  89813208.59045  21933285.758                    21933293.535
 115263397.051 7  89815697.157 7  21933882.578                    21933894.086
 115634129.733 7  90104508.66445  22004418.664                    22004428.730
 115846798.133 8  90270284.305 7  22044904.852                    22044914.563
 120400744.848 7  93818820.41844  22911501.039                    22911510.539
 108472509.701 8  84524046.251 7  20641634.109                    20641642.445
 105509031.996 8  82214875.00846  20077698.367                    20077706.582
